[[{"header":{"parameterUnit":"m.s-1","parameterCategory":1,"la1":31.0,"la2":29.5877,"lo1":-88.7671,"lo2":-86.6584,"dy":0.0162,"dx":0.0185,"nx":115,"ny":88,"refTime":"2023-09-13T12:00:00:Z","depth":0,"parameterNumber":2,"parameterNumberName":"U-component_of_WINDS"},"data":[0.0,0.0,0.0,0.0,0.0,0.0,0.0,0.0,0.0,0.0,0.0,0.0,0.0,0.0,0.0,0.0,0.0,0.0,0.0,0.0,0.0,0.0,0.0,0.0,0.0,0.0,0.0,0.0,0.0,0.0,0.0,0.0,0.0,0.0,0.0,0.0,0.0,0.0,0.0,0.0,0.0,0.0,0.0,0.0,0.0,0.0,0.0,0.0,0.0,0.0,0.0,0.0,0.0,0.0,0.0,0.0,0.0,0.0,0.0,0.0,0.0,0.0,0.0,0.0,0.0,0.0,0.0,0.0,0.0,0.0,0.0,0.0,0.0,0.0,0.0,0.0,0.0,0.0,0.0,0.0,0.0,0.0,0.0,0.0,0.0,0.0,0.0,0.0,0.0,0.0,0.0,0.0,0.0,0.0,0.0,0.0,0.0,0.0,0.0,0.0,0.0,0.0,0.0,0.0,0.0,0.0,0.0,0.0,0.0,0.0,0.0,0.0,0.0,0.0,0.0,0.0,0.0,0.0,0.0,0.0,0.0,0.0,0.0,0.0,0.0,0.0,0.0,0.0,0.0,0.0,0.0,0.0,0.0,0.0,0.0,0.0,0.0,0.0,0.0,0.0,0.0,0.0,0.0,0.0,0.0,0.0,0.0,0.0,0.0,0.0,0.0,0.0,0.0,0.0,0.0,0.0,0.0,0.0,0.0,0.0,0.0,0.0,0.0,0.0,0.0,0.0,0.0,0.0,0.0,0.0,0.0,0.0,0.0,0.0,0.0,0.0,0.0,0.0,0.0,0.0,0.0,0.0,0.0,0.0,0.0,0.0,0.0,0.0,0.0,0.0,0.0,0.0,0.0,0.0,0.0,0.0,0.0,0.0,0.0,0.0,0.0,0.0,0.0,0.0,0.0,0.0,0.0,0.0,0.0,0.0,0.0,0.0,0.0,0.0,0.0,0.0,0.0,0.0,0.0,0.0,0.0,0.0,0.0,0.0,0.0,0.0,0.0,0.0,0.0,0.0,0.0,0.0,0.0,0.0,0.0,0.0,0.0,0.0,0.0,0.0,0.0,0.0,0.0,0.0,0.0,0.0,0.0,0.0,0.0,0.0,0.0,0.0,0.0,0.0,0.0,0.0,0.0,0.0,0.0,0.0,0.0,0.0,0.0,0.0,0.0,0.0,0.0,0.0,0.0,0.0,0.0,0.0,0.0,0.0,0.0,0.0,0.0,0.0,0.0,0.0,0.0,0.0,0.0,0.0,0.0,0.0,0.0,0.0,0.0,0.0,0.0,0.0,0.0,0.0,0.0,0.0,0.0,0.0,0.0,0.0,0.0,0.0,0.0,0.0,0.0,0.0,0.0,0.0,0.0,0.0,0.0,0.0,0.0,0.0,0.0,0.0,0.0,0.0,0.0,0.0,0.0,0.0,0.0,0.0,0.0,0.0,0.0,0.0,0.0,0.0,0.0,0.0,0.0,0.0,0.0,0.0,0.0,0.0,0.0,0.0,0.0,0.0,0.0,0.0,0.0,0.0,0.0,0.0,0.0,0.0,0.0,0.0,0.0,0.0,0.0,0.0,0.0,0.0,0.0,0.0,0.0,0.0,0.0,0.0,0.0,0.0,0.0,0.0,0.0,0.0,0.0,0.0,0.0,0.0,0.0,0.0,0.0,0.0,0.0,0.0,0.0,0.0,0.0,0.0,0.0,0.0,0.0,0.0,0.0,0.0,0.0,0.0,0.0,0.0,0.0,0.0,0.0,0.0,0.0,0.0,0.0,0.0,0.0,0.0,0.0,0.0,0.0,0.0,0.0,0.0,0.0,0.0,0.0,0.0,0.0,0.0,0.0,0.0,0.0,0.0,0.0,0.0,0.0,0.0,0.0,0.0,0.0,0.0,0.0,0.0,0.0,0.0,0.0,0.0,0.0,0.0,0.0,0.0,0.0,0.0,0.0,0.0,0.0,0.0,0.0,0.0,0.0,0.0,0.0,0.0,0.0,0.0,0.0,0.0,0.0,0.0,0.0,0.0,0.0,0.0,0.0,0.0,0.0,0.0,0.0,0.0,0.0,0.0,0.0,0.0,0.0,0.0,0.0,0.0,0.0,0.0,0.0,0.0,0.0,0.0,0.0,0.0,0.0,0.0,0.0,0.0,0.0,0.0,0.0,0.0,0.0,0.0,0.0,0.0,0.0,0.0,0.0,0.0,0.0,0.0,0.0,0.0,0.0,0.0,0.0,0.0,0.0,0.0,0.0,0.0,0.0,0.0,0.0,0.0,0.0,0.0,0.0,0.0,0.0,0.0,0.0,0.0,0.0,0.0,0.0,0.0,0.0,0.0,0.0,0.0,0.0,0.0,0.0,0.0,0.0,0.0,0.0,0.0,0.0,0.0,0.0,0.0,0.0,0.0,0.0,0.0,0.0,0.0,0.0,0.0,0.0,0.0,0.0,0.0,0.0,0.0,0.0,0.0,0.0,0.0,0.0,0.0,0.0,0.0,0.0,0.0,0.0,0.0,0.0,0.0,0.0,0.0,0.0,0.0,0.0,0.0,0.0,0.0,0.0,0.0,0.0,0.0,0.0,0.0,0.0,0.0,0.0,0.0,0.0,0.0,0.0,0.0,0.0,0.0,0.0,0.0,0.0,0.0,0.0,0.0,0.0,0.0,0.0,0.0,0.0,0.0,0.0,0.0,0.0,0.0,0.0,0.0,0.0,0.0,0.0,0.0,0.0,0.0,0.0,0.0,0.0,0.0,0.0,0.0,0.0,0.0,0.0,0.0,0.0,0.0,0.0,0.0,0.0,0.0,0.0,0.0,0.0,0.0,0.0,0.0,0.0,0.0,0.0,0.0,0.0,0.0,0.0,0.0,0.0,0.0,0.0,0.0,0.0,0.0,0.0,0.0,0.0,0.0,0.0,0.0,0.0,0.0,0.0,0.0,0.0,0.0,0.0,0.0,0.0,0.0,0.0,0.0,0.0,0.0,0.0,0.0,0.0,0.0,0.0,0.0,0.0,0.0,0.0,0.0,0.0,0.0,0.0,0.0,0.0,0.0,0.0,0.0,0.0,0.0,0.0,0.0,0.0,0.0,0.0,0.0,0.0,0.0,0.0,0.0,0.0,0.0,0.0,0.0,0.0,0.0,0.0,0.0,0.0,0.0,0.0,0.0,0.0,0.0,0.0,0.0,0.0,0.0,0.0,0.0,0.0,0.0,0.0,0.0,0.0,0.0,0.0,0.0,0.0,0.0,0.0,0.0,0.0,0.0,0.0,0.0,0.0,0.0,0.0,0.0,0.0,0.0,0.0,0.0,0.0,0.0,0.0,0.0,0.0,0.0,0.0,0.0,0.0,0.0,0.0,0.0,0.0,0.0,0.0,0.0,0.0,0.0,0.0,0.0,0.0,0.0,0.0,0.0,0.0,0.0,0.0,0.0,0.0,0.0,0.0,0.0,0.0,0.0,0.0,0.0,0.0,0.0,0.0,0.0,0.0,0.0,0.0,0.0,0.0,0.0,0.0,0.0,0.0,0.0,0.0,0.0,0.0,0.0,0.0,0.0,0.0,0.0,0.0,0.0,0.0,0.0,0.0,0.0,0.0,0.0,0.0,0.0,0.0,0.0,0.0,0.0,0.0,0.0,0.0,0.0,0.0,0.0,0.0,0.0,0.0,0.0,0.0,0.0,0.0,0.0,0.0,0.0,0.0,0.0,0.0,0.0,0.0,0.0,0.0,0.0,0.0,0.0,0.0,0.0,0.0,0.0,0.0,0.0,0.0,0.0,0.0,0.0,0.0,0.0,0.0,0.0,0.0,0.0,0.0,0.0,0.0,0.0,0.0,0.0,0.0,0.0,0.0,0.0,0.0,0.0,0.0,0.0,0.0,0.0,0.0,0.0,0.0,0.0,0.0,0.0,0.0,0.0,0.0,0.0,0.0,0.0,0.0,0.0,0.0,0.0,0.0,0.0,0.0,0.0,0.0,0.0,0.0,0.0,0.0,0.0,0.0,0.0,0.0,0.0,0.0,0.0,0.0,0.0,0.0,0.0,0.0,0.0,0.0,0.0,0.0,0.0,0.0,0.0,0.0,0.0,0.0,0.0,0.0,0.0,0.0,0.0,0.0,0.0,0.0,0.0,0.0,0.0,0.0,0.0,0.0,0.0,0.0,0.0,0.0,0.0,0.0,0.0,0.0,0.0,0.0,0.0,0.0,0.0,0.0,0.0,0.0,0.0,0.0,0.0,0.0,0.0,0.0,0.0,0.0,0.0,0.0,0.0,-3.8001,0.0,0.0,0.0,0.0,0.0,0.0,0.0,0.0,0.0,0.0,0.0,0.0,0.0,0.0,0.0,0.0,0.0,0.0,0.0,0.0,0.0,0.0,0.0,0.0,0.0,0.0,0.0,0.0,0.0,0.0,0.0,0.0,0.0,0.0,0.0,0.0,0.0,0.0,0.0,0.0,0.0,0.0,0.0,0.0,0.0,0.0,0.0,0.0,0.0,0.0,0.0,0.0,0.0,0.0,0.0,0.0,0.0,0.0,0.0,0.0,0.0,0.0,0.0,0.0,0.0,0.0,0.0,0.0,0.0,0.0,0.0,0.0,0.0,0.0,0.0,0.0,0.0,0.0,0.0,0.0,0.0,0.0,0.0,0.0,0.0,0.0,0.0,0.0,0.0,0.0,0.0,0.0,0.0,0.0,0.0,0.0,0.0,0.0,0.0,0.0,0.0,0.0,0.0,0.0,0.0,0.0,0.0,0.0,0.0,0.0,-3.8203,-3.8204,-3.841,-3.8392,-3.8188,0.0,0.0,0.0,0.0,0.0,0.0,0.0,0.0,0.0,0.0,0.0,0.0,0.0,0.0,0.0,0.0,0.0,0.0,0.0,0.0,0.0,0.0,0.0,0.0,0.0,0.0,0.0,0.0,0.0,0.0,0.0,0.0,0.0,0.0,0.0,0.0,0.0,0.0,0.0,0.0,0.0,0.0,0.0,0.0,0.0,0.0,0.0,0.0,0.0,0.0,0.0,0.0,0.0,0.0,0.0,0.0,0.0,0.0,0.0,0.0,0.0,0.0,0.0,0.0,0.0,0.0,0.0,0.0,0.0,0.0,0.0,0.0,0.0,0.0,0.0,0.0,0.0,0.0,0.0,0.0,0.0,0.0,0.0,0.0,0.0,0.0,0.0,0.0,0.0,0.0,0.0,0.0,0.0,0.0,0.0,0.0,0.0,0.0,0.0,0.0,0.0,0.0,0.0,0.0,0.0,0.0,0.0,0.0,0.0,0.0,0.0,0.0,-3.8763,-3.8861,-3.8737,0.0,0.0,0.0,0.0,0.0,0.0,0.0,0.0,0.0,0.0,0.0,0.0,0.0,0.0,0.0,0.0,0.0,0.0,0.0,0.0,0.0,0.0,0.0,0.0,0.0,0.0,0.0,0.0,0.0,0.0,0.0,0.0,0.0,0.0,0.0,0.0,0.0,0.0,0.0,0.0,0.0,0.0,0.0,0.0,0.0,0.0,0.0,0.0,0.0,0.0,0.0,0.0,0.0,0.0,0.0,0.0,0.0,0.0,0.0,0.0,0.0,0.0,0.0,0.0,0.0,0.0,0.0,0.0,0.0,0.0,0.0,0.0,0.0,0.0,0.0,0.0,0.0,0.0,0.0,0.0,0.0,0.0,0.0,0.0,0.0,0.0,0.0,0.0,0.0,0.0,0.0,0.0,0.0,0.0,0.0,0.0,0.0,0.0,0.0,0.0,0.0,0.0,0.0,0.0,0.0,0.0,0.0,0.0,0.0,0.0,-3.8785,-3.8839,-3.9332,0.0,-3.9892,0.0,0.0,0.0,0.0,0.0,0.0,0.0,0.0,0.0,0.0,0.0,0.0,0.0,0.0,0.0,0.0,0.0,0.0,0.0,0.0,0.0,0.0,0.0,0.0,0.0,0.0,0.0,0.0,0.0,0.0,0.0,0.0,0.0,0.0,0.0,0.0,0.0,0.0,0.0,0.0,0.0,0.0,0.0,0.0,0.0,0.0,0.0,0.0,0.0,0.0,0.0,0.0,0.0,0.0,0.0,0.0,0.0,0.0,0.0,0.0,0.0,0.0,0.0,0.0,0.0,0.0,0.0,0.0,0.0,0.0,0.0,0.0,0.0,0.0,0.0,0.0,0.0,0.0,0.0,0.0,0.0,0.0,0.0,0.0,0.0,0.0,0.0,0.0,0.0,0.0,0.0,0.0,0.0,0.0,0.0,0.0,0.0,0.0,0.0,0.0,0.0,0.0,0.0,0.0,0.0,0.0,0.0,0.0,0.0,0.0,-3.898,-3.9022,-3.9313,-3.9656,0.0,0.0,0.0,0.0,0.0,0.0,0.0,0.0,0.0,0.0,0.0,0.0,0.0,0.0,0.0,0.0,0.0,0.0,0.0,0.0,0.0,0.0,0.0,0.0,0.0,0.0,0.0,0.0,0.0,0.0,0.0,0.0,0.0,0.0,0.0,0.0,0.0,0.0,0.0,0.0,0.0,0.0,0.0,0.0,0.0,0.0,0.0,0.0,0.0,0.0,0.0,0.0,0.0,0.0,0.0,0.0,0.0,0.0,0.0,0.0,0.0,0.0,0.0,0.0,0.0,0.0,0.0,0.0,0.0,0.0,0.0,0.0,0.0,0.0,0.0,0.0,0.0,0.0,0.0,0.0,0.0,0.0,0.0,0.0,0.0,0.0,0.0,0.0,0.0,0.0,0.0,0.0,0.0,0.0,0.0,0.0,0.0,0.0,0.0,0.0,0.0,0.0,0.0,0.0,0.0,0.0,0.0,0.0,0.0,0.0,-3.9091,-3.935,-3.9439,-3.9525,-3.9736,-4.0117,0.0,0.0,0.0,0.0,0.0,0.0,0.0,0.0,0.0,0.0,0.0,0.0,0.0,0.0,0.0,0.0,0.0,0.0,0.0,0.0,0.0,0.0,0.0,0.0,0.0,0.0,0.0,0.0,0.0,0.0,0.0,0.0,0.0,0.0,0.0,0.0,0.0,0.0,0.0,0.0,0.0,0.0,0.0,0.0,0.0,0.0,0.0,0.0,0.0,0.0,0.0,0.0,0.0,0.0,0.0,0.0,0.0,0.0,0.0,0.0,0.0,0.0,0.0,0.0,0.0,0.0,0.0,0.0,0.0,0.0,0.0,0.0,0.0,0.0,0.0,0.0,0.0,0.0,0.0,0.0,0.0,0.0,0.0,0.0,0.0,0.0,0.0,0.0,0.0,0.0,0.0,0.0,0.0,0.0,0.0,0.0,0.0,0.0,0.0,0.0,0.0,0.0,0.0,0.0,0.0,0.0,0.0,0.0,-3.9082,-3.9587,-3.9986,-4.0206,-4.0253,-4.0244,0.0,0.0,0.0,0.0,0.0,0.0,0.0,0.0,0.0,0.0,0.0,0.0,0.0,0.0,0.0,0.0,0.0,0.0,0.0,0.0,0.0,0.0,0.0,0.0,0.0,0.0,0.0,0.0,0.0,0.0,0.0,0.0,0.0,0.0,0.0,0.0,0.0,0.0,0.0,0.0,0.0,0.0,0.0,0.0,0.0,0.0,0.0,0.0,0.0,0.0,0.0,0.0,0.0,0.0,0.0,0.0,0.0,0.0,0.0,0.0,0.0,0.0,0.0,0.0,0.0,0.0,0.0,0.0,0.0,0.0,0.0,0.0,0.0,0.0,0.0,0.0,0.0,0.0,0.0,0.0,0.0,0.0,0.0,0.0,0.0,0.0,0.0,0.0,0.0,0.0,0.0,0.0,0.0,0.0,0.0,0.0,0.0,0.0,0.0,0.0,0.0,0.0,0.0,0.0,0.0,0.0,0.0,0.0,0.0,-3.9363,-3.9717,-4.0027,-4.0291,-4.032,-4.0272,0.0,0.0,0.0,0.0,0.0,0.0,0.0,0.0,0.0,0.0,0.0,0.0,0.0,0.0,0.0,0.0,0.0,0.0,0.0,0.0,0.0,0.0,0.0,0.0,0.0,0.0,0.0,0.0,0.0,0.0,0.0,0.0,0.0,0.0,0.0,0.0,0.0,0.0,0.0,0.0,0.0,0.0,0.0,0.0,0.0,0.0,0.0,0.0,0.0,0.0,0.0,0.0,0.0,0.0,0.0,0.0,0.0,0.0,0.0,0.0,0.0,0.0,0.0,0.0,0.0,0.0,0.0,0.0,0.0,0.0,0.0,0.0,0.0,0.0,0.0,0.0,0.0,0.0,0.0,0.0,0.0,0.0,0.0,0.0,0.0,0.0,0.0,0.0,0.0,0.0,0.0,0.0,0.0,0.0,0.0,0.0,0.0,0.0,0.0,0.0,0.0,0.0,0.0,0.0,0.0,0.0,0.0,0.0,0.0,-3.9739,0.0,-4.0118,-4.0291,-4.032,-4.0272,0.0,0.0,0.0,0.0,0.0,0.0,0.0,0.0,0.0,0.0,0.0,0.0,0.0,0.0,0.0,0.0,0.0,0.0,0.0,0.0,0.0,0.0,0.0,0.0,0.0,0.0,0.0,0.0,0.0,0.0,0.0,0.0,0.0,0.0,0.0,0.0,0.0,0.0,0.0,0.0,0.0,0.0,0.0,0.0,0.0,0.0,0.0,0.0,0.0,0.0,0.0,0.0,0.0,0.0,0.0,0.0,0.0,0.0,0.0,0.0,0.0,0.0,0.0,0.0,0.0,0.0,0.0,0.0,0.0,0.0,0.0,0.0,0.0,0.0,0.0,0.0,0.0,0.0,0.0,0.0,0.0,0.0,0.0,0.0,0.0,0.0,0.0,0.0,0.0,0.0,0.0,0.0,0.0,0.0,0.0,0.0,0.0,0.0,0.0,0.0,0.0,0.0,0.0,0.0,0.0,0.0,0.0,0.0,-4.0017,-4.0282,-4.0291,-4.0291,-4.032,-4.032,-4.0263,0.0,0.0,0.0,0.0,0.0,0.0,0.0,0.0,0.0,0.0,0.0,0.0,0.0,0.0,0.0,0.0,0.0,0.0,0.0,0.0,0.0,0.0,0.0,0.0,0.0,0.0,0.0,0.0,0.0,0.0,0.0,0.0,0.0,0.0,0.0,0.0,0.0,0.0,0.0,0.0,0.0,0.0,0.0,0.0,0.0,0.0,0.0,0.0,0.0,0.0,0.0,0.0,0.0,0.0,0.0,0.0,0.0,0.0,0.0,0.0,0.0,0.0,0.0,0.0,0.0,0.0,0.0,0.0,0.0,0.0,0.0,0.0,0.0,0.0,0.0,0.0,0.0,0.0,0.0,0.0,0.0,0.0,0.0,0.0,0.0,0.0,0.0,0.0,0.0,0.0,0.0,0.0,0.0,0.0,0.0,0.0,0.0,0.0,0.0,0.0,0.0,0.0,0.0,0.0,0.0,0.0,0.0,0.0,0.0,-4.0301,-4.032,-4.032,-4.032,-4.032,-4.0282,0.0,0.0,0.0,0.0,0.0,0.0,0.0,0.0,0.0,0.0,0.0,0.0,0.0,0.0,0.0,0.0,0.0,0.0,0.0,0.0,0.0,0.0,0.0,0.0,0.0,0.0,0.0,0.0,0.0,0.0,0.0,0.0,0.0,0.0,0.0,0.0,0.0,0.0,0.0,0.0,0.0,0.0,0.0,0.0,0.0,0.0,0.0,0.0,0.0,0.0,0.0,0.0,0.0,0.0,0.0,0.0,0.0,0.0,0.0,0.0,0.0,0.0,0.0,0.0,0.0,0.0,0.0,0.0,0.0,0.0,0.0,0.0,0.0,0.0,0.0,0.0,0.0,0.0,0.0,0.0,0.0,0.0,0.0,0.0,0.0,0.0,0.0,0.0,0.0,0.0,0.0,0.0,0.0,0.0,0.0,0.0,0.0,0.0,0.0,0.0,0.0,0.0,0.0,0.0,0.0,0.0,0.0,0.0,0.0,-4.032,-4.032,-4.032,-4.032,-4.0291,-4.0263,-4.0253,0.0,0.0,0.0,0.0,0.0,0.0,0.0,0.0,0.0,0.0,0.0,0.0,0.0,0.0,0.0,0.0,0.0,0.0,0.0,0.0,0.0,0.0,0.0,0.0,0.0,0.0,0.0,0.0,0.0,0.0,0.0,0.0,0.0,0.0,0.0,0.0,0.0,0.0,0.0,0.0,0.0,0.0,0.0,0.0,0.0,0.0,0.0,0.0,0.0,0.0,0.0,0.0,0.0,0.0,0.0,0.0,0.0,0.0,0.0,0.0,0.0,0.0,0.0,0.0,0.0,0.0,0.0,0.0,0.0,0.0,0.0,0.0,0.0,0.0,0.0,0.0,0.0,0.0,0.0,0.0,0.0,0.0,0.0,0.0,0.0,0.0,0.0,0.0,0.0,0.0,0.0,0.0,0.0,0.0,0.0,0.0,0.0,0.0,0.0,0.0,0.0,0.0,0.0,0.0,0.0,0.0,0.0,0.0,-4.032,-4.0301,-4.0282,-4.031,-4.0244,-4.0206,0.0,0.0,0.0,0.0,0.0,0.0,0.0,0.0,0.0,0.0,0.0,0.0,0.0,0.0,0.0,0.0,0.0,0.0,0.0,0.0,0.0,0.0,0.0,0.0,0.0,0.0,0.0,0.0,0.0,0.0,0.0,0.0,0.0,0.0,0.0,0.0,0.0,0.0,0.0,0.0,0.0,0.0,0.0,0.0,0.0,0.0,0.0,0.0,0.0,0.0,0.0,0.0,0.0,0.0,0.0,0.0,0.0,0.0,0.0,0.0,0.0,0.0,0.0,0.0,0.0,0.0,0.0,0.0,0.0,0.0,0.0,0.0,0.0,0.0,0.0,0.0,0.0,0.0,0.0,0.0,0.0,0.0,0.0,0.0,0.0,0.0,0.0,0.0,0.0,0.0,0.0,0.0,0.0,0.0,0.0,0.0,0.0,0.0,0.0,0.0,0.0,0.0,0.0,0.0,0.0,0.0,0.0,0.0,0.0,-4.0282,-4.0253,-4.0272,-4.0381,-4.0319,-4.0263,0.0,0.0,0.0,0.0,0.0,0.0,0.0,0.0,0.0,0.0,0.0,0.0,0.0,0.0,0.0,0.0,0.0,0.0,0.0,0.0,0.0,0.0,0.0,0.0,0.0,0.0,0.0,0.0,0.0,0.0,0.0,0.0,0.0,0.0,0.0,0.0,0.0,0.0,0.0,0.0,0.0,0.0,0.0,0.0,0.0,0.0,0.0,0.0,0.0,0.0,0.0,0.0,0.0,0.0,0.0,0.0,0.0,0.0,0.0,0.0,0.0,0.0,0.0,0.0,0.0,0.0,0.0,0.0,0.0,0.0,0.0,0.0,0.0,0.0,0.0,0.0,0.0,0.0,0.0,0.0,0.0,0.0,0.0,0.0,0.0,0.0,0.0,0.0,0.0,0.0,0.0,0.0,0.0,0.0,0.0,0.0,0.0,0.0,0.0,0.0,0.0,0.0,0.0,0.0,0.0,0.0,0.0,0.0,-4.0186,-4.0253,-4.0215,-4.0262,-4.0402,-4.0317,-4.0234,0.0,0.0,0.0,0.0,0.0,0.0,0.0,0.0,0.0,0.0,0.0,0.0,0.0,0.0,0.0,0.0,0.0,0.0,0.0,0.0,0.0,0.0,0.0,0.0,0.0,0.0,0.0,0.0,0.0,0.0,0.0,0.0,0.0,0.0,0.0,0.0,0.0,0.0,0.0,0.0,0.0,0.0,0.0,0.0,0.0,0.0,0.0,0.0,0.0,0.0,0.0,0.0,0.0,0.0,0.0,0.0,0.0,0.0,0.0,0.0,0.0,0.0,0.0,0.0,0.0,0.0,0.0,0.0,0.0,0.0,0.0,0.0,0.0,0.0,0.0,0.0,0.0,0.0,0.0,0.0,0.0,0.0,0.0,0.0,0.0,0.0,0.0,0.0,0.0,0.0,0.0,0.0,0.0,0.0,0.0,0.0,0.0,0.0,0.0,0.0,0.0,0.0,0.0,0.0,0.0,0.0,0.0,0.0,-4.0127,-4.0186,-4.0186,-4.0225,-4.0356,-4.026,-4.0158,0.0,0.0,0.0,0.0,0.0,0.0,0.0,0.0,0.0,0.0,0.0,0.0,0.0,0.0,0.0,0.0,0.0,0.0,0.0,0.0,0.0,0.0,0.0,0.0,0.0,0.0,0.0,0.0,0.0,0.0,0.0,0.0,0.0,0.0,0.0,0.0,0.0,0.0,0.0,0.0,0.0,0.0,0.0,0.0,0.0,0.0,0.0,0.0,0.0,0.0,0.0,0.0,0.0,0.0,0.0,0.0,0.0,0.0,0.0,0.0,0.0,0.0,0.0,0.0,0.0,0.0,0.0,0.0,0.0,0.0,0.0,0.0,0.0,0.0,0.0,0.0,0.0,0.0,0.0,0.0,0.0,0.0,0.0,0.0,0.0,0.0,0.0,0.0,0.0,0.0,0.0,0.0,0.0,0.0,0.0,0.0,0.0,0.0,0.0,0.0,0.0,0.0,0.0,0.0,0.0,0.0,0.0,0.0,-4.0038,-4.0098,-4.0067,-4.0058,-4.008,-4.0158,-4.0225,0.0,0.0,0.0,0.0,0.0,0.0,0.0,0.0,0.0,0.0,0.0,0.0,0.0,0.0,0.0,0.0,0.0,0.0,0.0,0.0,0.0,0.0,0.0,0.0,0.0,0.0,0.0,0.0,0.0,0.0,0.0,0.0,0.0,0.0,0.0,0.0,0.0,0.0,0.0,0.0,0.0,0.0,0.0,0.0,0.0,0.0,0.0,0.0,-4.0103,0.0,0.0,0.0,0.0,0.0,0.0,0.0,0.0,0.0,0.0,0.0,0.0,0.0,0.0,0.0,0.0,0.0,0.0,0.0,0.0,0.0,0.0,0.0,0.0,0.0,0.0,0.0,0.0,0.0,0.0,0.0,0.0,0.0,0.0,0.0,0.0,0.0,0.0,0.0,0.0,0.0,0.0,0.0,0.0,0.0,0.0,0.0,0.0,0.0,0.0,0.0,0.0,0.0,0.0,0.0,0.0,0.0,0.0,0.0,-4.0015,-4.0106,-4.0036,-4.0038,-4.009,-4.0099,-4.0109,0.0,0.0,0.0,0.0,0.0,0.0,0.0,0.0,0.0,0.0,0.0,0.0,0.0,0.0,0.0,0.0,0.0,0.0,0.0,0.0,0.0,0.0,0.0,0.0,0.0,0.0,0.0,0.0,0.0,0.0,0.0,0.0,0.0,0.0,0.0,0.0,0.0,0.0,0.0,0.0,0.0,0.0,0.0,0.0,0.0,0.0,0.0,0.0,0.0,0.0,0.0,0.0,0.0,0.0,0.0,0.0,0.0,0.0,0.0,0.0,0.0,0.0,0.0,0.0,0.0,0.0,0.0,0.0,0.0,0.0,0.0,0.0,0.0,0.0,0.0,0.0,0.0,0.0,0.0,0.0,0.0,0.0,0.0,0.0,0.0,0.0,0.0,0.0,0.0,0.0,0.0,0.0,0.0,0.0,0.0,0.0,0.0,0.0,0.0,0.0,0.0,0.0,0.0,0.0,0.0,0.0,0.0,-3.9962,-3.9954,-4.0057,-4.0017,-4.0068,-4.0148,-4.0039,-3.9954,-3.99,0.0,0.0,0.0,0.0,0.0,0.0,0.0,0.0,0.0,0.0,0.0,0.0,0.0,0.0,0.0,0.0,0.0,0.0,0.0,0.0,0.0,0.0,0.0,0.0,0.0,0.0,0.0,0.0,0.0,0.0,0.0,0.0,0.0,0.0,0.0,0.0,0.0,0.0,-3.8463,-3.8925,0.0,0.0,0.0,0.0,0.0,0.0,0.0,0.0,-4.1088,0.0,0.0,0.0,0.0,0.0,0.0,0.0,0.0,0.0,0.0,0.0,0.0,0.0,0.0,0.0,0.0,0.0,0.0,0.0,0.0,0.0,0.0,0.0,0.0,0.0,0.0,0.0,0.0,0.0,0.0,0.0,0.0,0.0,0.0,0.0,0.0,0.0,0.0,0.0,0.0,0.0,0.0,0.0,0.0,0.0,0.0,0.0,0.0,0.0,0.0,0.0,0.0,0.0,0.0,0.0,0.0,-3.9922,-3.9954,-3.9984,-3.9933,-3.9975,-3.9986,-3.9946,-3.9933,-3.9911,-3.9881,0.0,0.0,0.0,0.0,0.0,0.0,0.0,0.0,0.0,0.0,0.0,0.0,0.0,0.0,0.0,0.0,0.0,0.0,0.0,0.0,0.0,0.0,0.0,0.0,0.0,0.0,0.0,0.0,0.0,0.0,0.0,0.0,0.0,0.0,0.0,0.0,0.0,0.0,0.0,-3.9245,-3.9315,0.0,0.0,0.0,0.0,0.0,0.0,0.0,0.0,-4.1059,0.0,0.0,0.0,0.0,0.0,0.0,0.0,0.0,0.0,0.0,0.0,0.0,0.0,0.0,0.0,0.0,0.0,0.0,0.0,0.0,0.0,0.0,0.0,0.0,0.0,0.0,0.0,0.0,0.0,0.0,0.0,0.0,0.0,0.0,0.0,0.0,0.0,0.0,0.0,0.0,0.0,0.0,0.0,0.0,0.0,0.0,0.0,0.0,0.0,0.0,0.0,0.0,0.0,0.0,0.0,-3.99,-3.9933,-3.9943,-3.9943,-3.9943,-3.9954,-3.9954,-3.9911,-3.99,0.0,0.0,0.0,0.0,0.0,0.0,0.0,0.0,0.0,0.0,0.0,0.0,0.0,0.0,0.0,0.0,0.0,0.0,0.0,0.0,0.0,0.0,0.0,0.0,0.0,0.0,0.0,0.0,0.0,0.0,0.0,0.0,0.0,0.0,0.0,0.0,0.0,0.0,0.0,0.0,-3.9315,-3.9315,-3.9315,0.0,0.0,0.0,0.0,0.0,0.0,-4.0635,-4.1059,0.0,0.0,0.0,0.0,0.0,0.0,0.0,0.0,0.0,0.0,0.0,0.0,0.0,0.0,0.0,0.0,0.0,0.0,0.0,0.0,0.0,0.0,0.0,0.0,0.0,0.0,0.0,0.0,0.0,0.0,0.0,0.0,0.0,0.0,0.0,0.0,0.0,0.0,0.0,0.0,0.0,0.0,0.0,0.0,0.0,0.0,0.0,0.0,0.0,0.0,0.0,0.0,0.0,0.0,0.0,-3.9889,-3.9911,-3.9951,-3.9975,-3.9962,-3.9951,-3.9975,-3.9922,-3.99,0.0,0.0,0.0,0.0,0.0,0.0,0.0,0.0,0.0,0.0,0.0,0.0,0.0,0.0,0.0,0.0,0.0,0.0,0.0,0.0,0.0,0.0,0.0,0.0,0.0,0.0,0.0,0.0,0.0,0.0,0.0,0.0,0.0,0.0,0.0,0.0,0.0,0.0,0.0,0.0,0.0,-3.9315,-3.9315,-3.9315,0.0,0.0,0.0,0.0,-4.0707,-4.0802,0.0,0.0,0.0,0.0,0.0,0.0,0.0,0.0,0.0,0.0,0.0,0.0,0.0,0.0,0.0,0.0,0.0,0.0,0.0,0.0,0.0,0.0,0.0,0.0,0.0,0.0,0.0,0.0,0.0,0.0,0.0,0.0,0.0,0.0,0.0,0.0,0.0,0.0,0.0,0.0,0.0,0.0,0.0,0.0,0.0,0.0,0.0,0.0,0.0,0.0,0.0,0.0,0.0,0.0,0.0,0.0,-3.99,-3.9946,-3.9946,-3.9911,-3.9954,-3.9984,-3.9911,-3.99,-3.99,0.0,0.0,0.0,0.0,0.0,0.0,0.0,0.0,0.0,0.0,0.0,0.0,0.0,0.0,0.0,0.0,0.0,0.0,0.0,0.0,0.0,0.0,0.0,0.0,0.0,0.0,0.0,0.0,0.0,0.0,0.0,0.0,0.0,0.0,0.0,0.0,0.0,0.0,0.0,0.0,0.0,-3.9315,-3.9315,-3.9315,-3.9315,0.0,0.0,-3.9713,-4.0659,-4.0802,0.0,0.0,0.0,0.0,0.0,0.0,0.0,0.0,0.0,0.0,0.0,0.0,0.0,0.0,0.0,0.0,0.0,0.0,0.0,0.0,0.0,0.0,0.0,0.0,0.0,0.0,0.0,0.0,0.0,0.0,0.0,0.0,0.0,0.0,0.0,0.0,0.0,0.0,0.0,0.0,0.0,0.0,0.0,0.0,0.0,0.0,0.0,0.0,0.0,0.0,0.0,0.0,0.0,0.0,0.0,-3.9464,-3.9658,-3.9781,-3.9826,-3.9773,-3.99,-3.99,-3.9792,-3.9792,-3.9908,0.0,0.0,0.0,0.0,0.0,0.0,0.0,0.0,0.0,0.0,0.0,0.0,0.0,0.0,0.0,0.0,0.0,0.0,0.0,0.0,0.0,0.0,0.0,0.0,0.0,0.0,0.0,0.0,0.0,0.0,0.0,0.0,0.0,0.0,0.0,0.0,0.0,0.0,0.0,0.0,0.0,0.0,-3.9315,-3.9647,0.0,0.0,0.0,-4.0662,-4.0395,0.0,0.0,0.0,0.0,0.0,0.0,0.0,0.0,0.0,0.0,0.0,0.0,0.0,0.0,0.0,0.0,0.0,0.0,0.0,0.0,0.0,0.0,0.0,0.0,0.0,0.0,0.0,0.0,0.0,0.0,0.0,0.0,0.0,0.0,0.0,0.0,0.0,0.0,0.0,0.0,0.0,0.0,0.0,0.0,0.0,0.0,0.0,0.0,0.0,0.0,0.0,0.0,0.0,0.0,0.0,0.0,0.0,-3.9421,-3.9568,-3.9616,-3.9587,-3.9689,-3.9647,-3.9477,-3.9477,0.0,0.0,0.0,0.0,0.0,0.0,0.0,0.0,0.0,0.0,0.0,0.0,0.0,0.0,0.0,0.0,0.0,0.0,0.0,0.0,0.0,0.0,0.0,0.0,0.0,0.0,0.0,-3.9627,0.0,0.0,0.0,0.0,0.0,0.0,0.0,0.0,0.0,0.0,0.0,0.0,0.0,0.0,-3.9365,-3.9547,-4.0061,-4.026,0.0,0.0,-4.1431,-4.0602,-4.1053,-4.149,0.0,0.0,0.0,0.0,0.0,0.0,0.0,0.0,0.0,0.0,0.0,0.0,0.0,0.0,0.0,0.0,0.0,0.0,0.0,0.0,0.0,0.0,0.0,0.0,0.0,0.0,0.0,0.0,0.0,0.0,0.0,0.0,0.0,0.0,0.0,0.0,0.0,0.0,0.0,0.0,0.0,0.0,0.0,0.0,0.0,0.0,0.0,0.0,0.0,0.0,0.0,0.0,0.0,0.0,0.0,-3.9232,-3.9408,-3.9427,-3.924,-3.9245,-3.9127,-3.8868,-3.8853,-3.9194,0.0,0.0,0.0,0.0,0.0,0.0,0.0,0.0,0.0,0.0,0.0,0.0,0.0,0.0,0.0,0.0,0.0,0.0,0.0,0.0,0.0,0.0,0.0,0.0,0.0,0.0,0.0,0.0,0.0,0.0,0.0,0.0,0.0,0.0,0.0,0.0,0.0,0.0,0.0,0.0,0.0,-3.9547,-4.0227,-4.0376,-4.0597,0.0,0.0,-4.1282,-4.1717,-4.1621,-4.1472,-4.1326,0.0,0.0,0.0,0.0,0.0,0.0,0.0,0.0,0.0,0.0,0.0,0.0,0.0,0.0,0.0,0.0,0.0,0.0,0.0,0.0,0.0,0.0,0.0,0.0,0.0,0.0,0.0,0.0,0.0,0.0,0.0,0.0,0.0,0.0,0.0,0.0,0.0,0.0,0.0,0.0,0.0,0.0,0.0,0.0,0.0,0.0,0.0,0.0,0.0,0.0,0.0,0.0,0.0,-3.9316,-3.9375,-3.9087,-3.8905,-3.8832,-3.8919,-3.8857,-3.8681,-3.8666,-3.8933,0.0,0.0,0.0,0.0,0.0,0.0,0.0,0.0,0.0,0.0,0.0,0.0,0.0,0.0,0.0,0.0,0.0,0.0,0.0,0.0,0.0,0.0,0.0,0.0,0.0,0.0,0.0,0.0,-3.8996,-3.8832,-3.886,0.0,0.0,0.0,0.0,0.0,0.0,0.0,0.0,0.0,0.0,-3.9786,-4.0038,-4.0828,0.0,0.0,-4.1738,-4.1959,-4.142,-4.1384,-4.1292,-4.0937,-4.0531,0.0,0.0,0.0,0.0,0.0,0.0,0.0,0.0,0.0,0.0,0.0,0.0,0.0,0.0,0.0,0.0,0.0,0.0,0.0,0.0,0.0,0.0,0.0,0.0,0.0,0.0,0.0,0.0,0.0,0.0,0.0,0.0,0.0,0.0,0.0,0.0,0.0,0.0,0.0,0.0,0.0,0.0,0.0,0.0,0.0,0.0,0.0,0.0,0.0,0.0,0.0,0.0,-3.9418,-3.9418,-3.8846,-3.8504,-3.8426,-3.8499,-3.8483,-3.8296,-3.8296,-3.8549,0.0,0.0,0.0,0.0,0.0,0.0,0.0,0.0,0.0,0.0,0.0,0.0,0.0,0.0,0.0,0.0,0.0,0.0,0.0,0.0,0.0,0.0,0.0,0.0,0.0,0.0,0.0,0.0,-3.8903,-3.8722,-3.8667,0.0,0.0,0.0,0.0,0.0,0.0,0.0,0.0,0.0,0.0,-4.0066,-4.0476,-4.1377,-4.1904,-4.1658,-4.2286,-4.2499,-4.1667,-4.1665,-4.1537,-4.0956,0.0,0.0,0.0,0.0,0.0,0.0,0.0,0.0,0.0,0.0,0.0,0.0,0.0,0.0,0.0,0.0,0.0,0.0,0.0,0.0,0.0,0.0,0.0,0.0,0.0,0.0,0.0,0.0,0.0,0.0,-3.7899,0.0,0.0,0.0,0.0,0.0,0.0,0.0,0.0,0.0,0.0,0.0,0.0,0.0,0.0,0.0,0.0,0.0,0.0,0.0,0.0,0.0,0.0,-3.9229,-3.9211,-3.8654,-3.8269,-3.8018,-3.8018,-3.7915,-3.7649,-3.7631,-3.8006,-3.879,0.0,0.0,0.0,0.0,0.0,0.0,0.0,0.0,0.0,0.0,0.0,0.0,0.0,0.0,0.0,0.0,0.0,0.0,0.0,0.0,0.0,0.0,0.0,0.0,0.0,0.0,-3.8805,-3.8683,-3.856,0.0,0.0,0.0,0.0,0.0,0.0,0.0,0.0,0.0,0.0,-3.9886,-4.041,-4.1737,-4.1953,-4.2247,-4.2916,-4.2899,-4.2779,-4.2734,-4.2578,-4.2247,0.0,0.0,0.0,0.0,0.0,0.0,0.0,0.0,0.0,0.0,0.0,0.0,0.0,0.0,0.0,0.0,0.0,0.0,0.0,0.0,0.0,0.0,0.0,0.0,0.0,0.0,0.0,-3.7967,-3.7881,0.0,0.0,0.0,0.0,0.0,0.0,0.0,0.0,0.0,0.0,0.0,-3.7577,-3.7317,0.0,0.0,0.0,0.0,0.0,0.0,0.0,0.0,0.0,0.0,0.0,0.0,-3.9539,-3.9601,-3.8474,-3.7828,-3.7739,-3.7721,-3.7685,-3.7595,-3.7595,-3.8201,-3.9504,0.0,0.0,0.0,0.0,0.0,0.0,0.0,0.0,0.0,0.0,0.0,0.0,0.0,0.0,0.0,0.0,0.0,0.0,0.0,0.0,0.0,0.0,0.0,0.0,0.0,-3.8516,0.0,0.0,0.0,0.0,0.0,0.0,0.0,0.0,0.0,0.0,0.0,-3.9373,-3.9601,-4.0447,-4.1195,-4.1683,-4.2124,-4.2467,0.0,0.0,0.0,0.0,0.0,0.0,0.0,0.0,0.0,0.0,0.0,0.0,0.0,0.0,-3.9812,-3.9214,-3.8732,-3.8391,-3.8391,0.0,0.0,0.0,0.0,0.0,0.0,0.0,0.0,0.0,0.0,0.0,0.0,0.0,0.0,-3.8294,0.0,-3.7829,0.0,0.0,0.0,0.0,0.0,0.0,0.0,0.0,-3.7667,-3.7807,-3.8153,-3.788,-3.7717,0.0,-3.7433,-3.7776,0.0,0.0,0.0,0.0,0.0,0.0,0.0,0.0,-3.9413,-3.9235,-3.803,-3.7392,-3.7392,-3.7392,-3.7392,-3.7392,-3.7392,-3.7938,-3.9078,-3.934,-4.0041,0.0,0.0,0.0,0.0,0.0,0.0,0.0,0.0,0.0,0.0,0.0,0.0,0.0,0.0,0.0,0.0,0.0,0.0,0.0,0.0,0.0,0.0,0.0,-3.8391,0.0,0.0,0.0,0.0,0.0,0.0,0.0,0.0,0.0,-3.8832,-3.9395,-3.9959,-4.0202,-4.1029,-4.1693,-4.1905,0.0,0.0,0.0,0.0,0.0,0.0,0.0,-4.194,-4.193,-4.136,-4.0855,-4.0877,-4.1083,-4.1241,-4.1241,0.0,0.0,-3.9991,-3.946,-3.912,-3.912,-3.8942,-3.8764,-3.878,-3.857,-3.8391,0.0,0.0,0.0,0.0,0.0,0.0,0.0,0.0,-3.9262,-3.8901,0.0,-3.8022,0.0,0.0,0.0,0.0,0.0,-3.746,0.0,0.0,-3.8227,-3.8512,-3.9161,-3.914,-3.8807,-3.8143,-3.8126,-3.8105,-3.8091,-3.8091,0.0,0.0,0.0,0.0,0.0,0.0,-3.888,-3.8128,-3.7393,-3.7007,-3.6989,-3.6989,-3.7007,-3.6989,-3.7007,-3.7181,-3.7623,-3.8287,-3.8858,-3.9299,-3.9904,0.0,0.0,0.0,0.0,0.0,0.0,0.0,0.0,0.0,0.0,0.0,0.0,0.0,0.0,0.0,0.0,0.0,0.0,0.0,0.0,-3.8476,0.0,0.0,0.0,0.0,0.0,0.0,0.0,0.0,0.0,0.0,-3.9583,-4.0143,-4.0802,-4.1482,0.0,0.0,0.0,0.0,-4.2602,-4.2602,-4.2602,-4.2602,-4.2602,-4.2602,-4.2586,-4.2586,0.0,0.0,-4.1644,-4.2164,-4.2554,-4.257,-4.2035,-4.1417,-4.0707,-4.0496,-4.0415,-4.0415,-3.993,-3.957,-3.9505,-3.9023,-3.857,-4.1281,0.0,0.0,0.0,0.0,-4.016,-4.0121,-4.0084,-3.9852,-3.9669,-3.9536,-3.8994,0.0,0.0,0.0,0.0,0.0,0.0,-3.8503,-3.896,-3.8769,-3.8852,-3.9193,-3.8912,-3.8721,-3.8663,-3.8534,-3.8187,-3.7667,-3.765,-3.8345,-3.9624,0.0,0.0,0.0,0.0,-3.8192,-3.8055,-3.7356,-3.6989,-3.6989,-3.6989,-3.6989,-3.6989,-3.6716,-3.6901,-3.7585,-3.7538,-3.8048,-3.9224,-3.9014,0.0,0.0,0.0,0.0,0.0,0.0,0.0,0.0,0.0,0.0,0.0,0.0,0.0,0.0,0.0,0.0,0.0,0.0,0.0,-3.8448,-3.842,-3.8391,0.0,0.0,0.0,0.0,0.0,0.0,0.0,0.0,0.0,-4.0997,-4.1166,-4.1369,0.0,0.0,-4.236,-4.257,-4.2602,-4.2602,-4.2602,-4.2602,0.0,-4.2602,-4.2602,-4.2602,-4.2602,-4.2424,-4.2326,-4.2295,-4.2473,-4.2602,-4.2602,-4.2441,-4.2245,-4.2019,-4.116,-4.0561,-4.048,-4.0335,-4.0205,-4.0189,-4.0011,-3.9865,-4.1698,-4.0762,-4.0992,-4.1053,-4.1036,-4.0996,-4.0858,-4.0644,-4.0359,-4.002,-3.9698,-3.9357,-3.9027,-3.869,-3.8384,0.0,0.0,0.0,-3.8545,-3.9047,-3.8814,-3.8946,-3.9336,-3.9312,-3.9175,-3.898,-3.9026,-3.8646,-3.7961,-3.7944,-3.8144,-3.8562,0.0,0.0,-3.8562,-3.7978,-3.7578,-3.7373,-3.6817,-3.653,-3.653,-3.6367,-3.6284,-3.6284,-3.6054,-3.6107,-3.644,-3.6485,-3.6838,-3.7666,-3.7833,-3.8111,0.0,0.0,0.0,0.0,0.0,0.0,0.0,0.0,0.0,0.0,0.0,-3.8391,-3.8391,0.0,0.0,0.0,-3.8391,-3.8391,-3.8391,-3.8391,0.0,0.0,0.0,0.0,0.0,0.0,0.0,-4.0305,-4.1079,-4.1713,-4.1961,-4.199,-4.1986,-4.1986,-4.2327,-4.2602,-4.2602,0.0,-4.2397,-4.2413,-4.2302,-4.2222,-4.2221,-4.219,-4.2206,-4.2206,-4.2206,-4.2206,-4.2206,-4.2206,-4.2206,-4.2206,-4.2206,-4.2206,-4.2222,-4.1484,-4.1047,-4.1261,-4.099,-4.0782,-4.0903,-4.0496,-4.0102,-4.174,-4.1604,-4.2139,-4.2325,-4.2246,-4.2207,-4.1899,-4.142,-4.0692,-4.0051,-3.9478,-3.9298,-3.8797,-3.8088,-3.8048,0.0,-3.8071,-3.7884,-3.8199,-3.8831,-3.8682,-3.8949,-3.9594,-4.0003,-3.9815,-3.9071,-3.944,-3.9233,-3.8505,-3.8459,-3.8081,-3.7428,-3.7291,-3.7283,-3.7366,-3.7366,-3.6982,-3.6195,-3.5876,-3.57,-3.5677,-3.5339,-3.5155,-3.5138,-3.5108,-3.4944,-3.4659,-3.5202,-3.5395,-3.5176,-3.6352,-3.7111,-3.7256,0.0,0.0,0.0,0.0,0.0,0.0,0.0,0.0,0.0,0.0,0.0,0.0,0.0,0.0,0.0,-3.8391,0.0,-3.8472,-3.8505,0.0,0.0,0.0,-3.9829,-4.0415,-4.0545,-4.0867,-4.1515,0.0,0.0,-4.2522,-4.2571,-4.2571,-4.2571,-4.2571,-4.2555,-4.2539,-4.2238,-4.2061,-4.2077,-4.1818,-4.1607,-4.1658,-4.1672,-4.1653,-4.1654,-4.1588,-4.1621,-4.1621,-4.1621,-4.1621,-4.1621,-4.1588,-4.1621,-4.1588,-4.1591,-4.1769,-4.2301,-4.1756,-4.1213,-4.1445,-4.0575,-3.9752,-4.1475,-4.1151,-4.1288,-4.1525,-4.174,-4.144,-4.1243,-4.1071,-4.0543,-4.0244,-4.0058,-3.9661,-3.916,-3.8596,-3.8506,-3.8639,-3.8911,-3.8771,-3.8949,-3.9394,-3.9368,-3.9313,-3.9295,-3.9391,-3.9222,-3.8838,-3.8901,-3.8539,-3.7757,-3.7261,-3.6871,-3.6622,-3.5651,-3.5471,-3.6188,-3.621,-3.5869,-3.5157,-3.5065,-3.4925,-3.4736,-3.464,-3.4576,-3.4592,-3.4292,-3.4086,-3.4027,-3.3899,-3.4085,-3.4489,-3.4822,-3.5506,-3.6556,-3.7022,0.0,0.0,0.0,0.0,0.0,0.0,0.0,0.0,0.0,-3.8391,-3.8391,0.0,-3.8391,0.0,-3.8391,-3.8618,-3.9197,-3.9217,0.0,0.0,-4.0254,-4.0348,-4.0464,-4.0996,-4.1417,-4.1579,-4.2035,-4.2408,-4.2586,-4.2365,-4.2206,-4.2206,-4.2206,-4.2142,-4.1883,-4.1785,-4.172,-4.172,-4.1606,-4.1587,-4.1584,-4.1598,-4.1582,-4.1604,-4.1588,-4.1588,-4.1588,-4.1588,-4.1588,-4.1588,-4.1588,-4.1588,-4.1557,-4.1588,-4.1606,-4.1785,-4.161,-4.1515,-4.1564,-4.0911,-4.0325,-4.0,-3.9985,-3.9985,-4.0127,-4.0324,-4.0583,-4.0559,-4.0358,-4.0111,-3.9817,-3.9508,-3.9199,-3.9071,-3.9044,-3.8683,-3.8628,-3.8832,-3.875,-3.8788,-3.8849,-3.8821,-3.8701,-3.8423,-3.8618,-3.8438,-3.7942,-3.8145,-3.7875,-3.7144,-3.676,-3.6373,-3.5995,-3.5275,-3.4905,-3.4911,-3.5098,-3.4988,-3.464,-3.4447,-3.4219,-3.391,-3.391,-3.391,-3.391,-3.3697,-3.3585,-3.3585,-3.3382,-3.3482,-3.3846,-3.4446,-3.4968,-3.547,-3.653,-3.707,0.0,0.0,0.0,0.0,0.0,0.0,0.0,0.0,0.0,0.0,0.0,-3.8305,-3.8644,-3.8791,-3.9169,-3.9894,-3.9946,-4.0146,-4.0706,-4.077,-4.0883,-4.1189,-4.1451,-4.166,-4.1817,-4.1997,-4.2142,-4.2142,-4.1996,-4.1818,-4.1703,-4.1654,-4.1654,-4.1588,-4.1489,-4.1406,-4.1357,-4.1223,-4.112,-4.1112,-4.1127,-4.1115,-4.112,-4.1122,-4.1028,-4.0732,-4.0669,-4.0575,-4.0278,-4.0216,-4.0216,-4.0216,-4.0216,-4.02,-4.0216,-4.0216,-4.0457,-4.1019,-4.0351,-3.9672,-3.8028,-3.8341,-3.8374,-3.8379,-3.8504,-3.9411,-3.9665,-3.9411,-3.9385,-3.9044,-3.8448,-3.8335,-3.8595,-3.9119,-3.8556,-3.8278,-3.8278,-3.8278,-3.8119,-3.7857,-3.7761,-3.751,-3.7216,-3.753,-3.7319,-3.671,-3.7102,-3.7008,-3.6414,-3.6316,-3.598,-3.5391,-3.5179,-3.4651,-3.38,-3.4011,-3.4161,-3.4186,-3.3818,-3.3465,-3.3187,-3.3187,-3.3187,-3.3187,-3.3187,-3.3187,-3.3187,-3.3187,-3.3203,-3.3234,-3.4431,-3.486,-3.4301,-3.6059,-3.6847,0.0,-3.6366,0.0,0.0,0.0,0.0,0.0,0.0,0.0,0.0,-3.7716,-3.8227,-3.8866,-3.9277,-3.9763,-4.0441,-4.0506,-4.0675,-4.1118,-4.1166,-4.1406,-4.1933,-4.1785,-4.172,-4.2013,-4.1785,-4.1588,-4.1621,-4.154,-4.1423,-4.1189,-4.1104,-4.1138,-4.1357,-4.1189,-4.1037,-4.1021,-4.065,-4.0385,-4.0374,-4.0274,-4.0197,-4.0128,-4.0052,-3.991,-3.9259,-3.9168,-3.8999,-3.8478,-3.8369,-3.8356,-3.8295,-3.8325,-3.8325,-3.8353,-3.8277,-3.8664,-3.9797,-3.9305,-3.8427,-3.6771,-3.6502,-3.6519,-3.664,-3.6864,-3.7058,-3.7621,-3.8367,-3.8254,-3.7985,-3.7623,-3.7594,-3.7637,-3.7767,-3.7637,-3.7594,-3.7594,-3.7594,-3.7565,-3.749,-3.6949,-3.6492,-3.6168,-3.5707,-3.5308,-3.498,-3.5052,-3.5047,-3.4906,-3.4313,-3.4266,-3.4644,-3.3552,-3.3139,-3.3432,0.0,0.0,0.0,-3.2861,-3.2629,-3.2563,-3.2563,-3.2563,-3.2563,-3.2563,0.0,-3.2563,-3.2563,-3.2563,-3.2594,-3.3336,0.0,0.0,0.0,0.0,0.0,0.0,0.0,0.0,0.0,0.0,0.0,-3.6352,-3.6769,-3.7358,-3.7953,-3.8378,-3.8505,-3.912,-3.9786,-4.042,-4.0499,-4.0785,-4.1402,-4.1481,-4.156,-4.1671,-4.1621,-4.1621,-4.1687,-4.1621,-4.1588,-4.1491,-4.1357,-4.114,-4.0943,-4.0817,-4.0662,-4.0665,-4.06,-4.0612,-4.0578,-4.0014,-3.9681,-3.9705,-3.9217,-3.8769,-3.8371,-3.8209,-3.8043,-3.7564,-3.7451,-3.7416,-3.7193,-3.7203,-3.7207,-3.7193,-3.7203,-3.7182,-3.7222,-3.6771,-3.691,-3.8523,-3.8251,-3.7678,-3.5161,0.0,-3.5259,-3.5338,0.0,-3.5598,-3.5915,-3.6379,-3.7263,-3.7549,-3.7401,-3.7401,-3.7401,-3.7401,-3.7401,-3.7401,-3.7385,-3.7054,-3.6823,-3.6644,-3.5954,-3.5511,-3.5189,-3.4878,-3.445,-3.3981,-3.3937,-3.3767,-3.3473,-3.309,-3.309,-3.3457,-3.2736,-3.2567,-3.289,-3.2527,-3.2413,-3.2648,-3.248,-3.2398,-3.2398,-3.2398,-3.2398,-3.2398,-3.2398,0.0,0.0,0.0,0.0,0.0,0.0,0.0,0.0,0.0,0.0,-3.4451,-3.4633,-3.4795,-3.489,-3.4643,-3.471,-3.5252,-3.5464,-3.5913,-3.6738,-3.7156,-3.7506,-3.7908,-3.867,-3.9532,-4.0483,-4.061,-4.0784,-4.126,-4.1357,-4.1357,-4.1323,-4.1156,-4.1122,-4.1305,-4.1189,-4.0863,-4.0254,-4.0019,-3.9661,-3.9165,-3.912,-3.9116,-3.9165,-3.963,-3.9837,-3.9245,-3.8864,-3.851,-3.8254,-3.7959,-3.7631,-3.737,-3.7306,-3.7069,-3.6517,-3.6389,-3.633,-3.602,-3.5931,-3.5931,-3.5897,-3.5897,-3.5917,-3.5902,-3.5632,-3.5618,-3.6556,-3.6459,-3.6217,-3.3497,-3.4048,-3.4063,-3.4125,-3.4261,-3.4479,-3.4527,-3.4523,0.0,0.0,0.0,-3.6877,-3.6877,-3.6877,-3.6877,-3.6906,-3.6859,-3.6324,-3.5911,-3.5616,-3.4947,-3.4521,-3.4305,-3.4197,-3.3812,-3.3244,-3.3185,-3.2924,-3.2385,-3.2342,-3.2342,-3.2315,-3.2315,-3.2272,-3.216,-3.1951,-3.1851,-3.1977,-3.2188,-3.2315,-3.2315,-3.2315,-3.2315,-3.2315,-3.2216,-3.216,-3.216,-3.1757,-3.1766,-3.2273,-3.2756,-3.2996,-3.2879,-3.3981,-3.4376,-3.3762,-3.3715,-3.3953,-3.4476,-3.4104,-3.4138,-3.471,-3.4743,-3.5121,-3.5988,-3.616,-3.6462,-3.7037,-3.7921,-3.8888,-3.9917,-4.0013,-4.0112,-4.0344,-4.0328,-4.0328,-4.0328,-4.0086,-3.9906,-4.0226,-3.9975,-3.9493,-3.8551,-3.8406,-3.8053,-3.7248,-3.746,-3.75,-3.7553,-3.8424,-3.8784,-3.7903,-3.753,-3.7233,-3.6842,-3.6596,-3.6521,-3.631,-3.6325,-3.6173,-3.5644,-3.5449,-3.5229,-3.4728,-3.4639,-3.4635,-3.4606,-3.4645,-3.4624,-3.461,-3.4624,-3.4624,-3.4624,-3.4624,-3.4721,-3.2251,-3.2355,-3.2355,-3.269,-3.3223,-3.3236,-3.3572,-3.412,-3.466,-3.4914,-3.4929,-3.4885,-3.49,-3.4885,-3.49,-3.49,-3.4914,-3.4821,-3.4716,-3.4656,-3.3962,-3.3609,-3.3521,-3.2952,-3.2644,-3.2552,-3.2412,-3.2311,-3.2219,-3.2094,-3.2053,-3.2038,-3.2053,-3.1752,-3.1189,-3.0615,-3.0345,-3.0375,-3.148,-3.2038,-3.2053,-3.2038,-3.2038,-3.2038,-3.1493,-3.1174,-3.1174,-3.1019,-3.0953,-3.1082,-3.2474,-3.3027,-3.2606,-3.328,-3.3443,-3.2884,-3.2577,-3.2561,-3.2974,-3.2938,-3.3276,-3.4104,-3.4206,-3.4582,-3.5424,-3.5804,-3.5917,-3.5912,-3.663,-3.7213,-3.7421,-3.7501,-3.758,-3.7585,-3.7555,-3.7506,-3.7635,-3.758,-3.7595,-3.7699,-3.7456,-3.7466,-3.7243,-3.7149,-3.7084,-3.6911,-3.6684,-3.6744,-3.6442,-3.7158,-3.762,-3.7104,-3.6516,-3.6148,-3.5903,-3.5521,-3.5107,-3.4564,-3.4602,-3.4473,-3.3992,-3.3894,-3.3837,-3.3605,-3.3646,-3.3612,-3.3597,-3.3542,-3.3612,-3.3646,-3.3632,-3.3612,-3.3646,-3.3646,-3.3874,-3.2012,-3.2012,-3.2012,-3.2163,-3.2452,-3.206,-3.2093,-3.2362,-3.251,-3.3287,-3.4282,-3.4342,-3.4342,-3.4342,-3.4253,-3.4239,-3.4208,-3.3842,-3.3689,-3.3643,-3.297,-3.2621,-3.2619,-3.2344,-3.2007,-3.165,-3.158,-3.1363,-3.1014,-3.0925,-3.0911,-3.0911,-3.0911,-3.0748,-3.0435,-3.0072,-2.9875,-2.9905,-3.0569,-3.0911,-3.0911,-3.0911,-3.0911,-3.0911,-3.0599,-3.0594,-3.0883,-3.0597,-3.0712,-3.1354,-3.1876,-3.2228,-3.2283,-3.2573,-3.2618,-3.2381,-3.22,-3.22,-3.2345,-3.2381,-3.2654,-3.3276,-3.336,-3.3597,-3.4214,-3.4698,-3.4809,-3.4447,-3.5339,-3.6079,-3.6385,-3.642,-3.6526,-3.6891,-3.6911,-3.6911,-3.6911,-3.6911,-3.6911,-3.6911,-3.6911,-3.6639,-3.6009,-3.5895,-3.561,-3.5169,-3.5157,-3.5234,-3.4971,-3.538,-3.5673,-3.5404,-3.5116,-3.4828,-3.456,-3.4264,-3.3939,-3.3667,-3.3667,-3.3577,-3.3312,-3.3276,-3.3276,-3.3276,-3.3276,-3.3276,-3.3276,-3.3276,-3.3276,-3.3276,-3.3276,-3.3276,-3.3276,-3.3276,-3.3472,-3.1596,-3.1855,-3.171,-3.1653,-3.1596,-3.0955,-3.0674,-3.0674,-3.0718,-3.1664,-3.3126,-3.3529,-3.3707,-3.3691,-3.3589,-3.353,-3.3469,-3.2998,-3.2771,-3.271,-3.2066,-3.1768,-3.1754,-3.1625,-3.1277,-3.0793,-3.0763,-3.0465,-3.0011,-2.9905,-2.9875,-2.9858,-2.9735,-2.9673,-2.9642,-2.9425,-2.9254,-2.93,-2.9393,-2.958,-2.9889,-2.9889,-2.9889,-2.9889,-2.9735,-2.991,-3.0411,-3.0122,-3.0397,-3.1404,-3.1355,-3.151,-3.1942,-3.1982,-3.1982,-3.1982,-3.1909,-3.1873,-3.1982,-3.2055,-3.2237,-3.2525,-3.2561,-3.2717,-3.3085,-3.3511,-3.3642,-3.3481,-3.4209,-3.4929,-3.5246,-3.5368,-3.5574,-3.6032,-3.6117,-3.5974,-3.6052,-3.6102,-3.6102,-3.6082,-3.6067,-3.5674,-3.4963,-3.4694,-3.4396,-3.3691,-3.3667,-3.3879,-3.3914,-3.3914,-3.3914,-3.3928,-3.3928,-3.3848,-3.3347,-3.3326,-3.3347,-3.3276,-3.3312,-3.3312,-3.3276,-3.3276,-3.3276,-3.3276,-3.3276,-3.3276,-3.3276,-3.3276,-3.3276,-3.3276,-3.3276,-3.3276,-3.3276,-3.3276,-3.3276,-3.0253,-3.1219,-3.0837,-3.0644,-3.0584,-2.9919,-2.9628,-2.9659,-2.9813,-2.9979,-3.0424,-3.1616,-3.2181,-3.2207,-3.2181,-3.2154,-3.2182,-3.2118,-3.2074,-3.1974,-3.1394,-3.1102,-3.1014,-3.048,-3.0163,-3.0072,-2.9966,-2.9858,-2.969,-2.9566,-2.9504,-2.9473,-2.8935,-2.8675,-2.8597,-2.8026,-2.7756,-2.7723,-2.7723,-2.8338,-2.9487,-2.9549,-2.9535,-2.9535,-2.8967,-2.8915,-2.9533,-2.9424,-2.9649,-3.028,-3.111,-3.1563,-3.1616,-3.1666,-3.1629,-3.1629,-3.131,-3.1235,-3.1629,-3.1909,-3.2092,-3.2164,-3.2164,-3.2291,-3.2518,-3.2432,-3.2621,-3.3113,-3.3395,-3.3543,-3.3565,-3.3607,-3.3734,-3.3882,-3.3853,-3.3621,-3.3762,-3.3621,-3.3607,-3.3621,-3.3868,-3.3593,-3.3635,-3.3572,-3.348,-3.3304,-3.3312,-3.3403,-3.3472,-3.3437,-3.3437,-3.3417,-3.3382,-3.3382,-3.3276,-3.329,-3.3206,-3.3206,-3.3276,-3.3241,-3.3241,-3.3241,-3.3276,-3.3276,-3.3276,-3.3276,-3.3276,-3.3276,-3.3276,-3.3276,-3.3276,-3.3276,-3.3276,-3.3276,-3.3276,-2.9425,-2.9905,-2.969,-2.9611,-2.9504,-2.8907,-2.862,-2.862,-2.8716,-2.878,-2.903,-2.9964,-3.0524,-3.0689,-3.0599,-3.0539,-3.0525,-3.0525,-3.0525,-3.0495,-3.024,-3.0119,-3.0088,-2.9844,-2.9518,-2.9156,-2.9062,-2.8807,-2.85,-2.8357,-2.8306,-2.8293,-2.8039,-2.7908,-2.7875,-2.7623,-2.7503,-2.7503,-2.7503,-2.7789,-2.8241,-2.8338,-2.8306,-2.8306,-2.8059,-2.8186,-2.8756,-2.9123,-2.9549,-3.0074,-3.0821,-3.1235,-3.1235,-3.1235,-3.1235,-3.1235,-3.1099,-3.1061,-3.1235,-3.1384,-3.1556,-3.1813,-3.1813,-3.1886,-3.2055,-3.2092,-3.2223,-3.2362,-3.2497,-3.2574,-3.2624,-3.2789,-3.2966,-3.2931,-3.2931,-3.2931,-3.2966,-3.2731,-3.2646,-3.2895,-3.2945,-3.3051,-3.3206,-3.3086,-3.2966,-3.2931,-3.2931,-3.3002,-3.3241,-3.3276,-3.3206,-3.3002,-3.2931,-3.2931,-3.2931,-3.2717,-3.2646,-3.2646,-3.2789,-3.2931,-3.2966,-3.3157,-3.3276,-3.3276,-3.3276,-3.3276,-3.3276,-3.3276,-3.3276,-3.3276,-3.3276,-3.3276,-3.3276,-3.3276,-3.3276,-2.8375,-2.8687,-2.8698,-2.8716,-2.8666,-2.7999,-2.7716,-2.7749,-2.7716,-2.7782,-2.8006,-2.8481,-2.8821,-2.9048,-2.93,-2.9442,-2.9456,-2.938,-2.9362,-2.9334,-2.9192,-2.9083,-2.9066,-2.8953,-2.8615,-2.8189,-2.8203,-2.7973,-2.7536,-2.7469,-2.7456,-2.7423,-2.7403,-2.7369,-2.7335,-2.7369,-2.7369,-2.7369,-2.7369,-2.7403,-2.7436,-2.7423,-2.7456,-2.7503,-2.7503,-2.7798,-2.836,-2.8804,-2.9379,-3.0061,-3.0529,-3.083,-3.0973,-3.1024,-3.1024,-3.1024,-3.1024,-3.1024,-3.1024,-3.1024,-3.1136,-3.1384,-3.1458,-3.1455,-3.1599,-3.17,-3.1736,-3.1623,-3.17,-3.185,-3.2128,-3.2381,-3.2525,-3.2525,-3.2525,-3.2561,-3.2525,-3.2273,-3.2237,-3.2475,-3.2525,-3.2646,-3.2838,-3.2717,-3.2525,-3.2525,-3.2561,-3.2596,-3.2874,-3.2909,-3.2838,-3.2561,-3.2453,-3.2417,-3.2489,-3.2381,-3.2128,-3.2164,-3.2381,-3.2525,-3.2561,-3.286,-3.3122,-3.3051,-3.3171,-3.3276,-3.3276,-3.3276,-3.3276,-3.3276,-3.3276,-3.3241,-3.3276,-3.3276,-3.3276,-2.679,-2.7871,-2.8005,-2.8019,-2.7986,-2.7343,-2.7058,-2.7066,-2.7045,-2.7045,-2.7113,-2.7146,-2.7134,-2.7335,-2.8597,-2.9265,-2.9233,-2.9016,-2.8939,-2.8876,-2.8363,-2.8084,-2.8032,-2.7597,-2.7289,-2.7235,-2.7469,-2.7523,-2.7469,-2.7369,-2.7302,-2.7315,-2.7146,-2.7045,-2.7058,-2.7058,-2.7024,-2.7058,-2.7045,-2.7113,-2.7281,-2.7302,-2.7369,-2.7469,-2.7503,-2.7785,-2.8281,-2.8399,-2.8935,-3.0035,-3.0127,-3.0388,-3.0908,-3.0973,-3.0986,-3.0986,-3.1024,-3.1024,-3.1024,-3.1024,-3.1011,-3.1061,-3.1061,-3.1048,-3.111,-3.1161,-3.1161,-3.1048,-3.1123,-3.1384,-3.1909,-3.2055,-3.2128,-3.2128,-3.2128,-3.2128,-3.2128,-3.2055,-3.2092,-3.2128,-3.2164,-3.22,-3.2214,-3.2128,-3.2128,-3.2128,-3.2128,-3.2164,-3.2237,-3.225,-3.2214,-3.2141,-3.1946,-3.1776,-3.2019,-3.1982,-3.1982,-3.1982,-3.1946,-3.2128,-3.2273,-3.2417,-3.2596,-3.2775,-3.2945,-3.31,-3.3241,-3.3276,-3.3241,-3.3206,-3.3136,-3.3136,-3.298,-3.3206,-3.3206,-2.6212,-2.6998,-2.7051,-2.7027,-2.7007,-2.676,-2.6671,-2.6658,-2.6671,-2.6739,-2.6794,-2.6794,-2.6875,-2.7011,-2.7443,-2.7696,-2.7809,-2.7729,-2.7729,-2.7696,-2.7477,-2.739,-2.7356,-2.718,-2.7092,-2.7024,-2.7146,-2.7167,-2.718,-2.7146,-2.7113,-2.7113,-2.7058,-2.7024,-2.7024,-2.7024,-2.7024,-2.7024,-2.7024,-2.7058,-2.7079,-2.7113,-2.7146,-2.718,-2.7403,-2.7628,-2.779,-2.8087,-2.8456,-2.9,-2.9548,-3.0032,-3.024,-3.059,-3.0811,-3.0811,-3.0911,-3.1024,-3.1024,-3.1024,-3.1024,-3.1024,-3.1024,-3.1024,-3.1024,-3.1024,-3.1024,-3.0986,-3.0986,-3.1161,-3.1347,-3.1593,-3.1776,-3.1776,-3.1776,-3.1776,-3.174,-3.1593,-3.1482,-3.174,-3.1946,-3.2019,-3.1823,-3.1786,-3.1776,-3.1776,-3.1776,-3.185,-3.2055,-3.2092,-3.2019,-3.185,-3.1703,-3.1556,-3.1347,-3.1384,-3.1421,-3.1482,-3.1519,-3.1703,-3.185,-3.2092,-3.2309,-3.2345,-3.2538,-3.2717,-3.2789,-3.2895,-3.2909,-3.2909,-3.2838,-3.2731,-3.2503,-3.2682,-3.2789,-2.5507,-2.6005,-2.6252,-2.6292,-2.6292,-2.6327,-2.6374,-2.6396,-2.6396,-2.6499,-2.6624,-2.6624,-2.6705,-2.6807,-2.6692,-2.6692,-2.6807,-2.6841,-2.6854,-2.6841,-2.6841,-2.6841,-2.6841,-2.6875,-2.6875,-2.6841,-2.6875,-2.6943,-2.6977,-2.6943,-2.6909,-2.6909,-2.6888,-2.6807,-2.6841,-2.6841,-2.6841,-2.6807,-2.6602,-2.6474,-2.6521,-2.6289,-2.6173,-2.6277,-2.6471,-2.6858,-2.7302,-2.761,-2.7907,-2.8257,-2.886,-2.9321,-2.9694,-3.001,-3.0177,-3.0203,-3.0355,-3.0495,-3.0545,-3.0785,-3.1024,-3.1024,-3.1024,-3.1024,-3.0986,-3.0836,-3.071,-3.0672,-3.0672,-3.0672,-3.0785,-3.111,-3.1384,-3.1421,-3.1421,-3.1421,-3.1384,-3.1198,-3.1161,-3.1347,-3.1556,-3.1579,-3.1455,-3.1394,-3.1408,-3.1421,-3.1421,-3.1519,-3.1703,-3.174,-3.1703,-3.1445,-3.1384,-3.1259,-3.1161,-3.1161,-3.1123,-3.1198,-3.1235,-3.1384,-3.1519,-3.1776,-3.1909,-3.1946,-3.2055,-3.2237,-3.2381,-3.2489,-3.2525,-3.2489,-3.2417,-3.2359,-3.2237,-3.2164,-3.2237,-2.4665,-2.5219,-2.5677,-2.5945,-2.5945,-2.5918,-2.599,-2.6139,-2.6114,-2.6118,-2.6205,-2.6373,-2.6264,-2.6399,-2.6285,-2.6399,-2.637,-2.6345,-2.6454,-2.6521,-2.6521,-2.653,-2.648,-2.6557,-2.6519,-2.6391,-2.6582,-2.6684,-2.6688,-2.6531,-2.6501,-2.6539,-2.6358,-2.6233,-2.643,-2.6314,-2.6383,-2.6198,-2.5652,-2.5406,-2.5499,-2.4957,-2.4696,-2.4779,-2.485,-2.5498,-2.6794,-2.6867,-2.7121,-2.7646,-2.7777,-2.8372,-2.9111,-2.9135,-2.9057,-2.9108,-2.9252,-2.9369,-2.9485,-3.0254,-3.071,-3.071,-3.0861,-3.0785,-3.0659,-3.0305,-2.9999,-2.9999,-2.9999,-2.9999,-3.0114,-3.0583,-3.0973,-3.0986,-3.1011,-3.0936,-3.1024,-3.1024,-3.1024,-3.1061,-3.1123,-3.1024,-3.1024,-3.1061,-3.1061,-3.0973,-3.1024,-3.1011,-3.1048,-3.1086,-3.1061,-3.1061,-3.1099,-3.1086,-3.1061,-3.1024,-3.0973,-3.0973,-3.1024,-3.1136,-3.1198,-3.1384,-3.1519,-3.1593,-3.185,-3.2019,-3.2019,-3.2128,-3.2128,-3.2092,-3.2019,-3.1836,-3.1603,-3.1492,-3.164,-2.4607,-2.5136,-2.5689,-2.5923,-2.5861,-2.5517,-2.5391,-2.5388,-2.5077,-2.4937,-2.4958,-2.4992,-2.4992,-2.5037,-2.5137,-2.5195,-2.5215,-2.5294,-2.5724,-2.6361,-2.6461,-2.6214,-2.5912,-2.5917,-2.574,-2.5372,-2.5368,-2.519,-2.492,-2.5068,-2.5,-2.4621,-2.4779,-2.4838,-2.4874,-2.485,-2.485,-2.4814,-2.46,-2.4528,-2.4541,-2.4325,-2.4228,-2.4289,-2.4289,-2.4576,-2.4981,-2.5134,-2.5383,-2.5729,-2.5973,-2.6575,-2.739,-2.7555,-2.766,-2.798,-2.8164,-2.8283,-2.8362,-2.8861,-2.9264,-2.9303,-2.951,-2.9678,-2.9678,-2.9523,-2.9355,-2.9355,-2.9367,-2.9406,-2.9484,-2.996,-3.047,-3.0936,-3.0596,-3.0508,-3.0785,-3.0949,-3.1024,-3.1024,-3.1024,-3.1024,-3.0986,-3.0949,-3.071,-3.0432,-3.0634,-3.0785,-3.047,-3.0634,-3.0986,-3.1024,-3.1024,-3.0823,-3.071,-3.0583,-3.0508,-3.0621,-3.0748,-3.0823,-3.0898,-3.1099,-3.1198,-3.1235,-3.1519,-3.1579,-3.1653,-3.1653,-3.1616,-3.1556,-3.1445,-3.1134,-3.0784,-3.0696,-3.0809,-2.2968,-2.3323,-2.4045,-2.4329,-2.4306,-2.3962,-2.3878,-2.391,-2.3613,-2.3459,-2.3492,-2.3525,-2.3703,-2.3914,-2.4046,-2.4255,-2.4463,-2.4573,-2.5,-2.564,-2.5816,-2.5523,-2.5012,-2.4921,-2.4773,-2.45,-2.4418,-2.421,-2.3803,-2.3835,-2.3661,-2.3375,-2.3478,-2.364,-2.3628,-2.3628,-2.3697,-2.3798,-2.3593,-2.3503,-2.3576,-2.3401,-2.3243,-2.3243,-2.3243,-2.3254,-2.3254,-2.3353,-2.3756,-2.4406,-2.4922,-2.5501,-2.6055,-2.603,-2.6177,-2.6576,-2.6823,-2.6979,-2.7192,-2.7844,-2.8176,-2.8255,-2.8585,-2.8846,-2.8846,-2.8806,-2.8688,-2.8557,-2.8648,-2.87,-2.8636,-2.9238,-2.9832,-3.0228,-3.0152,-3.0075,-3.0305,-3.0305,-3.0266,-3.0203,-3.0215,-3.0292,-3.0305,-3.0254,-3.0165,-2.9832,-2.9986,-3.0228,-2.9871,-2.9999,-3.0228,-3.0317,-3.0152,-3.0075,-3.0203,-3.0152,-3.0037,-3.0228,-3.0432,-3.0508,-3.0583,-3.0898,-3.1099,-3.081,-3.091,-3.0633,-3.0633,-3.0835,-3.0835,-3.081,-3.0697,-3.0419,-3.0063,-2.9819,-2.9845,-2.0226,-2.0336,-2.1304,-2.1917,-2.1917,-2.1828,-2.1932,-2.1967,-2.1912,-2.1992,-2.2083,-2.2071,-2.241,-2.295,-2.2932,-2.323,-2.3924,-2.3827,-2.3782,-2.399,-2.4189,-2.4087,-2.3796,-2.358,-2.3418,-2.3463,-2.3475,-2.3466,-2.3119,-2.2816,-2.2649,-2.2423,-2.2446,-2.2628,-2.2537,-2.2616,-2.273,-2.286,-2.243,-2.2324,-2.2657,-2.2205,-2.1811,-2.1849,-2.1918,-2.1987,-2.2025,-2.209,-2.2606,-2.3813,-2.4334,-2.4581,-2.4778,-2.4553,-2.4614,-2.5084,-2.5271,-2.5617,-2.611,-2.6849,-2.7429,-2.7493,-2.7827,-2.8279,-2.8079,-2.7983,-2.7822,-2.7487,-2.7794,-2.7874,-2.773,-2.8319,-2.8924,-2.9121,-2.9523,-2.9639,-2.9172,-2.916,-2.9344,-2.9269,-2.9164,-2.9182,-2.9293,-2.9221,-2.916,-2.9133,-2.916,-2.925,-2.9133,-2.9211,-2.916,-2.9289,-2.9445,-2.9523,-2.9716,-2.9678,-2.9561,-2.9406,-2.9767,-2.9999,-3.0075,-3.0394,-3.0545,-3.0343,-3.0114,-2.9793,-2.9755,-2.9986,-2.9986,-2.9793,-2.9678,-2.9561,-2.9367,-2.9133,-2.8885,-2.0215,-2.0325,-2.1304,-2.17,-2.1645,-2.1303,-2.1138,-2.1117,-2.0764,-2.061,-2.0655,-2.0632,-2.0787,-2.0951,-2.1082,-2.1211,-2.1506,-2.1624,-2.1567,-2.1567,-2.1643,-2.2198,-2.2394,-2.1837,-2.1525,-2.1634,-2.168,-2.1329,-2.0929,-2.1219,-2.1002,-2.0384,-2.0893,-2.1005,-2.0882,-2.0899,-2.0864,-2.0841,-2.0694,-2.0612,-2.0788,-2.1092,-2.1135,-2.1165,-2.1546,-2.1738,-2.1769,-2.1807,-2.1911,-2.2317,-2.2525,-2.283,-2.3185,-2.3144,-2.329,-2.3773,-2.4143,-2.4375,-2.4659,-2.5395,-2.585,-2.5935,-2.6423,-2.6569,-2.658,-2.6816,-2.6693,-2.6487,-2.6693,-2.6775,-2.661,-2.7273,-2.7971,-2.8474,-2.8897,-2.9042,-2.8673,-2.8846,-2.9108,-2.9123,-2.9273,-2.9244,-2.9025,-2.8782,-2.8591,-2.8518,-2.8661,-2.8858,-2.8593,-2.87,-2.8767,-2.9003,-2.9172,-2.916,-2.916,-2.916,-2.9055,-2.8712,-2.8897,-2.9316,-2.9406,-2.9523,-2.9561,-2.9445,-2.9289,-2.9015,-2.916,-2.9355,-2.9121,-2.8897,-2.9055,-2.9094,-2.8724,-2.8407,-2.8127,-1.8732,-1.8816,-1.9763,-2.0152,-2.011,-1.9834,-1.9685,-1.9632,-1.9389,-1.922,-1.922,-1.922,-1.9386,-1.9639,-1.9726,-1.9944,-2.0204,-2.0344,-2.0431,-2.0355,-2.015,-2.0456,-2.0872,-2.0433,-2.0204,-2.029,-2.029,-2.0085,-1.9823,-1.9837,-1.9515,-1.926,-1.9416,-1.9549,-1.9518,-1.9499,-1.953,-1.9616,-1.9631,-1.9692,-1.9939,-2.0254,-2.0449,-2.0561,-2.1019,-2.1363,-2.1499,-2.1617,-2.1693,-2.1807,-2.1818,-2.1932,-2.2159,-2.2201,-2.2418,-2.2863,-2.3163,-2.3401,-2.3681,-2.4252,-2.4609,-2.4798,-2.5199,-2.5538,-2.5717,-2.5999,-2.6052,-2.5759,-2.601,-2.5968,-2.5874,-2.6517,-2.7121,-2.7458,-2.7955,-2.8155,-2.7817,-2.8035,-2.8275,-2.8379,-2.8467,-2.8582,-2.8327,-2.8112,-2.7924,-2.7862,-2.8007,-2.7966,-2.7886,-2.8195,-2.8383,-2.8462,-2.8435,-2.8315,-2.8275,-2.8275,-2.8355,-2.8047,-2.8127,-2.8542,-2.8779,-2.8858,-2.8897,-2.8858,-2.8542,-2.8395,-2.8581,-2.8661,-2.8435,-2.8395,-2.8593,-2.8514,-2.8099,-2.7909,-2.7586,-1.6634,-1.6702,-1.7589,-1.7949,-1.8047,-1.7974,-1.8125,-1.7993,-1.8086,-1.8066,-1.8066,-1.8008,-1.8428,-1.8877,-1.8944,-1.9243,-1.9802,-1.9704,-1.977,-1.9573,-1.9276,-1.9218,-1.9494,-1.9483,-1.9408,-1.9431,-1.9464,-1.9431,-1.9253,-1.8828,-1.8569,-1.8586,-1.8596,-1.8556,-1.8666,-1.8572,-1.8723,-1.8978,-1.9004,-1.9179,-1.9464,-1.966,-1.9833,-1.9903,-2.0313,-2.0757,-2.1078,-2.1286,-2.1469,-2.1731,-2.1769,-2.1818,-2.1838,-2.1818,-2.2004,-2.2366,-2.2563,-2.278,-2.3091,-2.3577,-2.394,-2.4117,-2.4682,-2.5084,-2.5179,-2.5506,-2.5633,-2.5158,-2.5549,-2.5591,-2.5454,-2.5946,-2.6362,-2.661,-2.6921,-2.7138,-2.7149,-2.7149,-2.719,-2.719,-2.7231,-2.719,-2.719,-2.719,-2.7231,-2.7482,-2.7586,-2.7545,-2.7464,-2.7615,-2.7655,-2.7574,-2.7464,-2.7342,-2.7342,-2.7342,-2.7423,-2.7383,-2.7464,-2.7765,-2.8235,-2.8355,-2.8474,-2.8355,-2.8007,-2.7898,-2.8007,-2.7938,-2.7817,-2.7777,-2.7926,-2.7736,-2.7476,-2.7464,-2.7313,-1.6287,-1.6364,-1.7245,-1.7608,-1.7608,-1.7608,-1.7608,-1.7598,-1.7608,-1.7701,-1.775,-1.7784,-1.7964,-1.8226,-1.8236,-1.8303,-1.8539,-1.8563,-1.8428,-1.8438,-1.8337,-1.8269,-1.8371,-1.8371,-1.8462,-1.8563,-1.8596,-1.8596,-1.8529,-1.8539,-1.8448,-1.8337,-1.8405,-1.8448,-1.8337,-1.8313,-1.8265,-1.8281,-1.8301,-1.837,-1.8587,-1.8959,-1.9223,-1.9283,-1.9751,-2.0256,-2.0629,-2.0767,-2.0977,-2.1296,-2.1596,-2.168,-2.1759,-2.1769,-2.1842,-2.2014,-2.2315,-2.2532,-2.2708,-2.307,-2.3484,-2.3805,-2.4033,-2.4294,-2.4647,-2.5041,-2.5105,-2.4818,-2.5041,-2.5274,-2.5136,-2.5306,-2.563,-2.5931,-2.6295,-2.6618,-2.6693,-2.6962,-2.719,-2.719,-2.719,-2.719,-2.719,-2.719,-2.719,-2.719,-2.719,-2.719,-2.719,-2.719,-2.719,-2.719,-2.719,-2.719,-2.719,-2.719,-2.719,-2.719,-2.719,-2.7231,-2.7696,-2.7817,-2.7886,-2.7736,-2.7435,-2.7476,-2.7626,-2.7505,-2.7423,-2.7342,-2.7353,-2.7313,-2.7272,-2.719,-2.719,-1.6192,-1.6287,-1.7144,-1.7495,-1.7495,-1.7495,-1.7495,-1.7495,-1.7495,-1.7539,-1.7588,-1.7579,-1.7666,-1.7735,-1.7769,-1.7769,-1.7769,-1.7828,-1.7862,-1.793,-1.793,-1.7794,-1.751,-1.7545,-1.7681,-1.8056,-1.8178,-1.8178,-1.8178,-1.8178,-1.8212,-1.8168,-1.8212,-1.8212,-1.8168,-1.81,-1.811,-1.8052,-1.8008,-1.8008,-1.81,-1.8316,-1.8661,-1.8789,-1.9126,-1.9515,-1.9932,-2.0082,-2.0312,-2.0677,-2.1045,-2.1384,-2.1624,-2.1655,-2.1693,-2.1821,-2.1994,-2.217,-2.2273,-2.2594,-2.2956,-2.3225,-2.3422,-2.365,-2.3919,-2.4326,-2.4472,-2.4355,-2.4576,-2.4808,-2.463,-2.4829,-2.4942,-2.4997,-2.5497,-2.5935,-2.6266,-2.6774,-2.719,-2.719,-2.719,-2.719,-2.719,-2.7149,-2.719,-2.719,-2.719,-2.719,-2.719,-2.719,-2.719,-2.719,-2.719,-2.719,-2.719,-2.719,-2.719,-2.719,-2.719,-2.719,-2.7383,-2.7342,-2.7272,-2.7231,-2.7231,-2.7231,-2.7313,-2.719,-2.719,-2.7231,-2.7231,-2.719,-2.719,-2.719,-2.719,-1.5729,-1.5794,-1.6606,-1.6921,-1.6921,-1.6825,-1.6763,-1.6825,-1.6921,-1.664,-1.6937,-1.6955,-1.6689,-1.6918,-1.6856,-1.6971,-1.6952,-1.6992,-1.6822,-1.6865,-1.6966,-1.6865,-1.6637,-1.6671,-1.696,-1.7654,-1.7522,-1.7491,-1.751,-1.7623,-1.7398,-1.7545,-1.7588,-1.7442,-1.7545,-1.7623,-1.7476,-1.7407,-1.7407,-1.7442,-1.7476,-1.7548,-1.7754,-1.8164,-1.8481,-1.8795,-1.92,-1.94,-1.9621,-2.0036,-2.018,-2.0532,-2.0984,-2.1415,-2.154,-2.1731,-2.1783,-2.1803,-2.1932,-2.218,-2.2428,-2.248,-2.2832,-2.3041,-2.3176,-2.334,-2.3421,-2.3564,-2.3677,-2.3895,-2.3732,-2.4001,-2.4037,-2.4019,-2.4535,-2.5092,-2.5605,-2.6346,-2.6684,-2.7056,-2.7097,-2.7149,-2.7108,-2.7056,-2.7149,-2.719,-2.719,-2.719,-2.719,-2.719,-2.719,-2.719,-2.719,-2.719,-2.719,-2.719,-2.719,-2.719,-2.719,-2.719,-2.719,-2.719,-2.719,-2.719,-2.719,-2.719,-2.719,-2.719,-2.719,-2.719,-2.719,-2.719,-2.719,-2.719,-2.719,-1.3612,-1.3645,-1.4131,-1.4347,-1.4355,-1.4347,-1.4488,-1.4347,-1.4539,-1.4438,-1.4655,-1.4638,-1.4855,-1.4913,-1.4845,-1.4845,-1.5081,-1.5199,-1.5122,-1.5122,-1.523,-1.5239,-1.5515,-1.5499,-1.5842,-1.6271,-1.6186,-1.5992,-1.6271,-1.6062,-1.6481,-1.6245,-1.6237,-1.6237,-1.6271,-1.6097,-1.6306,-1.6376,-1.6341,-1.6341,-1.6341,-1.635,-1.6577,-1.7202,-1.7656,-1.8126,-1.8492,-1.8689,-1.8981,-1.9336,-1.8907,-1.8948,-1.9535,-2.0495,-2.1135,-2.1262,-2.13,-2.129,-2.1599,-2.1803,-2.211,-2.2397,-2.2524,-2.2421,-2.2372,-2.2389,-2.2335,-2.2188,-2.2383,-2.259,-2.25,-2.2941,-2.3297,-2.3386,-2.3606,-2.4063,-2.4364,-2.4977,-2.5813,-2.6285,-2.671,-2.7051,-2.6942,-2.6924,-2.7067,-2.7149,-2.719,-2.719,-2.719,-2.719,-2.719,-2.719,-2.719,-2.719,-2.719,-2.719,-2.719,-2.719,-2.719,-2.719,-2.719,-2.719,-2.719,-2.719,-2.719,-2.719,-2.719,-2.719,-2.719,-2.719,-2.719,-2.719,-2.719,-2.719,-2.719,-1.3084,-1.3156,-1.3516,-1.3693,-1.3693,-1.3693,-1.3693,-1.3693,-1.3693,-1.376,-1.3818,-1.3851,-1.3884,-1.3983,-1.3983,-1.3991,-1.3975,-1.4115,-1.4139,-1.418,-1.4279,-1.418,-1.4271,-1.4205,-1.4057,-1.4007,-1.3892,-1.488,-1.6178,-1.6365,-1.6088,-1.6105,-1.5886,-1.5702,-1.5702,-1.5772,-1.5666,-1.5666,-1.5631,-1.5631,-1.5666,-1.5666,-1.5948,-1.6271,-1.6594,-1.6912,-1.7012,-1.7085,-1.7322,-1.7606,-1.7478,-1.7555,-1.8197,-1.903,-1.9927,-1.9974,-2.008,-2.0362,-2.0837,-2.1011,-2.1169,-2.1563,-2.1673,-2.142,-2.1202,-2.1167,-2.1277,-2.1377,-2.1435,-2.1605,-2.1442,-2.1707,-2.185,-2.2039,-2.2398,-2.2879,-2.3427,-2.4043,-2.4679,-2.533,-2.579,-2.6197,-2.6679,-2.673,-2.6958,-2.7067,-2.7138,-2.719,-2.719,-2.719,-2.719,-2.719,-2.719,-2.719,-2.719,-2.719,-2.719,-2.719,-2.719,-2.719,-2.719,-2.719,-2.719,-2.719,-2.719,-2.719,-2.719,-2.719,-2.719,-2.719,-2.719,-2.719,-2.719,-2.719,-2.719,-1.2599,-1.263,-1.295,-1.3067,-1.3067,-1.3092,-1.301,-1.3099,-1.3003,-1.2954,-1.3092,-1.3003,-1.2987,-1.3051,-1.3003,-1.3003,-1.3092,-1.3176,-1.3112,-1.3136,-1.3234,-1.3151,-1.3003,-1.2828,-1.2767,-1.2754,-1.2761,-1.3514,-1.4926,-1.5394,-1.5713,-1.54,-1.5161,-1.5201,-1.5119,-1.5002,-1.5251,-1.5251,-1.5251,-1.5251,-1.5251,-1.5384,-1.549,-1.5525,-1.5604,-1.5781,-1.5921,-1.5964,-1.6094,-1.6266,-1.6233,-1.6215,-1.6684,-1.7389,-1.7798,-1.7847,-1.8347,-1.9198,-1.9601,-1.9875,-2.006,-2.0528,-2.0566,-2.0245,-1.9968,-2.0021,-2.0164,-2.0553,-2.0746,-2.0624,-2.0351,-2.0406,-2.0582,-2.0771,-2.1086,-2.154,-2.2358,-2.2942,-2.3225,-2.3914,-2.4668,-2.5178,-2.5489,-2.6336,-2.6488,-2.6739,-2.6862,-2.719,-2.719,-2.719,-2.719,-2.719,-2.719,-2.719,-2.719,-2.719,-2.719,-2.719,-2.719,-2.719,-2.719,-2.719,-2.719,-2.7097,-2.719,-2.719,-2.719,-2.719,-2.719,-2.719,-2.719,-2.719,-2.719,-2.719,-2.719,-1.0894,-1.0894,-1.0967,-1.0973,-1.1058,-1.1103,-1.1026,-1.1065,-1.1149,-1.0942,-1.1241,-1.1065,-1.1149,-1.1163,-1.1156,-1.1065,-1.1103,-1.1305,-1.139,-1.1468,-1.1447,-1.1645,-1.1699,-1.1687,-1.198,-1.2071,-1.2685,-1.28,-1.3153,-1.3048,-1.3114,-1.3422,-1.3567,-1.3383,-1.3825,-1.3958,-1.3775,-1.3804,-1.384,-1.3848,-1.3956,-1.4466,-1.4673,-1.4887,-1.5207,-1.549,-1.5428,-1.5392,-1.5557,-1.5574,-1.5127,-1.5037,-1.5208,-1.475,-1.479,-1.5779,-1.7386,-1.9265,-1.8845,-1.8784,-1.897,-1.9374,-1.9541,-1.9362,-1.9139,-1.8749,-1.8632,-1.8368,-1.8972,-1.9339,-1.9405,-1.9671,-1.9912,-2.0029,-2.0156,-2.0527,-2.1171,-2.172,-2.1988,-2.2156,-2.2812,-2.3559,-2.4097,-2.5145,-2.6021,-2.63,-2.658,-2.678,-2.6992,-2.6835,-2.719,-2.719,-2.719,-2.719,-2.719,-2.719,-2.7138,-2.7149,-2.6974,-2.6974,-2.688,-2.6839,-2.7015,-2.7015,-2.7097,-2.719,-2.719,-2.719,-2.719,-2.719,-2.719,-2.719,-2.719,-2.719,-2.6974,-1.0586,-1.0586,-1.0586,-1.0586,-1.0586,-1.0586,-1.0586,-1.0586,-1.0586,-1.0586,-1.0586,-1.0586,-1.0586,-1.0593,-1.0586,-1.0624,-1.0586,-1.0586,-1.0586,-1.0586,-1.0618,-1.0751,-1.0947,-1.0996,-1.1202,-1.1457,-1.1638,-1.1493,-1.1481,-1.2176,-1.2803,-1.2687,-1.2497,-1.2464,-1.2784,-1.297,-1.3099,-1.3229,-1.3338,-1.3484,-1.3557,-1.3804,-1.3977,-1.3977,-1.433,-1.4482,-1.4517,-1.4446,-1.4446,-1.4418,-1.4057,-1.403,-1.433,-1.4454,-1.4713,-1.4371,-1.6118,-1.725,-1.7392,-1.7546,-1.7937,-1.835,-1.8559,-1.8656,-1.8393,-1.8201,-1.7991,-1.804,-1.8282,-1.8434,-1.8482,-1.8665,-1.9024,-1.9253,-1.9362,-1.9795,-2.0148,-2.0372,-2.0693,-2.0781,-2.0956,-2.1735,-2.2484,-2.3247,-2.4178,-2.4792,-2.4996,-2.5161,-2.559,-2.5854,-2.6438,-2.719,-2.719,-2.719,-2.719,-2.719,-2.7056,-2.6921,-2.631,-2.631,-2.631,-2.6351,-2.6404,-2.6663,-2.6839,-2.6974,-2.7097,-2.7097,-2.7015,-2.7097,-2.719,-2.688,-2.6539,-2.6404,-2.6268,-1.053,-1.0586,-1.0586,-1.0586,-1.0586,-1.0586,-1.0586,-1.0586,-1.0586,-1.0586,-1.0586,-1.0586,-1.0593,-1.0561,-1.0555,-1.0561,-1.053,-1.0586,-1.0586,-1.0586,-1.0586,-1.0586,-1.0681,-1.0618,-1.0618,-1.0586,-1.0828,-1.0767,-1.1099,-1.1686,-1.2274,-1.248,-1.1999,-1.1975,-1.2107,-1.2373,-1.2613,-1.2704,-1.3078,-1.3287,-1.336,-1.3455,-1.3513,-1.3521,-1.3492,-1.3492,-1.3492,-1.3564,-1.3564,-1.3564,-1.3601,-1.3616,-1.3748,-1.4176,-1.4326,-1.4141,-1.5085,-1.5535,-1.5873,-1.619,-1.6718,-1.7261,-1.7789,-1.8031,-1.7959,-1.7919,-1.7991,-1.7991,-1.8031,-1.8072,-1.8031,-1.808,-1.8313,-1.8634,-1.8754,-1.9134,-1.949,-1.9678,-1.9795,-1.9912,-2.0009,-1.9942,-2.0672,-2.1321,-2.2181,-2.3114,-2.3442,-2.3591,-2.4131,-2.471,-2.5483,-2.6281,-2.6281,-2.6356,-2.6652,-2.6693,-2.6734,-2.6487,-2.5883,-2.5579,-2.5495,-2.5505,-2.5505,-2.5852,-2.6279,-2.6528,-2.6528,-2.6704,-2.6828,-2.6569,-2.6321,-2.5977,-2.5715,-2.5537,-2.5453,-1.0428,-1.0586,-1.0586,-1.0593,-1.0586,-1.0586,-1.0586,-1.0561,-1.0586,-1.0586,-1.0555,-1.0555,-1.0434,-1.0371,-1.0364,-1.0364,-1.0339,-1.053,-1.053,-1.0555,-1.0586,-1.0586,-1.0586,-1.0586,-1.0586,-1.0586,-1.0586,-1.0586,-1.0631,-1.0871,-1.1238,-1.1343,-1.1378,-1.1631,-1.1823,-1.1968,-1.219,-1.2357,-1.2697,-1.2925,-1.3098,-1.3272,-1.3448,-1.347,-1.3477,-1.3492,-1.3492,-1.3492,-1.3492,-1.3492,-1.3492,-1.3492,-1.3587,-1.3777,-1.3756,-1.3822,-1.3985,-1.4426,-1.4652,-1.5065,-1.5534,-1.6211,-1.6902,-1.7432,-1.7432,-1.7797,-1.791,-1.791,-1.787,-1.7959,-1.8,-1.8031,-1.8121,-1.8193,-1.8353,-1.8554,-1.8865,-1.8993,-1.9103,-1.9112,-1.9103,-1.9134,-1.9134,-1.9854,-2.0587,-2.1541,-2.2161,-2.2352,-2.3012,-2.3679,-2.4393,-2.4975,-2.4973,-2.5196,-2.5692,-2.5808,-2.5819,-2.5505,-2.4904,-2.4691,-2.4573,-2.4573,-2.4563,-2.4872,-2.5242,-2.5621,-2.583,-2.5663,-2.5537,-2.5621,-2.5442,-2.5158,-2.4744,-2.4349,-2.4445,-1.0129,-0.9678,-1.0295,-1.053,-1.0396,-1.0561,-1.053,-1.0434,-1.053,-1.053,-1.0364,-1.0301,-1.0174,-1.004,-0.9748,-0.9907,-1.0174,-0.9881,-1.0168,-1.046,-1.0586,-1.0586,-1.0586,-1.0555,-1.0586,-1.0586,-1.0586,-1.0586,-1.0586,-1.0586,-1.0665,-1.0836,-1.0916,-1.0936,-1.1163,-1.1467,-1.1746,-1.2084,-1.2314,-1.2503,-1.2644,-1.2974,-1.3199,-1.3199,-1.344,-1.3477,-1.3492,-1.3492,-1.3492,-1.3492,-1.3492,-1.3492,-1.3492,-1.3492,-1.3492,-1.3492,-1.3653,-1.3777,-1.4042,-1.4438,-1.4979,-1.5663,-1.631,-1.6681,-1.6895,-1.7123,-1.7383,-1.7465,-1.7635,-1.7725,-1.7959,-1.7991,-1.8031,-1.7991,-1.8072,-1.8201,-1.8322,-1.8482,-1.8523,-1.8594,-1.8474,-1.8385,-1.8393,-1.8469,-1.9221,-1.9991,-2.0581,-2.1161,-2.1806,-2.2493,-2.3166,-2.3897,-2.3961,-2.4283,-2.4746,-2.4904,-2.4957,-2.4467,-2.393,-2.38,-2.3627,-2.3617,-2.3694,-2.3963,-2.4264,-2.4734,-2.4819,-2.4425,-2.4457,-2.4935,-2.4819,-2.4445,-2.3897,-2.329,-2.3377,-0.9608,-0.9084,-0.955,-0.9684,-0.9684,-1.004,-0.9977,-0.9652,-0.9709,-0.9748,-0.962,-0.946,-0.9364,-0.923,-0.9224,-0.9224,-0.9652,-0.969,-0.9951,-1.0206,-1.0364,-1.046,-1.0428,-1.0333,-1.0238,-1.0428,-1.0326,-1.0263,-1.0586,-1.0586,-1.0606,-1.0645,-1.0593,-1.0651,-1.073,-1.0916,-1.1271,-1.1588,-1.1875,-1.2004,-1.2087,-1.2523,-1.2793,-1.2844,-1.3127,-1.3301,-1.3353,-1.3404,-1.3492,-1.3492,-1.3492,-1.3492,-1.3492,-1.3492,-1.3492,-1.3492,-1.3514,-1.3616,-1.3857,-1.4284,-1.4702,-1.5193,-1.5583,-1.5969,-1.6271,-1.6457,-1.675,-1.7,-1.7221,-1.7514,-1.7829,-1.7878,-1.7991,-1.7991,-1.7991,-1.8112,-1.8072,-1.8193,-1.8152,-1.8152,-1.8072,-1.8072,-1.8112,-1.8161,-1.854,-1.9145,-1.9602,-2.0056,-2.0403,-2.1076,-2.1773,-2.2519,-2.3096,-2.3454,-2.3858,-2.3713,-2.3511,-2.327,-2.2853,-2.2765,-2.2677,-2.2711,-2.2755,-2.2843,-2.3236,-2.3844,-2.392,-2.3694,-2.4082,-2.4638,-2.4092,-2.3333,-2.3028,-2.2467,-2.2432,-0.8833,-0.8892,-0.8156,-0.7967,-0.8156,-0.8973,-0.8871,-0.8318,-0.8253,-0.8253,-0.8285,-0.8194,-0.8129,-0.8129,-0.8538,-0.8737,-0.9,-0.939,-0.9684,-0.9716,-0.9716,-1.0009,-0.9913,-0.9722,-0.962,-1.0206,-0.9977,-0.9843,-1.0396,-1.0238,-1.0301,-1.0326,-1.0199,-1.0428,-1.0555,-1.0593,-1.0708,-1.0851,-1.1221,-1.1402,-1.1624,-1.203,-1.2241,-1.2402,-1.2751,-1.2981,-1.3112,-1.3301,-1.3404,-1.3484,-1.3492,-1.3492,-1.3492,-1.3492,-1.3492,-1.3492,-1.3492,-1.3506,-1.3558,-1.4121,-1.444,-1.4628,-1.5005,-1.533,-1.565,-1.5927,-1.6181,-1.6354,-1.6798,-1.7229,-1.7538,-1.7716,-1.787,-1.7991,-1.7991,-1.7991,-1.7991,-1.7991,-1.7991,-1.7991,-1.7991,-1.7991,-1.7991,-1.8031,-1.8152,-1.8482,-1.8803,-1.9096,-1.9377,-1.9842,-2.0654,-2.1433,-2.2161,-2.2494,-2.2685,-2.2324,-2.2104,-2.19,-2.1954,-2.2078,-2.2033,-2.2069,-2.2033,-2.1945,-2.2334,-2.3028,-2.3149,-2.3096,-2.3357,-2.3444,-2.2711,-2.2078,-2.182,-2.182,-2.1909,-0.7859,-0.7307,-0.7702,-0.7251,-0.6568,-0.7832,-0.8188,-0.7837,-0.78,-0.78,-0.7767,-0.7674,-0.7902,-0.7999,-0.76,-0.7795,-0.8506,-0.7692,-0.7957,-0.8672,-0.8742,-0.8748,-0.878,-0.8812,-0.8812,-0.9037,-0.8909,-0.8909,-0.9134,-0.9364,-0.9268,-0.9204,-0.9454,-0.9748,-1.0326,-1.0586,-1.0656,-1.0694,-1.0885,-1.0996,-1.1088,-1.1507,-1.1774,-1.1822,-1.2282,-1.2622,-1.2796,-1.3033,-1.3279,-1.3433,-1.3462,-1.3492,-1.3492,-1.3492,-1.3492,-1.3492,-1.3492,-1.3492,-1.3506,-1.38,-1.3954,-1.4182,-1.4466,-1.4754,-1.5074,-1.5027,-1.5264,-1.5614,-1.6043,-1.6597,-1.7245,-1.7456,-1.7627,-1.7951,-1.7991,-1.7991,-1.7991,-1.7991,-1.7991,-1.7991,-1.7991,-1.7991,-1.7991,-1.7991,-1.8072,-1.8152,-1.8474,-1.8763,-1.9065,-1.9221,-1.9712,-2.0517,-2.1212,-2.1466,-2.1592,-2.1729,-2.1819,-2.182,-2.1776,-2.182,-2.1731,-2.1687,-2.1731,-2.182,-2.1989,-2.2211,-2.2334,-2.2413,-2.2246,-2.1989,-2.1776,-2.1687,-2.1731,-2.1731,-2.1776,-0.7051,-0.6498,-0.6892,-0.6465,-0.5686,-0.6953,-0.7312,-0.6957,-0.6929,-0.6896,-0.6826,-0.6765,-0.6863,-0.7022,-0.6887,-0.6724,-0.7795,-0.7372,-0.7083,-0.7767,-0.7804,-0.7967,-0.8004,-0.7842,-0.8032,-0.8161,-0.8161,-0.8161,-0.8619,-0.8554,-0.8587,-0.8651,-0.8522,-0.9037,-0.9588,-0.9748,-0.9945,-1.004,-1.0263,-1.0448,-1.0723,-1.1056,-1.1256,-1.1404,-1.1706,-1.2135,-1.2459,-1.2738,-1.3019,-1.3251,-1.3411,-1.347,-1.3484,-1.3492,-1.3492,-1.3492,-1.3492,-1.3492,-1.3506,-1.3506,-1.3675,-1.3836,-1.4033,-1.421,-1.4352,-1.4366,-1.4443,-1.4729,-1.5164,-1.5831,-1.6589,-1.6823,-1.7227,-1.7502,-1.7789,-1.7789,-1.8,-1.7959,-1.7991,-1.7991,-1.7991,-1.7991,-1.7991,-1.7991,-1.8031,-1.8072,-1.8152,-1.8434,-1.8754,-1.8918,-1.9092,-1.9732,-2.0452,-2.089,-2.1308,-2.1674,-2.1692,-2.1713,-2.1651,-2.1607,-2.1687,-2.1687,-2.1687,-2.1687,-2.182,-2.1909,-2.182,-2.1776,-2.1811,-2.1811,-2.1731,-2.1687,-2.1687,-2.1687,-2.1687,-0.6367,-0.6268,-0.5653,-0.5458,-0.5557,-0.6334,-0.6207,-0.5458,-0.5491,-0.5491,-0.5491,-0.5591,-0.5818,-0.5785,-0.6108,-0.6429,-0.6597,-0.6961,-0.706,-0.7158,-0.7092,-0.7284,-0.7218,-0.6999,-0.7186,-0.7507,-0.76,-0.7512,-0.8296,-0.8102,-0.8102,-0.8264,-0.8064,-0.8258,-0.8388,-0.8484,-0.8844,-0.9294,-0.955,-0.9773,-1.0066,-1.0416,-1.043,-1.0573,-1.0809,-1.1167,-1.1551,-1.2018,-1.2486,-1.2848,-1.3193,-1.336,-1.347,-1.3492,-1.3492,-1.3492,-1.3492,-1.3492,-1.3375,-1.3339,-1.339,-1.344,-1.3543,-1.3541,-1.3679,-1.3892,-1.4037,-1.4205,-1.4584,-1.5082,-1.5611,-1.6102,-1.6549,-1.6968,-1.7391,-1.7578,-1.7878,-1.7959,-1.7991,-1.7991,-1.7991,-1.7991,-1.7991,-1.7991,-1.7991,-1.8031,-1.8072,-1.8161,-1.8434,-1.8714,-1.8896,-1.9124,-1.9811,-2.0345,-2.0817,-2.1257,-2.1496,-2.141,-2.1472,-2.1482,-2.1562,-2.1642,-2.1651,-2.1651,-2.1696,-2.1687,-2.1687,-2.1687,-2.1731,-2.1687,-2.1687,-2.1687,-2.1687,-2.1687,-2.1687,-0.5686,-0.5653,-0.5458,-0.5395,-0.5425,-0.5686,-0.562,-0.5428,-0.5395,-0.5395,-0.5395,-0.5395,-0.562,-0.6075,-0.5815,-0.6009,-0.6141,-0.6145,-0.5984,-0.6017,-0.6178,-0.6141,-0.6108,-0.6145,-0.6272,-0.6437,-0.6601,-0.6666,-0.6868,-0.6999,-0.7064,-0.697,-0.7228,-0.7162,-0.7129,-0.7031,-0.7809,-0.8458,-0.871,-0.9005,-0.9166,-0.9358,-0.9358,-0.947,-0.9596,-0.9886,-1.0228,-1.0868,-1.1288,-1.1639,-1.2509,-1.2963,-1.3013,-1.3273,-1.3492,-1.3492,-1.3455,-1.3353,-1.3046,-1.3266,-1.3346,-1.3127,-1.3236,-1.3477,-1.3528,-1.3578,-1.3694,-1.3906,-1.3985,-1.4397,-1.4999,-1.5504,-1.5984,-1.6413,-1.6895,-1.7302,-1.7595,-1.7797,-1.787,-1.7991,-1.7991,-1.7991,-1.7991,-1.7991,-1.7991,-1.7991,-1.8031,-1.808,-1.8201,-1.8474,-1.8652,-1.8861,-1.9406,-2.0078,-2.0325,-2.0738,-2.1006,-2.1177,-2.1239,-2.1302,-2.1329,-2.1419,-2.1526,-2.1616,-2.1651,-2.1687,-2.1687,-2.1687,-2.1687,-2.1687,-2.1687,-2.1687,-2.1687,-2.1687,-2.1687,-0.5395,-0.5395,-0.5395,-0.5395,-0.5395,-0.5395,-0.5395,-0.5395,-0.5395,-0.5395,-0.5395,-0.5395,-0.562,-0.5848,-0.5587,-0.5624,-0.591,-0.5719,-0.5524,-0.5524,-0.5395,-0.5521,-0.5521,-0.5554,-0.5719,-0.5789,-0.5885,-0.6083,-0.6083,-0.6251,-0.635,-0.6486,-0.642,-0.642,-0.6486,-0.6613,-0.6905,-0.7484,-0.7907,-0.8199,-0.8361,-0.8458,-0.8522,-0.8458,-0.8549,-0.8712,-0.8959,-0.9676,-1.0062,-1.0402,-1.1385,-1.1673,-1.1886,-1.2372,-1.2996,-1.3076,-1.3382,-1.3309,-1.3156,-1.3017,-1.29,-1.2783,-1.29,-1.3017,-1.3097,-1.311,-1.3387,-1.3681,-1.3612,-1.3721,-1.4353,-1.4969,-1.5441,-1.5927,-1.646,-1.7009,-1.731,-1.7595,-1.7789,-1.7951,-1.7991,-1.7991,-1.7991,-1.7991,-1.7991,-1.7991,-1.7991,-1.8031,-1.8121,-1.8322,-1.8474,-1.8598,-1.9244,-1.9913,-2.012,-2.036,-2.0704,-2.0961,-2.0961,-2.1015,-2.1051,-2.1239,-2.1428,-2.1562,-2.1642,-2.1642,-2.1642,-2.1687,-2.1687,-2.1687,-2.1687,-2.1687,-2.1687,-2.1687,-2.1687,-0.5395,-0.5395,-0.5395,-0.5395,-0.5395,-0.5395,-0.5395,-0.5395,-0.5395,-0.5395,-0.5395,-0.5395,-0.5428,-0.5524,-0.5428,-0.5395,-0.5557,-0.5425,-0.5395,-0.5395,-0.5395,-0.5425,-0.5425,-0.5428,-0.5524,-0.5554,-0.565,-0.5785,-0.5954,-0.6119,-0.6317,-0.6387,-0.642,-0.642,-0.642,-0.642,-0.6581,-0.6773,-0.7228,-0.7587,-0.8004,-0.8264,-0.8361,-0.8231,-0.8226,-0.8279,-0.8484,-0.8821,-0.9142,-0.9383,-0.9741,-1.0096,-1.0713,-1.1228,-1.1915,-1.2402,-1.2746,-1.2783,-1.2709,-1.2606,-1.2452,-1.2378,-1.2496,-1.2526,-1.2526,-1.2936,-1.3345,-1.3249,-1.3151,-1.3014,-1.3492,-1.4046,-1.4543,-1.5132,-1.574,-1.6368,-1.6853,-1.7261,-1.7676,-1.7878,-1.7991,-1.7991,-1.7991,-1.7991,-1.7991,-1.7991,-1.7991,-1.7991,-1.8072,-1.8201,-1.8282,-1.8388,-1.904,-1.9615,-1.9817,-2.0088,-2.0561,-2.0789,-2.0789,-2.0789,-2.0781,-2.106,-2.1383,-2.1419,-2.141,-2.1499,-2.1553,-2.1553,-2.1607,-2.1607,-2.1651,-2.1687,-2.1687,-2.1687,-2.1687,-0.5395,-0.5395,-0.5395,-0.5395,-0.5395,-0.5395,-0.5395,-0.5395,-0.5395,-0.5359,-0.5392,-0.5392,-0.5395,-0.5395,-0.5329,-0.5329,-0.5395,-0.5395,-0.5395,-0.5395,-0.5395,-0.5395,-0.5395,-0.5395,-0.5428,-0.5458,-0.5554,-0.5686,-0.5921,-0.6152,-0.6284,-0.6284,-0.6354,-0.642,-0.642,-0.642,-0.642,-0.642,-0.6613,-0.6876,-0.7068,-0.697,-0.6905,-0.697,-0.7003,-0.7101,-0.7316,-0.7625,-0.7828,-0.8088,-0.8969,-0.9593,-1.0211,-1.0479,-1.0888,-1.1384,-1.1706,-1.1818,-1.1818,-1.1855,-1.1787,-1.1595,-1.1632,-1.1818,-1.215,-1.2856,-1.3119,-1.2893,-1.2693,-1.252,-1.2628,-1.3158,-1.3666,-1.4324,-1.5042,-1.5708,-1.6386,-1.6976,-1.7514,-1.7716,-1.787,-1.7991,-1.7991,-1.7991,-1.7991,-1.7991,-1.7991,-1.7991,-1.7991,-1.8072,-1.8112,-1.8282,-1.8859,-1.9299,-1.9523,-1.9904,-2.0407,-2.0609,-2.0609,-2.0564,-2.0518,-2.0789,-2.1105,-2.1132,-2.1168,-2.1266,-2.132,-2.1374,-2.1428,-2.1472,-2.1517,-2.1508,-2.1597,-2.1597,-2.1642,-0.5395,-0.5395,-0.5395,-0.5395,-0.5395,-0.5395,-0.5226,-0.4957,-0.4924,-0.489,-0.4849,-0.4923,-0.5087,-0.5223,-0.5093,-0.5216,-0.5319,-0.5395,-0.5395,-0.5395,-0.5395,-0.5395,-0.5395,-0.5395,-0.5395,-0.5425,-0.5554,-0.5719,-0.5888,-0.6119,-0.6251,-0.6251,-0.6354,-0.642,-0.642,-0.642,-0.642,-0.642,-0.642,-0.642,-0.642,-0.642,-0.642,-0.642,-0.642,-0.642,-0.6486,-0.6839,-0.6905,-0.7122,-0.7707,-0.828,-0.8816,-0.9336,-0.9842,-1.0421,-1.0807,-1.1037,-1.0999,-1.0999,-1.1074,-1.0962,-1.0999,-1.126,-1.1409,-1.204,-1.2636,-1.2452,-1.2224,-1.2042,-1.2344,-1.2859,-1.2951,-1.3358,-1.4186,-1.4916,-1.5868,-1.6689,-1.6943,-1.6992,-1.7392,-1.7991,-1.7991,-1.7991,-1.7991,-1.7991,-1.7991,-1.7991,-1.7991,-1.7991,-1.7991,-1.822,-1.8768,-1.9102,-1.9333,-1.9763,-2.0296,-2.0382,-2.0473,-2.0518,-2.0564,-2.0654,-2.0781,-2.0862,-2.0988,-2.1033,-2.1096,-2.115,-2.1195,-2.1239,-2.1284,-2.132,-2.1419,-2.1463,-2.1463,-0.5329,-0.5329,-0.5359,-0.5359,-0.5359,-0.5259,-0.4875,-0.4392,-0.4293,-0.4257,-0.4165,-0.4248,-0.4668,-0.4904,-0.4772,-0.4982,-0.518,-0.5258,-0.5341,-0.5392,-0.5395,-0.5395,-0.5395,-0.5395,-0.5395,-0.5458,-0.5521,-0.5653,-0.576,-0.6053,-0.6251,-0.6317,-0.6387,-0.642,-0.642,-0.642,-0.642,-0.642,-0.642,-0.642,-0.642,-0.642,-0.642,-0.642,-0.642,-0.642,-0.642,-0.642,-0.6416,-0.6527,-0.6752,-0.719,-0.7667,-0.8234,-0.8736,-0.9299,-0.9884,-1.0271,-1.0507,-1.0363,-1.0438,-1.0519,-1.0594,-1.0663,-1.0775,-1.1223,-1.1818,-1.1892,-1.1669,-1.1658,-1.1958,-1.2161,-1.2209,-1.2606,-1.346,-1.4248,-1.524,-1.618,-1.6286,-1.6301,-1.6902,-1.7578,-1.7789,-1.7829,-1.7991,-1.7991,-1.7991,-1.7991,-1.7991,-1.7991,-1.7991,-1.8297,-1.8742,-1.899,-1.917,-1.9701,-2.0283,-2.0337,-2.0382,-2.0473,-2.0564,-2.0564,-2.0609,-2.0736,-2.0817,-2.0817,-2.0862,-2.0916,-2.0961,-2.0961,-2.1096,-2.1177,-2.1132,-2.1186,-2.1195,-0.4897,-0.493,-0.509,-0.5156,-0.5087,-0.4719,-0.4396,-0.4247,-0.414,-0.4106,-0.3996,-0.3979,-0.4314,-0.5003,-0.4879,-0.4928,-0.4948,-0.5047,-0.5235,-0.5378,-0.5124,-0.5243,-0.5219,-0.4978,-0.5322,-0.5322,-0.5253,-0.5488,-0.5289,-0.5752,-0.6083,-0.5921,-0.6251,-0.6354,-0.6387,-0.6387,-0.642,-0.642,-0.642,-0.642,-0.642,-0.642,-0.642,-0.642,-0.642,-0.642,-0.642,-0.642,-0.642,-0.6436,-0.6469,-0.6658,-0.6948,-0.7305,-0.7775,-0.8282,-0.8853,-0.9125,-0.9286,-0.9415,-0.9533,-0.969,-0.9765,-0.9841,-1.0105,-1.055,-1.0962,-1.1037,-1.0887,-1.0775,-1.0966,-1.1116,-1.1238,-1.2184,-1.3052,-1.3718,-1.4511,-1.5095,-1.5401,-1.5609,-1.6015,-1.6591,-1.7009,-1.7253,-1.7829,-1.787,-1.8,-1.8,-1.7991,-1.7991,-1.7991,-1.8324,-1.8716,-1.8973,-1.9204,-1.9804,-2.0292,-2.0292,-2.0292,-2.0382,-2.0428,-2.0382,-2.0428,-2.0555,-2.051,-2.0464,-2.0555,-2.069,-2.069,-2.0789,-2.0952,-2.1042,-2.0997,-2.0952,-2.0961]},{"header":{"parameterUnit":"m.s-1","parameterCategory":1,"la1":31.0,"la2":29.5877,"lo1":-88.7671,"lo2":-86.6584,"dy":0.0162,"dx":0.0185,"nx":115,"ny":88,"refTime":"2023-09-13T12:00:00:Z","depth":0,"parameterNumber":3,"parameterNumberName":"V-component_of_WINDS"},"data":[0.0,0.0,0.0,0.0,0.0,0.0,0.0,0.0,0.0,0.0,0.0,0.0,0.0,0.0,0.0,0.0,0.0,0.0,0.0,0.0,0.0,0.0,0.0,0.0,0.0,0.0,0.0,0.0,0.0,0.0,0.0,0.0,0.0,0.0,0.0,0.0,0.0,0.0,0.0,0.0,0.0,0.0,0.0,0.0,0.0,0.0,0.0,0.0,0.0,0.0,0.0,0.0,0.0,0.0,0.0,0.0,0.0,0.0,0.0,0.0,0.0,0.0,0.0,0.0,0.0,0.0,0.0,0.0,0.0,0.0,0.0,0.0,0.0,0.0,0.0,0.0,0.0,0.0,0.0,0.0,0.0,0.0,0.0,0.0,0.0,0.0,0.0,0.0,0.0,0.0,0.0,0.0,0.0,0.0,0.0,0.0,0.0,0.0,0.0,0.0,0.0,0.0,0.0,0.0,0.0,0.0,0.0,0.0,0.0,0.0,0.0,0.0,0.0,0.0,0.0,0.0,0.0,0.0,0.0,0.0,0.0,0.0,0.0,0.0,0.0,0.0,0.0,0.0,0.0,0.0,0.0,0.0,0.0,0.0,0.0,0.0,0.0,0.0,0.0,0.0,0.0,0.0,0.0,0.0,0.0,0.0,0.0,0.0,0.0,0.0,0.0,0.0,0.0,0.0,0.0,0.0,0.0,0.0,0.0,0.0,0.0,0.0,0.0,0.0,0.0,0.0,0.0,0.0,0.0,0.0,0.0,0.0,0.0,0.0,0.0,0.0,0.0,0.0,0.0,0.0,0.0,0.0,0.0,0.0,0.0,0.0,0.0,0.0,0.0,0.0,0.0,0.0,0.0,0.0,0.0,0.0,0.0,0.0,0.0,0.0,0.0,0.0,0.0,0.0,0.0,0.0,0.0,0.0,0.0,0.0,0.0,0.0,0.0,0.0,0.0,0.0,0.0,0.0,0.0,0.0,0.0,0.0,0.0,0.0,0.0,0.0,0.0,0.0,0.0,0.0,0.0,0.0,0.0,0.0,0.0,0.0,0.0,0.0,0.0,0.0,0.0,0.0,0.0,0.0,0.0,0.0,0.0,0.0,0.0,0.0,0.0,0.0,0.0,0.0,0.0,0.0,0.0,0.0,0.0,0.0,0.0,0.0,0.0,0.0,0.0,0.0,0.0,0.0,0.0,0.0,0.0,0.0,0.0,0.0,0.0,0.0,0.0,0.0,0.0,0.0,0.0,0.0,0.0,0.0,0.0,0.0,0.0,0.0,0.0,0.0,0.0,0.0,0.0,0.0,0.0,0.0,0.0,0.0,0.0,0.0,0.0,0.0,0.0,0.0,0.0,0.0,0.0,0.0,0.0,0.0,0.0,0.0,0.0,0.0,0.0,0.0,0.0,0.0,0.0,0.0,0.0,0.0,0.0,0.0,0.0,0.0,0.0,0.0,0.0,0.0,0.0,0.0,0.0,0.0,0.0,0.0,0.0,0.0,0.0,0.0,0.0,0.0,0.0,0.0,0.0,0.0,0.0,0.0,0.0,0.0,0.0,0.0,0.0,0.0,0.0,0.0,0.0,0.0,0.0,0.0,0.0,0.0,0.0,0.0,0.0,0.0,0.0,0.0,0.0,0.0,0.0,0.0,0.0,0.0,0.0,0.0,0.0,0.0,0.0,0.0,0.0,0.0,0.0,0.0,0.0,0.0,0.0,0.0,0.0,0.0,0.0,0.0,0.0,0.0,0.0,0.0,0.0,0.0,0.0,0.0,0.0,0.0,0.0,0.0,0.0,0.0,0.0,0.0,0.0,0.0,0.0,0.0,0.0,0.0,0.0,0.0,0.0,0.0,0.0,0.0,0.0,0.0,0.0,0.0,0.0,0.0,0.0,0.0,0.0,0.0,0.0,0.0,0.0,0.0,0.0,0.0,0.0,0.0,0.0,0.0,0.0,0.0,0.0,0.0,0.0,0.0,0.0,0.0,0.0,0.0,0.0,0.0,0.0,0.0,0.0,0.0,0.0,0.0,0.0,0.0,0.0,0.0,0.0,0.0,0.0,0.0,0.0,0.0,0.0,0.0,0.0,0.0,0.0,0.0,0.0,0.0,0.0,0.0,0.0,0.0,0.0,0.0,0.0,0.0,0.0,0.0,0.0,0.0,0.0,0.0,0.0,0.0,0.0,0.0,0.0,0.0,0.0,0.0,0.0,0.0,0.0,0.0,0.0,0.0,0.0,0.0,0.0,0.0,0.0,0.0,0.0,0.0,0.0,0.0,0.0,0.0,0.0,0.0,0.0,0.0,0.0,0.0,0.0,0.0,0.0,0.0,0.0,0.0,0.0,0.0,0.0,0.0,0.0,0.0,0.0,0.0,0.0,0.0,0.0,0.0,0.0,0.0,0.0,0.0,0.0,0.0,0.0,0.0,0.0,0.0,0.0,0.0,0.0,0.0,0.0,0.0,0.0,0.0,0.0,0.0,0.0,0.0,0.0,0.0,0.0,0.0,0.0,0.0,0.0,0.0,0.0,0.0,0.0,0.0,0.0,0.0,0.0,0.0,0.0,0.0,0.0,0.0,0.0,0.0,0.0,0.0,0.0,0.0,0.0,0.0,0.0,0.0,0.0,0.0,0.0,0.0,0.0,0.0,0.0,0.0,0.0,0.0,0.0,0.0,0.0,0.0,0.0,0.0,0.0,0.0,0.0,0.0,0.0,0.0,0.0,0.0,0.0,0.0,0.0,0.0,0.0,0.0,0.0,0.0,0.0,0.0,0.0,0.0,0.0,0.0,0.0,0.0,0.0,0.0,0.0,0.0,0.0,0.0,0.0,0.0,0.0,0.0,0.0,0.0,0.0,0.0,0.0,0.0,0.0,0.0,0.0,0.0,0.0,0.0,0.0,0.0,0.0,0.0,0.0,0.0,0.0,0.0,0.0,0.0,0.0,0.0,0.0,0.0,0.0,0.0,0.0,0.0,0.0,0.0,0.0,0.0,0.0,0.0,0.0,0.0,0.0,0.0,0.0,0.0,0.0,0.0,0.0,0.0,0.0,0.0,0.0,0.0,0.0,0.0,0.0,0.0,0.0,0.0,0.0,0.0,0.0,0.0,0.0,0.0,0.0,0.0,0.0,0.0,0.0,0.0,0.0,0.0,0.0,0.0,0.0,0.0,0.0,0.0,0.0,0.0,0.0,0.0,0.0,0.0,0.0,0.0,0.0,0.0,0.0,0.0,0.0,0.0,0.0,0.0,0.0,0.0,0.0,0.0,0.0,0.0,0.0,0.0,0.0,0.0,0.0,0.0,0.0,0.0,0.0,0.0,0.0,0.0,0.0,0.0,0.0,0.0,0.0,0.0,0.0,0.0,0.0,0.0,0.0,0.0,0.0,0.0,0.0,0.0,0.0,0.0,0.0,0.0,0.0,0.0,0.0,0.0,0.0,0.0,0.0,0.0,0.0,0.0,0.0,0.0,0.0,0.0,0.0,0.0,0.0,0.0,0.0,0.0,0.0,0.0,0.0,0.0,0.0,0.0,0.0,0.0,0.0,0.0,0.0,0.0,0.0,0.0,0.0,0.0,0.0,0.0,0.0,0.0,0.0,0.0,0.0,0.0,0.0,0.0,0.0,0.0,0.0,0.0,0.0,0.0,0.0,0.0,0.0,0.0,0.0,0.0,0.0,0.0,0.0,0.0,0.0,0.0,0.0,0.0,0.0,0.0,0.0,0.0,0.0,0.0,0.0,0.0,0.0,0.0,0.0,0.0,0.0,0.0,0.0,0.0,0.0,0.0,0.0,0.0,0.0,0.0,0.0,0.0,0.0,0.0,0.0,0.0,0.0,0.0,0.0,0.0,0.0,0.0,0.0,0.0,0.0,0.0,0.0,0.0,0.0,0.0,0.0,0.0,0.0,0.0,0.0,0.0,0.0,0.0,0.0,0.0,0.0,0.0,0.0,0.0,0.0,0.0,0.0,0.0,0.0,0.0,0.0,0.0,0.0,0.0,0.0,0.0,0.0,0.0,0.0,0.0,0.0,0.0,0.0,0.0,0.0,0.0,0.0,0.0,0.0,0.0,0.0,0.0,0.0,0.0,0.0,0.0,0.0,0.0,0.0,0.0,0.0,0.0,0.0,0.0,0.0,0.0,0.0,0.0,0.0,0.0,0.0,0.0,0.0,0.0,0.0,0.0,0.0,0.0,0.0,0.0,0.0,0.0,0.0,0.0,0.0,0.0,0.0,0.0,0.0,0.0,0.0,0.0,0.0,0.0,0.0,0.0,1.5692,0.0,0.0,0.0,0.0,0.0,0.0,0.0,0.0,0.0,0.0,0.0,0.0,0.0,0.0,0.0,0.0,0.0,0.0,0.0,0.0,0.0,0.0,0.0,0.0,0.0,0.0,0.0,0.0,0.0,0.0,0.0,0.0,0.0,0.0,0.0,0.0,0.0,0.0,0.0,0.0,0.0,0.0,0.0,0.0,0.0,0.0,0.0,0.0,0.0,0.0,0.0,0.0,0.0,0.0,0.0,0.0,0.0,0.0,0.0,0.0,0.0,0.0,0.0,0.0,0.0,0.0,0.0,0.0,0.0,0.0,0.0,0.0,0.0,0.0,0.0,0.0,0.0,0.0,0.0,0.0,0.0,0.0,0.0,0.0,0.0,0.0,0.0,0.0,0.0,0.0,0.0,0.0,0.0,0.0,0.0,0.0,0.0,0.0,0.0,0.0,0.0,0.0,0.0,0.0,0.0,0.0,0.0,0.0,0.0,0.0,1.5193,1.5242,1.4552,1.4545,1.5284,0.0,0.0,0.0,0.0,0.0,0.0,0.0,0.0,0.0,0.0,0.0,0.0,0.0,0.0,0.0,0.0,0.0,0.0,0.0,0.0,0.0,0.0,0.0,0.0,0.0,0.0,0.0,0.0,0.0,0.0,0.0,0.0,0.0,0.0,0.0,0.0,0.0,0.0,0.0,0.0,0.0,0.0,0.0,0.0,0.0,0.0,0.0,0.0,0.0,0.0,0.0,0.0,0.0,0.0,0.0,0.0,0.0,0.0,0.0,0.0,0.0,0.0,0.0,0.0,0.0,0.0,0.0,0.0,0.0,0.0,0.0,0.0,0.0,0.0,0.0,0.0,0.0,0.0,0.0,0.0,0.0,0.0,0.0,0.0,0.0,0.0,0.0,0.0,0.0,0.0,0.0,0.0,0.0,0.0,0.0,0.0,0.0,0.0,0.0,0.0,0.0,0.0,0.0,0.0,0.0,0.0,0.0,0.0,0.0,0.0,0.0,0.0,1.3584,1.3239,1.3717,0.0,0.0,0.0,0.0,0.0,0.0,0.0,0.0,0.0,0.0,0.0,0.0,0.0,0.0,0.0,0.0,0.0,0.0,0.0,0.0,0.0,0.0,0.0,0.0,0.0,0.0,0.0,0.0,0.0,0.0,0.0,0.0,0.0,0.0,0.0,0.0,0.0,0.0,0.0,0.0,0.0,0.0,0.0,0.0,0.0,0.0,0.0,0.0,0.0,0.0,0.0,0.0,0.0,0.0,0.0,0.0,0.0,0.0,0.0,0.0,0.0,0.0,0.0,0.0,0.0,0.0,0.0,0.0,0.0,0.0,0.0,0.0,0.0,0.0,0.0,0.0,0.0,0.0,0.0,0.0,0.0,0.0,0.0,0.0,0.0,0.0,0.0,0.0,0.0,0.0,0.0,0.0,0.0,0.0,0.0,0.0,0.0,0.0,0.0,0.0,0.0,0.0,0.0,0.0,0.0,0.0,0.0,0.0,0.0,0.0,1.3402,1.3184,1.1697,0.0,0.9946,0.0,0.0,0.0,0.0,0.0,0.0,0.0,0.0,0.0,0.0,0.0,0.0,0.0,0.0,0.0,0.0,0.0,0.0,0.0,0.0,0.0,0.0,0.0,0.0,0.0,0.0,0.0,0.0,0.0,0.0,0.0,0.0,0.0,0.0,0.0,0.0,0.0,0.0,0.0,0.0,0.0,0.0,0.0,0.0,0.0,0.0,0.0,0.0,0.0,0.0,0.0,0.0,0.0,0.0,0.0,0.0,0.0,0.0,0.0,0.0,0.0,0.0,0.0,0.0,0.0,0.0,0.0,0.0,0.0,0.0,0.0,0.0,0.0,0.0,0.0,0.0,0.0,0.0,0.0,0.0,0.0,0.0,0.0,0.0,0.0,0.0,0.0,0.0,0.0,0.0,0.0,0.0,0.0,0.0,0.0,0.0,0.0,0.0,0.0,0.0,0.0,0.0,0.0,0.0,0.0,0.0,0.0,0.0,0.0,0.0,1.2948,1.282,1.1832,1.0626,0.0,0.0,0.0,0.0,0.0,0.0,0.0,0.0,0.0,0.0,0.0,0.0,0.0,0.0,0.0,0.0,0.0,0.0,0.0,0.0,0.0,0.0,0.0,0.0,0.0,0.0,0.0,0.0,0.0,0.0,0.0,0.0,0.0,0.0,0.0,0.0,0.0,0.0,0.0,0.0,0.0,0.0,0.0,0.0,0.0,0.0,0.0,0.0,0.0,0.0,0.0,0.0,0.0,0.0,0.0,0.0,0.0,0.0,0.0,0.0,0.0,0.0,0.0,0.0,0.0,0.0,0.0,0.0,0.0,0.0,0.0,0.0,0.0,0.0,0.0,0.0,0.0,0.0,0.0,0.0,0.0,0.0,0.0,0.0,0.0,0.0,0.0,0.0,0.0,0.0,0.0,0.0,0.0,0.0,0.0,0.0,0.0,0.0,0.0,0.0,0.0,0.0,0.0,0.0,0.0,0.0,0.0,0.0,0.0,0.0,1.2607,1.1843,1.1542,1.1101,1.0323,0.9262,0.0,0.0,0.0,0.0,0.0,0.0,0.0,0.0,0.0,0.0,0.0,0.0,0.0,0.0,0.0,0.0,0.0,0.0,0.0,0.0,0.0,0.0,0.0,0.0,0.0,0.0,0.0,0.0,0.0,0.0,0.0,0.0,0.0,0.0,0.0,0.0,0.0,0.0,0.0,0.0,0.0,0.0,0.0,0.0,0.0,0.0,0.0,0.0,0.0,0.0,0.0,0.0,0.0,0.0,0.0,0.0,0.0,0.0,0.0,0.0,0.0,0.0,0.0,0.0,0.0,0.0,0.0,0.0,0.0,0.0,0.0,0.0,0.0,0.0,0.0,0.0,0.0,0.0,0.0,0.0,0.0,0.0,0.0,0.0,0.0,0.0,0.0,0.0,0.0,0.0,0.0,0.0,0.0,0.0,0.0,0.0,0.0,0.0,0.0,0.0,0.0,0.0,0.0,0.0,0.0,0.0,0.0,0.0,1.2699,1.1025,0.9646,0.8867,0.874,0.8784,0.0,0.0,0.0,0.0,0.0,0.0,0.0,0.0,0.0,0.0,0.0,0.0,0.0,0.0,0.0,0.0,0.0,0.0,0.0,0.0,0.0,0.0,0.0,0.0,0.0,0.0,0.0,0.0,0.0,0.0,0.0,0.0,0.0,0.0,0.0,0.0,0.0,0.0,0.0,0.0,0.0,0.0,0.0,0.0,0.0,0.0,0.0,0.0,0.0,0.0,0.0,0.0,0.0,0.0,0.0,0.0,0.0,0.0,0.0,0.0,0.0,0.0,0.0,0.0,0.0,0.0,0.0,0.0,0.0,0.0,0.0,0.0,0.0,0.0,0.0,0.0,0.0,0.0,0.0,0.0,0.0,0.0,0.0,0.0,0.0,0.0,0.0,0.0,0.0,0.0,0.0,0.0,0.0,0.0,0.0,0.0,0.0,0.0,0.0,0.0,0.0,0.0,0.0,0.0,0.0,0.0,0.0,0.0,0.0,1.18,1.0549,0.9471,0.8656,0.8616,0.8652,0.0,0.0,0.0,0.0,0.0,0.0,0.0,0.0,0.0,0.0,0.0,0.0,0.0,0.0,0.0,0.0,0.0,0.0,0.0,0.0,0.0,0.0,0.0,0.0,0.0,0.0,0.0,0.0,0.0,0.0,0.0,0.0,0.0,0.0,0.0,0.0,0.0,0.0,0.0,0.0,0.0,0.0,0.0,0.0,0.0,0.0,0.0,0.0,0.0,0.0,0.0,0.0,0.0,0.0,0.0,0.0,0.0,0.0,0.0,0.0,0.0,0.0,0.0,0.0,0.0,0.0,0.0,0.0,0.0,0.0,0.0,0.0,0.0,0.0,0.0,0.0,0.0,0.0,0.0,0.0,0.0,0.0,0.0,0.0,0.0,0.0,0.0,0.0,0.0,0.0,0.0,0.0,0.0,0.0,0.0,0.0,0.0,0.0,0.0,0.0,0.0,0.0,0.0,0.0,0.0,0.0,0.0,0.0,0.0,1.0463,0.0,0.917,0.8656,0.8616,0.8652,0.0,0.0,0.0,0.0,0.0,0.0,0.0,0.0,0.0,0.0,0.0,0.0,0.0,0.0,0.0,0.0,0.0,0.0,0.0,0.0,0.0,0.0,0.0,0.0,0.0,0.0,0.0,0.0,0.0,0.0,0.0,0.0,0.0,0.0,0.0,0.0,0.0,0.0,0.0,0.0,0.0,0.0,0.0,0.0,0.0,0.0,0.0,0.0,0.0,0.0,0.0,0.0,0.0,0.0,0.0,0.0,0.0,0.0,0.0,0.0,0.0,0.0,0.0,0.0,0.0,0.0,0.0,0.0,0.0,0.0,0.0,0.0,0.0,0.0,0.0,0.0,0.0,0.0,0.0,0.0,0.0,0.0,0.0,0.0,0.0,0.0,0.0,0.0,0.0,0.0,0.0,0.0,0.0,0.0,0.0,0.0,0.0,0.0,0.0,0.0,0.0,0.0,0.0,0.0,0.0,0.0,0.0,0.0,0.9515,0.87,0.8656,0.8656,0.8616,0.8616,0.8696,0.0,0.0,0.0,0.0,0.0,0.0,0.0,0.0,0.0,0.0,0.0,0.0,0.0,0.0,0.0,0.0,0.0,0.0,0.0,0.0,0.0,0.0,0.0,0.0,0.0,0.0,0.0,0.0,0.0,0.0,0.0,0.0,0.0,0.0,0.0,0.0,0.0,0.0,0.0,0.0,0.0,0.0,0.0,0.0,0.0,0.0,0.0,0.0,0.0,0.0,0.0,0.0,0.0,0.0,0.0,0.0,0.0,0.0,0.0,0.0,0.0,0.0,0.0,0.0,0.0,0.0,0.0,0.0,0.0,0.0,0.0,0.0,0.0,0.0,0.0,0.0,0.0,0.0,0.0,0.0,0.0,0.0,0.0,0.0,0.0,0.0,0.0,0.0,0.0,0.0,0.0,0.0,0.0,0.0,0.0,0.0,0.0,0.0,0.0,0.0,0.0,0.0,0.0,0.0,0.0,0.0,0.0,0.0,0.0,0.8612,0.8616,0.8616,0.8616,0.8616,0.8608,0.0,0.0,0.0,0.0,0.0,0.0,0.0,0.0,0.0,0.0,0.0,0.0,0.0,0.0,0.0,0.0,0.0,0.0,0.0,0.0,0.0,0.0,0.0,0.0,0.0,0.0,0.0,0.0,0.0,0.0,0.0,0.0,0.0,0.0,0.0,0.0,0.0,0.0,0.0,0.0,0.0,0.0,0.0,0.0,0.0,0.0,0.0,0.0,0.0,0.0,0.0,0.0,0.0,0.0,0.0,0.0,0.0,0.0,0.0,0.0,0.0,0.0,0.0,0.0,0.0,0.0,0.0,0.0,0.0,0.0,0.0,0.0,0.0,0.0,0.0,0.0,0.0,0.0,0.0,0.0,0.0,0.0,0.0,0.0,0.0,0.0,0.0,0.0,0.0,0.0,0.0,0.0,0.0,0.0,0.0,0.0,0.0,0.0,0.0,0.0,0.0,0.0,0.0,0.0,0.0,0.0,0.0,0.0,0.0,0.8616,0.8616,0.8616,0.8616,0.8656,0.8696,0.874,0.0,0.0,0.0,0.0,0.0,0.0,0.0,0.0,0.0,0.0,0.0,0.0,0.0,0.0,0.0,0.0,0.0,0.0,0.0,0.0,0.0,0.0,0.0,0.0,0.0,0.0,0.0,0.0,0.0,0.0,0.0,0.0,0.0,0.0,0.0,0.0,0.0,0.0,0.0,0.0,0.0,0.0,0.0,0.0,0.0,0.0,0.0,0.0,0.0,0.0,0.0,0.0,0.0,0.0,0.0,0.0,0.0,0.0,0.0,0.0,0.0,0.0,0.0,0.0,0.0,0.0,0.0,0.0,0.0,0.0,0.0,0.0,0.0,0.0,0.0,0.0,0.0,0.0,0.0,0.0,0.0,0.0,0.0,0.0,0.0,0.0,0.0,0.0,0.0,0.0,0.0,0.0,0.0,0.0,0.0,0.0,0.0,0.0,0.0,0.0,0.0,0.0,0.0,0.0,0.0,0.0,0.0,0.0,0.8616,0.8612,0.8608,0.8568,0.8784,0.8867,0.0,0.0,0.0,0.0,0.0,0.0,0.0,0.0,0.0,0.0,0.0,0.0,0.0,0.0,0.0,0.0,0.0,0.0,0.0,0.0,0.0,0.0,0.0,0.0,0.0,0.0,0.0,0.0,0.0,0.0,0.0,0.0,0.0,0.0,0.0,0.0,0.0,0.0,0.0,0.0,0.0,0.0,0.0,0.0,0.0,0.0,0.0,0.0,0.0,0.0,0.0,0.0,0.0,0.0,0.0,0.0,0.0,0.0,0.0,0.0,0.0,0.0,0.0,0.0,0.0,0.0,0.0,0.0,0.0,0.0,0.0,0.0,0.0,0.0,0.0,0.0,0.0,0.0,0.0,0.0,0.0,0.0,0.0,0.0,0.0,0.0,0.0,0.0,0.0,0.0,0.0,0.0,0.0,0.0,0.0,0.0,0.0,0.0,0.0,0.0,0.0,0.0,0.0,0.0,0.0,0.0,0.0,0.0,0.0,0.8608,0.874,0.856,0.8032,0.8432,0.8604,0.0,0.0,0.0,0.0,0.0,0.0,0.0,0.0,0.0,0.0,0.0,0.0,0.0,0.0,0.0,0.0,0.0,0.0,0.0,0.0,0.0,0.0,0.0,0.0,0.0,0.0,0.0,0.0,0.0,0.0,0.0,0.0,0.0,0.0,0.0,0.0,0.0,0.0,0.0,0.0,0.0,0.0,0.0,0.0,0.0,0.0,0.0,0.0,0.0,0.0,0.0,0.0,0.0,0.0,0.0,0.0,0.0,0.0,0.0,0.0,0.0,0.0,0.0,0.0,0.0,0.0,0.0,0.0,0.0,0.0,0.0,0.0,0.0,0.0,0.0,0.0,0.0,0.0,0.0,0.0,0.0,0.0,0.0,0.0,0.0,0.0,0.0,0.0,0.0,0.0,0.0,0.0,0.0,0.0,0.0,0.0,0.0,0.0,0.0,0.0,0.0,0.0,0.0,0.0,0.0,0.0,0.0,0.0,0.8955,0.874,0.8823,0.8512,0.7716,0.8248,0.8644,0.0,0.0,0.0,0.0,0.0,0.0,0.0,0.0,0.0,0.0,0.0,0.0,0.0,0.0,0.0,0.0,0.0,0.0,0.0,0.0,0.0,0.0,0.0,0.0,0.0,0.0,0.0,0.0,0.0,0.0,0.0,0.0,0.0,0.0,0.0,0.0,0.0,0.0,0.0,0.0,0.0,0.0,0.0,0.0,0.0,0.0,0.0,0.0,0.0,0.0,0.0,0.0,0.0,0.0,0.0,0.0,0.0,0.0,0.0,0.0,0.0,0.0,0.0,0.0,0.0,0.0,0.0,0.0,0.0,0.0,0.0,0.0,0.0,0.0,0.0,0.0,0.0,0.0,0.0,0.0,0.0,0.0,0.0,0.0,0.0,0.0,0.0,0.0,0.0,0.0,0.0,0.0,0.0,0.0,0.0,0.0,0.0,0.0,0.0,0.0,0.0,0.0,0.0,0.0,0.0,0.0,0.0,0.0,0.9218,0.8955,0.8955,0.8596,0.7753,0.8237,0.8811,0.0,0.0,0.0,0.0,0.0,0.0,0.0,0.0,0.0,0.0,0.0,0.0,0.0,0.0,0.0,0.0,0.0,0.0,0.0,0.0,0.0,0.0,0.0,0.0,0.0,0.0,0.0,0.0,0.0,0.0,0.0,0.0,0.0,0.0,0.0,0.0,0.0,0.0,0.0,0.0,0.0,0.0,0.0,0.0,0.0,0.0,0.0,0.0,0.0,0.0,0.0,0.0,0.0,0.0,0.0,0.0,0.0,0.0,0.0,0.0,0.0,0.0,0.0,0.0,0.0,0.0,0.0,0.0,0.0,0.0,0.0,0.0,0.0,0.0,0.0,0.0,0.0,0.0,0.0,0.0,0.0,0.0,0.0,0.0,0.0,0.0,0.0,0.0,0.0,0.0,0.0,0.0,0.0,0.0,0.0,0.0,0.0,0.0,0.0,0.0,0.0,0.0,0.0,0.0,0.0,0.0,0.0,0.0,0.9428,0.9257,0.9388,0.934,0.9161,0.8903,0.8596,0.0,0.0,0.0,0.0,0.0,0.0,0.0,0.0,0.0,0.0,0.0,0.0,0.0,0.0,0.0,0.0,0.0,0.0,0.0,0.0,0.0,0.0,0.0,0.0,0.0,0.0,0.0,0.0,0.0,0.0,0.0,0.0,0.0,0.0,0.0,0.0,0.0,0.0,0.0,0.0,0.0,0.0,0.0,0.0,0.0,0.0,0.0,0.0,2.2921,0.0,0.0,0.0,0.0,0.0,0.0,0.0,0.0,0.0,0.0,0.0,0.0,0.0,0.0,0.0,0.0,0.0,0.0,0.0,0.0,0.0,0.0,0.0,0.0,0.0,0.0,0.0,0.0,0.0,0.0,0.0,0.0,0.0,0.0,0.0,0.0,0.0,0.0,0.0,0.0,0.0,0.0,0.0,0.0,0.0,0.0,0.0,0.0,0.0,0.0,0.0,0.0,0.0,0.0,0.0,0.0,0.0,0.0,0.0,0.9607,0.9305,0.9519,0.9428,0.9117,0.9165,0.9122,0.0,0.0,0.0,0.0,0.0,0.0,0.0,0.0,0.0,0.0,0.0,0.0,0.0,0.0,0.0,0.0,0.0,0.0,0.0,0.0,0.0,0.0,0.0,0.0,0.0,0.0,0.0,0.0,0.0,0.0,0.0,0.0,0.0,0.0,0.0,0.0,0.0,0.0,0.0,0.0,0.0,0.0,0.0,0.0,0.0,0.0,0.0,0.0,0.0,0.0,0.0,0.0,0.0,0.0,0.0,0.0,0.0,0.0,0.0,0.0,0.0,0.0,0.0,0.0,0.0,0.0,0.0,0.0,0.0,0.0,0.0,0.0,0.0,0.0,0.0,0.0,0.0,0.0,0.0,0.0,0.0,0.0,0.0,0.0,0.0,0.0,0.0,0.0,0.0,0.0,0.0,0.0,0.0,0.0,0.0,0.0,0.0,0.0,0.0,0.0,0.0,0.0,0.0,0.0,0.0,0.0,0.0,0.9825,0.9777,0.9432,0.9515,0.9297,0.8763,0.9336,0.9777,0.9994,0.0,0.0,0.0,0.0,0.0,0.0,0.0,0.0,0.0,0.0,0.0,0.0,0.0,0.0,0.0,0.0,0.0,0.0,0.0,0.0,0.0,0.0,0.0,0.0,0.0,0.0,0.0,0.0,0.0,0.0,0.0,0.0,0.0,0.0,0.0,0.0,0.0,0.0,2.5579,2.4978,0.0,0.0,0.0,0.0,0.0,0.0,0.0,0.0,2.1105,0.0,0.0,0.0,0.0,0.0,0.0,0.0,0.0,0.0,0.0,0.0,0.0,0.0,0.0,0.0,0.0,0.0,0.0,0.0,0.0,0.0,0.0,0.0,0.0,0.0,0.0,0.0,0.0,0.0,0.0,0.0,0.0,0.0,0.0,0.0,0.0,0.0,0.0,0.0,0.0,0.0,0.0,0.0,0.0,0.0,0.0,0.0,0.0,0.0,0.0,0.0,0.0,0.0,0.0,0.0,0.0,0.9907,0.9777,0.9738,0.9864,0.9689,0.9646,0.9728,0.9864,0.9951,0.999,0.0,0.0,0.0,0.0,0.0,0.0,0.0,0.0,0.0,0.0,0.0,0.0,0.0,0.0,0.0,0.0,0.0,0.0,0.0,0.0,0.0,0.0,0.0,0.0,0.0,0.0,0.0,0.0,0.0,0.0,0.0,0.0,0.0,0.0,0.0,0.0,0.0,0.0,0.0,2.4583,2.4507,0.0,0.0,0.0,0.0,0.0,0.0,0.0,0.0,2.1204,0.0,0.0,0.0,0.0,0.0,0.0,0.0,0.0,0.0,0.0,0.0,0.0,0.0,0.0,0.0,0.0,0.0,0.0,0.0,0.0,0.0,0.0,0.0,0.0,0.0,0.0,0.0,0.0,0.0,0.0,0.0,0.0,0.0,0.0,0.0,0.0,0.0,0.0,0.0,0.0,0.0,0.0,0.0,0.0,0.0,0.0,0.0,0.0,0.0,0.0,0.0,0.0,0.0,0.0,0.0,0.9994,0.9864,0.982,0.982,0.982,0.9777,0.9777,0.9951,0.9994,0.0,0.0,0.0,0.0,0.0,0.0,0.0,0.0,0.0,0.0,0.0,0.0,0.0,0.0,0.0,0.0,0.0,0.0,0.0,0.0,0.0,0.0,0.0,0.0,0.0,0.0,0.0,0.0,0.0,0.0,0.0,0.0,0.0,0.0,0.0,0.0,0.0,0.0,0.0,0.0,2.4507,2.4507,2.4507,0.0,0.0,0.0,0.0,0.0,0.0,2.2006,2.1204,0.0,0.0,0.0,0.0,0.0,0.0,0.0,0.0,0.0,0.0,0.0,0.0,0.0,0.0,0.0,0.0,0.0,0.0,0.0,0.0,0.0,0.0,0.0,0.0,0.0,0.0,0.0,0.0,0.0,0.0,0.0,0.0,0.0,0.0,0.0,0.0,0.0,0.0,0.0,0.0,0.0,0.0,0.0,0.0,0.0,0.0,0.0,0.0,0.0,0.0,0.0,0.0,0.0,0.0,0.0,1.0038,0.9951,0.9868,0.9689,0.9825,0.9868,0.9689,0.9907,0.9994,0.0,0.0,0.0,0.0,0.0,0.0,0.0,0.0,0.0,0.0,0.0,0.0,0.0,0.0,0.0,0.0,0.0,0.0,0.0,0.0,0.0,0.0,0.0,0.0,0.0,0.0,0.0,0.0,0.0,0.0,0.0,0.0,0.0,0.0,0.0,0.0,0.0,0.0,0.0,0.0,0.0,2.4507,2.4507,2.4507,0.0,0.0,0.0,0.0,2.1872,2.1695,0.0,0.0,0.0,0.0,0.0,0.0,0.0,0.0,0.0,0.0,0.0,0.0,0.0,0.0,0.0,0.0,0.0,0.0,0.0,0.0,0.0,0.0,0.0,0.0,0.0,0.0,0.0,0.0,0.0,0.0,0.0,0.0,0.0,0.0,0.0,0.0,0.0,0.0,0.0,0.0,0.0,0.0,0.0,0.0,0.0,0.0,0.0,0.0,0.0,0.0,0.0,0.0,0.0,0.0,0.0,0.0,0.9994,0.9728,0.9728,0.9951,0.9777,0.9738,0.9951,0.9994,0.9994,0.0,0.0,0.0,0.0,0.0,0.0,0.0,0.0,0.0,0.0,0.0,0.0,0.0,0.0,0.0,0.0,0.0,0.0,0.0,0.0,0.0,0.0,0.0,0.0,0.0,0.0,0.0,0.0,0.0,0.0,0.0,0.0,0.0,0.0,0.0,0.0,0.0,0.0,0.0,0.0,0.0,2.4507,2.4507,2.4507,2.4507,0.0,0.0,2.3744,2.1961,2.1695,0.0,0.0,0.0,0.0,0.0,0.0,0.0,0.0,0.0,0.0,0.0,0.0,0.0,0.0,0.0,0.0,0.0,0.0,0.0,0.0,0.0,0.0,0.0,0.0,0.0,0.0,0.0,0.0,0.0,0.0,0.0,0.0,0.0,0.0,0.0,0.0,0.0,0.0,0.0,0.0,0.0,0.0,0.0,0.0,0.0,0.0,0.0,0.0,0.0,0.0,0.0,0.0,0.0,0.0,0.0,1.1456,1.0766,1.0381,1.0207,1.0332,0.9994,0.9994,1.0337,1.0337,1.074,0.0,0.0,0.0,0.0,0.0,0.0,0.0,0.0,0.0,0.0,0.0,0.0,0.0,0.0,0.0,0.0,0.0,0.0,0.0,0.0,0.0,0.0,0.0,0.0,0.0,0.0,0.0,0.0,0.0,0.0,0.0,0.0,0.0,0.0,0.0,0.0,0.0,0.0,0.0,0.0,0.0,0.0,2.4507,2.4714,0.0,0.0,0.0,2.3123,2.2564,0.0,0.0,0.0,0.0,0.0,0.0,0.0,0.0,0.0,0.0,0.0,0.0,0.0,0.0,0.0,0.0,0.0,0.0,0.0,0.0,0.0,0.0,0.0,0.0,0.0,0.0,0.0,0.0,0.0,0.0,0.0,0.0,0.0,0.0,0.0,0.0,0.0,0.0,0.0,0.0,0.0,0.0,0.0,0.0,0.0,0.0,0.0,0.0,0.0,0.0,0.0,0.0,0.0,0.0,0.0,0.0,0.0,1.1537,1.102,1.0847,1.1025,1.0727,1.0809,1.1273,1.1273,0.0,0.0,0.0,0.0,0.0,0.0,0.0,0.0,0.0,0.0,0.0,0.0,0.0,0.0,0.0,0.0,0.0,0.0,0.0,0.0,0.0,0.0,0.0,0.0,0.0,0.0,0.0,2.381,0.0,0.0,0.0,0.0,0.0,0.0,0.0,0.0,0.0,0.0,0.0,0.0,0.0,0.0,2.4538,2.4652,2.4972,2.5096,0.0,0.0,2.2789,2.2913,2.1428,2.0348,0.0,0.0,0.0,0.0,0.0,0.0,0.0,0.0,0.0,0.0,0.0,0.0,0.0,0.0,0.0,0.0,0.0,0.0,0.0,0.0,0.0,0.0,0.0,0.0,0.0,0.0,0.0,0.0,0.0,0.0,0.0,0.0,0.0,0.0,0.0,0.0,0.0,0.0,0.0,0.0,0.0,0.0,0.0,0.0,0.0,0.0,0.0,0.0,0.0,0.0,0.0,0.0,0.0,0.0,0.0,1.2229,1.158,1.1585,1.2137,1.2186,1.2431,1.3099,1.3142,1.3352,0.0,0.0,0.0,0.0,0.0,0.0,0.0,0.0,0.0,0.0,0.0,0.0,0.0,0.0,0.0,0.0,0.0,0.0,0.0,0.0,0.0,0.0,0.0,0.0,0.0,0.0,0.0,0.0,0.0,0.0,0.0,0.0,0.0,0.0,0.0,0.0,0.0,0.0,0.0,0.0,0.0,2.4652,2.5075,2.5168,2.5368,0.0,0.0,2.3416,2.2592,2.1264,2.0339,2.0548,0.0,0.0,0.0,0.0,0.0,0.0,0.0,0.0,0.0,0.0,0.0,0.0,0.0,0.0,0.0,0.0,0.0,0.0,0.0,0.0,0.0,0.0,0.0,0.0,0.0,0.0,0.0,0.0,0.0,0.0,0.0,0.0,0.0,0.0,0.0,0.0,0.0,0.0,0.0,0.0,0.0,0.0,0.0,0.0,0.0,0.0,0.0,0.0,0.0,0.0,0.0,0.0,0.0,1.4358,1.4137,1.3363,1.3112,1.3324,1.3069,1.319,1.3698,1.374,1.4267,0.0,0.0,0.0,0.0,0.0,0.0,0.0,0.0,0.0,0.0,0.0,0.0,0.0,0.0,0.0,0.0,0.0,0.0,0.0,0.0,0.0,0.0,0.0,0.0,0.0,0.0,0.0,0.0,2.4903,2.5158,2.5115,0.0,0.0,0.0,0.0,0.0,0.0,0.0,0.0,0.0,0.0,2.5408,2.563,2.6136,0.0,0.0,2.564,2.5087,2.5073,2.3355,2.2187,2.2633,2.264,0.0,0.0,0.0,0.0,0.0,0.0,0.0,0.0,0.0,0.0,0.0,0.0,0.0,0.0,0.0,0.0,0.0,0.0,0.0,0.0,0.0,0.0,0.0,0.0,0.0,0.0,0.0,0.0,0.0,0.0,0.0,0.0,0.0,0.0,0.0,0.0,0.0,0.0,0.0,0.0,0.0,0.0,0.0,0.0,0.0,0.0,0.0,0.0,0.0,0.0,0.0,0.0,1.5627,1.5627,1.4669,1.43,1.451,1.4203,1.4245,1.4796,1.4796,1.538,0.0,0.0,0.0,0.0,0.0,0.0,0.0,0.0,0.0,0.0,0.0,0.0,0.0,0.0,0.0,0.0,0.0,0.0,0.0,0.0,0.0,0.0,0.0,0.0,0.0,0.0,0.0,0.0,2.5084,2.5327,2.5411,0.0,0.0,0.0,0.0,0.0,0.0,0.0,0.0,0.0,0.0,2.6019,2.6285,2.687,2.7278,2.7118,2.6423,2.6043,2.6417,2.4665,2.356,2.4366,0.0,0.0,0.0,0.0,0.0,0.0,0.0,0.0,0.0,0.0,0.0,0.0,0.0,0.0,0.0,0.0,0.0,0.0,0.0,0.0,0.0,0.0,0.0,0.0,0.0,0.0,0.0,0.0,0.0,0.0,1.6087,0.0,0.0,0.0,0.0,0.0,0.0,0.0,0.0,0.0,0.0,0.0,0.0,0.0,0.0,0.0,0.0,0.0,0.0,0.0,0.0,0.0,0.0,1.6299,1.6292,1.5275,1.5026,1.565,1.565,1.5948,1.6566,1.6607,1.6822,1.727,0.0,0.0,0.0,0.0,0.0,0.0,0.0,0.0,0.0,0.0,0.0,0.0,0.0,0.0,0.0,0.0,0.0,0.0,0.0,0.0,0.0,0.0,0.0,0.0,0.0,0.0,2.52,2.5422,2.5644,0.0,0.0,0.0,0.0,0.0,0.0,0.0,0.0,0.0,0.0,2.5902,2.6243,2.7104,2.731,2.7501,2.787,2.6806,2.5959,2.5995,2.4768,2.4208,0.0,0.0,0.0,0.0,0.0,0.0,0.0,0.0,0.0,0.0,0.0,0.0,0.0,0.0,0.0,0.0,0.0,0.0,0.0,0.0,0.0,0.0,0.0,0.0,0.0,0.0,0.0,1.5824,1.6128,0.0,0.0,0.0,0.0,0.0,0.0,0.0,0.0,0.0,0.0,0.0,1.673,1.7302,0.0,0.0,0.0,0.0,0.0,0.0,0.0,0.0,0.0,0.0,0.0,0.0,1.7604,1.727,1.648,1.6154,1.636,1.6353,1.6484,1.6689,1.6689,1.7008,1.7588,0.0,0.0,0.0,0.0,0.0,0.0,0.0,0.0,0.0,0.0,0.0,0.0,0.0,0.0,0.0,0.0,0.0,0.0,0.0,0.0,0.0,0.0,0.0,0.0,0.0,2.5675,0.0,0.0,0.0,0.0,0.0,0.0,0.0,0.0,0.0,0.0,0.0,2.6184,2.6336,2.6898,2.7396,2.772,2.808,2.8375,0.0,0.0,0.0,0.0,0.0,0.0,0.0,0.0,0.0,0.0,0.0,0.0,0.0,0.0,2.6476,2.6388,2.6125,2.5895,2.5895,0.0,0.0,0.0,0.0,0.0,0.0,0.0,0.0,0.0,0.0,0.0,0.0,0.0,0.0,1.6255,0.0,1.6497,0.0,0.0,0.0,0.0,0.0,0.0,0.0,0.0,1.7614,1.773,1.7589,1.8169,1.8192,0.0,1.8106,1.8069,0.0,0.0,0.0,0.0,0.0,0.0,0.0,0.0,1.8536,1.8087,1.7482,1.7139,1.7139,1.7139,1.7139,1.7139,1.7139,1.754,1.8378,1.8554,1.8991,0.0,0.0,0.0,0.0,0.0,0.0,0.0,0.0,0.0,0.0,0.0,0.0,0.0,0.0,0.0,0.0,0.0,0.0,0.0,0.0,0.0,0.0,0.0,2.5895,0.0,0.0,0.0,0.0,0.0,0.0,0.0,0.0,0.0,2.6254,2.6573,2.6889,2.7053,2.7609,2.8056,2.8265,0.0,0.0,0.0,0.0,0.0,0.0,0.0,2.8422,2.875,2.8095,2.7622,2.7832,2.7842,2.7818,2.7818,0.0,0.0,2.6911,2.6616,2.6387,2.6387,2.6267,2.6147,2.6157,2.6016,2.5895,0.0,0.0,0.0,0.0,0.0,0.0,0.0,0.0,1.7071,1.7066,0.0,1.6978,0.0,0.0,0.0,0.0,0.0,1.7319,0.0,0.0,1.8438,1.8835,1.9153,1.9196,1.9032,1.8655,1.8647,1.8688,1.8629,1.8629,0.0,0.0,0.0,0.0,0.0,0.0,1.9016,1.8596,1.8188,1.8,1.7991,1.7991,1.8,1.7991,1.8,1.8487,1.9429,1.9931,2.0607,2.156,2.2119,0.0,0.0,0.0,0.0,0.0,0.0,0.0,0.0,0.0,0.0,0.0,0.0,0.0,0.0,0.0,0.0,0.0,0.0,0.0,0.0,2.577,0.0,0.0,0.0,0.0,0.0,0.0,0.0,0.0,0.0,0.0,2.6888,2.7141,2.7456,2.7914,0.0,0.0,0.0,0.0,2.8803,2.8803,2.8803,2.8803,2.8803,2.8803,2.8792,2.8792,0.0,0.0,2.8023,2.844,2.8771,2.8781,2.8353,2.7871,2.7457,2.7315,2.7261,2.7261,2.6933,2.6628,2.6584,2.6321,2.6016,1.7417,0.0,0.0,0.0,0.0,1.7306,1.7445,1.7481,1.738,1.7455,1.7706,1.8235,0.0,0.0,0.0,0.0,0.0,0.0,1.9249,1.8897,1.9329,1.9424,1.9221,1.9827,1.9943,1.9541,1.9793,1.9826,1.9556,1.9547,1.9433,1.9272,0.0,0.0,0.0,0.0,1.9042,1.8612,1.822,1.7991,1.7991,1.7991,1.7991,1.7991,1.8456,1.8954,1.9461,2.0012,2.0712,2.1575,2.2582,0.0,0.0,0.0,0.0,0.0,0.0,0.0,0.0,0.0,0.0,0.0,0.0,0.0,0.0,0.0,0.0,0.0,0.0,0.0,2.5812,2.5853,2.5895,0.0,0.0,0.0,0.0,0.0,0.0,0.0,0.0,0.0,2.8176,2.7963,2.7838,0.0,0.0,2.8639,2.8781,2.8803,2.8803,2.8803,2.8803,0.0,2.8803,2.8803,2.8803,2.8803,2.8683,2.8549,2.8596,2.8716,2.8803,2.8803,2.8694,2.8495,2.8342,2.7763,2.7359,2.7304,2.7206,2.7119,2.7108,2.6988,2.6889,1.8565,1.8362,1.8037,1.785,1.779,1.7932,1.8244,1.8576,1.8446,1.8715,1.9255,1.9196,1.9511,2.0087,2.0624,0.0,0.0,0.0,2.082,2.0543,2.102,2.1146,2.1081,2.1289,2.1215,2.0835,2.075,2.0549,2.0131,2.0122,1.9909,1.9437,0.0,0.0,1.9437,1.9508,1.9302,1.8889,1.8861,1.8865,1.8865,1.9134,1.9292,1.9292,1.9678,2.0066,2.0512,2.1064,2.1699,2.2409,2.3526,2.4221,0.0,0.0,0.0,0.0,0.0,0.0,0.0,0.0,0.0,0.0,0.0,2.5895,2.5895,0.0,0.0,0.0,2.5895,2.5895,2.5895,2.5895,0.0,0.0,0.0,0.0,0.0,0.0,0.0,2.725,2.7708,2.8202,2.8704,2.8523,2.832,2.832,2.8617,2.8803,2.8803,0.0,2.9071,2.9082,2.9209,2.929,2.9154,2.9268,2.9347,2.9347,2.9347,2.9347,2.9347,2.9347,2.9347,2.9347,2.9347,2.9347,2.9359,2.8846,2.8277,2.7962,2.7909,2.7833,2.7655,2.7767,2.7755,1.9965,2.0292,1.9204,1.8789,1.892,1.8958,1.9538,2.0314,2.0067,2.0517,2.1435,2.0186,2.0304,2.1604,2.1636,0.0,2.1595,2.2038,2.2389,2.2702,2.307,2.3461,2.379,2.3212,2.2756,2.2444,2.1749,2.1191,2.0852,2.0773,2.0569,2.0216,2.0142,2.0033,1.992,1.992,1.9767,1.9499,2.004,2.0352,2.0391,2.0972,2.128,2.127,2.1357,2.1624,2.2187,2.2643,2.3206,2.3782,2.4693,2.5209,2.5308,0.0,0.0,0.0,0.0,0.0,0.0,0.0,0.0,0.0,0.0,0.0,0.0,0.0,0.0,0.0,2.5895,0.0,2.595,2.5972,0.0,0.0,0.0,2.6802,2.7261,2.7348,2.75,2.7936,0.0,0.0,2.8749,2.885,2.885,2.885,2.885,2.8839,2.8896,2.9301,2.9588,2.9531,2.9897,3.0091,2.9852,3.0,3.0193,3.0125,3.0216,3.017,3.017,3.017,3.017,3.017,3.0216,3.017,3.0216,3.0079,2.9932,2.9073,2.89,2.8791,2.8352,2.8543,2.8421,2.051,2.1024,2.0754,2.0365,1.9965,2.0492,2.0844,2.1096,2.1557,2.1907,2.2205,2.2553,2.3298,2.4294,2.4472,2.4262,2.3786,2.4051,2.3985,2.3553,2.3596,2.3915,2.4317,2.4198,2.4212,2.4386,2.4249,2.3907,2.3536,2.3114,2.2928,2.2884,2.2115,2.1208,2.0163,2.0123,2.0449,2.1125,2.1278,2.1507,2.1811,2.1962,2.2027,2.2038,2.2537,2.2883,2.3005,2.3572,2.4089,2.46,2.4839,2.5326,2.6075,2.5923,0.0,0.0,0.0,0.0,0.0,0.0,0.0,0.0,0.0,2.5895,2.5895,0.0,2.5895,0.0,2.5895,2.6048,2.6377,2.6452,0.0,0.0,2.7151,2.7151,2.7293,2.7587,2.7871,2.798,2.8353,2.8672,2.8792,2.9117,2.9347,2.9347,2.9347,2.9439,2.9806,2.9943,3.0034,3.0034,3.0159,3.0284,3.0421,3.0501,3.0489,3.0227,3.0216,3.0216,3.0216,3.0216,3.0216,3.0216,3.0216,3.0216,3.0193,3.0216,3.0159,2.9943,2.9886,2.9818,2.9716,2.9452,2.9164,2.2229,2.2969,2.2969,2.2761,2.241,2.1978,2.2022,2.2429,2.2867,2.3337,2.3856,2.4435,2.4712,2.4754,2.5422,2.5506,2.5158,2.5285,2.5189,2.4988,2.5031,2.5253,2.5673,2.5379,2.5261,2.5233,2.489,2.4479,2.4064,2.3758,2.3565,2.3431,2.2853,2.2237,2.1603,2.1298,2.1441,2.1962,2.2264,2.2649,2.3143,2.3143,2.3143,2.3143,2.3486,2.368,2.368,2.4032,2.4326,2.459,2.5027,2.5406,2.5711,2.6177,2.6564,0.0,0.0,0.0,0.0,0.0,0.0,0.0,0.0,0.0,0.0,0.0,2.6265,2.6497,2.635,2.642,2.6846,2.6944,2.7206,2.7911,2.7955,2.8032,2.8242,2.8688,2.8901,2.8673,2.9134,2.9439,2.9439,2.968,2.9897,3.0091,3.0125,3.0125,3.0216,3.0352,3.0499,3.0532,3.0713,3.0916,3.1121,3.1133,3.1052,3.0916,3.0847,3.0777,3.0554,3.0507,3.0437,3.0214,3.0168,3.0168,3.0168,3.0168,3.0156,3.0168,3.0168,3.0073,2.987,2.979,2.9557,2.4168,2.5018,2.5039,2.5102,2.5125,2.3564,2.3365,2.4092,2.4135,2.4754,2.5812,2.5979,2.5485,2.4563,2.558,2.6063,2.6063,2.6063,2.626,2.6569,2.6502,2.6755,2.7163,2.6524,2.601,2.5585,2.4908,2.4379,2.3931,2.3867,2.3702,2.3425,2.3285,2.3372,2.3612,2.2995,2.2664,2.2627,2.3243,2.3815,2.4334,2.4334,2.4334,2.4334,2.4334,2.4334,2.4334,2.4334,2.4345,2.4368,2.5246,2.5619,2.5324,2.6561,2.7203,0.0,2.7779,0.0,0.0,0.0,0.0,0.0,0.0,0.0,0.0,2.6903,2.6891,2.7341,2.7058,2.7074,2.7536,2.758,2.7955,2.8858,2.8959,2.9128,2.9567,2.9943,3.0034,2.9623,2.9943,3.0216,3.017,3.025,3.0442,3.0758,3.0904,3.0859,3.0532,3.0758,3.0994,3.0982,3.1403,3.1553,3.1472,3.1536,3.1476,3.1564,3.1503,3.1462,3.1089,3.1016,3.0883,3.047,3.0452,3.0373,3.0325,3.0349,3.0349,3.0439,3.0379,3.014,2.9717,2.9753,2.9553,2.3993,2.4679,2.469,2.5241,2.6113,2.5768,2.5675,2.5757,2.5924,2.6351,2.6899,2.694,2.6846,2.6629,2.6846,2.694,2.694,2.694,2.6981,2.7051,2.6599,2.6696,2.7069,2.6543,2.6426,2.66,2.6473,2.635,2.6244,2.5798,2.5763,2.6106,2.5283,2.5085,2.5538,0.0,0.0,0.0,2.4707,2.4981,2.5099,2.5099,2.5099,2.5099,2.5099,0.0,2.5099,2.5099,2.5099,2.5123,2.5695,0.0,0.0,0.0,0.0,0.0,0.0,0.0,0.0,0.0,0.0,0.0,2.8593,2.8023,2.7267,2.7511,2.7756,2.7847,2.8163,2.8576,2.9031,2.9088,2.9293,2.9874,2.9931,2.9988,3.0068,3.017,3.017,3.008,3.017,3.0216,3.0283,3.0532,3.0791,3.0923,3.125,3.1484,3.1415,3.1436,3.1516,3.156,3.1615,3.1563,3.1091,3.0985,3.1046,3.1073,3.1149,3.129,3.159,3.1634,3.1675,3.1486,3.1564,3.1498,3.1486,3.1564,3.1407,3.1511,3.1198,3.0698,3.0098,2.9684,2.9371,2.5138,0.0,2.5735,2.6089,0.0,2.6461,2.6394,2.6553,2.6764,2.6969,2.7174,2.7174,2.7174,2.7174,2.7174,2.7174,2.7162,2.6921,2.6938,2.7115,2.6604,2.6578,2.7002,2.6702,2.6554,2.6489,2.6514,2.6382,2.6093,2.5853,2.5853,2.6081,2.5576,2.5444,2.5697,2.5527,2.5324,2.5052,2.5206,2.5312,2.5312,2.5312,2.5312,2.5312,2.5312,0.0,0.0,0.0,0.0,0.0,0.0,0.0,0.0,0.0,0.0,2.9882,3.0239,3.038,3.033,3.0582,3.0507,2.9909,2.9626,2.9081,2.8063,2.8769,2.9369,2.9617,2.9941,3.0197,3.0299,3.0325,3.0386,3.0531,3.0532,3.0532,3.0578,3.0802,3.0847,3.0634,3.0758,3.0932,3.0958,3.1196,3.1336,3.1363,3.1327,3.1394,3.1363,3.1312,3.1334,3.1357,3.1612,3.1675,3.1464,3.1361,3.1297,3.1427,3.1442,3.1451,3.1465,3.1493,3.1442,3.1174,3.1097,3.1097,3.1136,3.1136,3.1084,3.1072,3.0906,3.0623,3.0269,2.9988,2.9789,2.6347,2.6721,2.6733,2.6781,2.6828,2.6516,2.6614,2.7033,0.0,0.0,0.0,2.7163,2.7163,2.7163,2.7163,2.7123,2.7088,2.6695,2.6694,2.7022,2.6514,2.6429,2.6741,2.6657,2.6357,2.5973,2.5985,2.5781,2.5359,2.5382,2.5382,2.5418,2.5418,2.5441,2.5581,2.5873,2.5965,2.5779,2.5546,2.5418,2.5418,2.5418,2.5418,2.5418,2.5511,2.5581,2.5581,2.6295,2.6892,2.7321,2.8349,2.8936,2.9217,3.0064,3.0413,3.0134,3.1029,3.1318,3.0771,3.1182,3.1145,3.0507,3.0469,3.0063,2.9143,3.0074,3.0867,3.1216,3.1468,3.1491,3.1327,3.1332,3.1268,3.1097,3.1085,3.1085,3.1085,3.146,3.153,3.1217,3.1443,3.1767,3.1779,3.1801,3.1859,3.1813,3.1502,3.1119,3.1025,3.0977,3.1058,3.1245,3.1631,3.18,3.1745,3.1672,3.1818,3.1703,3.1716,3.1653,3.1397,3.1293,3.1099,3.0928,3.0646,3.071,3.0684,3.0786,3.0633,3.062,3.0633,3.0633,3.0633,3.0633,3.0583,2.6,2.6026,2.6026,2.6295,2.6724,2.6675,2.6944,2.7384,2.7079,2.6912,2.6924,2.695,2.6962,2.695,2.6962,2.6962,2.6912,2.684,2.688,2.6894,2.6355,2.614,2.619,2.5745,2.5504,2.5432,2.5609,2.5643,2.5571,2.5758,2.584,2.5828,2.584,2.6117,2.6697,2.7324,2.7624,2.7591,2.6414,2.5828,2.584,2.5828,2.5828,2.5828,2.6368,2.6684,2.6684,2.7868,2.855,2.8669,2.9433,3.0132,3.0673,3.1238,3.1806,3.2244,3.272,3.2846,3.2403,3.2439,3.2064,3.1182,3.1071,3.0798,3.0189,3.0647,3.1084,3.1149,3.1632,3.1853,3.182,3.1817,3.1814,3.1748,3.1723,3.1751,3.1719,3.1814,3.1827,3.1703,3.1779,3.1858,3.1879,3.1868,3.1884,3.1875,3.1749,3.1591,3.1193,3.1041,3.1219,3.162,3.1883,3.177,3.1486,3.1151,3.1266,3.1258,3.1361,3.1589,3.1907,3.1954,3.1901,3.189,3.179,3.1827,3.1813,3.19,3.1827,3.179,3.1776,3.1827,3.179,3.179,3.1519,2.5923,2.5923,2.5923,2.6045,2.6279,2.6664,2.6929,2.7155,2.6978,2.6955,2.7086,2.7073,2.7073,2.7073,2.7185,2.7235,2.7211,2.6919,2.6797,2.6761,2.6226,2.6006,2.5946,2.5727,2.5804,2.6148,2.6264,2.6492,2.69,2.7002,2.7048,2.7048,2.7048,2.7204,2.7524,2.792,2.8103,2.8071,2.7404,2.7048,2.7048,2.7048,2.7048,2.7048,2.7371,2.7668,2.799,2.8846,2.9659,3.0344,3.0984,3.1602,3.2213,3.2502,3.2761,3.3023,3.3199,3.3199,3.3058,3.3023,3.2725,3.2064,3.2005,3.1813,3.1352,3.1864,3.2177,3.2193,3.2667,3.2843,3.2475,3.2435,3.2316,3.1928,3.1875,3.1875,3.1875,3.1875,3.1875,3.1875,3.1875,3.192,3.1928,3.1967,3.1993,3.2015,3.1795,3.1447,3.1213,3.1164,3.1216,3.1461,3.1549,3.1635,3.1668,3.1673,3.1649,3.174,3.174,3.1863,3.2169,3.2205,3.2205,3.2205,3.2205,3.2205,3.2205,3.2205,3.2205,3.2205,3.2205,3.2205,3.2205,3.2205,3.1973,2.6336,2.6084,2.6198,2.6267,2.6336,2.6968,2.7258,2.7258,2.7237,2.7283,2.7368,2.7091,2.6932,2.6919,2.7078,2.7152,2.7103,2.6721,2.6537,2.6488,2.6258,2.6129,2.6176,2.6302,2.6654,2.7124,2.7157,2.7491,2.7986,2.8071,2.8103,2.8149,2.8279,2.8344,2.8376,2.8602,2.8748,2.873,2.8634,2.8441,2.8117,2.8117,2.8117,2.8117,2.8279,2.8633,2.924,2.9926,3.0865,3.1957,3.2469,3.2915,3.3367,3.3409,3.3409,3.3409,3.3479,3.3514,3.3409,3.3339,3.3164,3.2881,3.2846,3.2717,3.2513,3.286,3.306,3.2974,3.3179,3.3219,3.2796,3.2694,3.2527,3.2019,3.1953,3.1967,3.1967,3.194,3.194,3.1993,3.198,3.198,3.2038,3.2071,3.2075,3.2112,3.174,3.1455,3.1418,3.1418,3.1418,3.1431,3.1431,3.1633,3.2132,3.2182,3.2132,3.2205,3.2169,3.2169,3.2205,3.2205,3.2205,3.2205,3.2205,3.2205,3.2205,3.2205,3.2205,3.2205,3.2205,3.2205,3.2205,3.2205,3.2205,2.7782,2.6782,2.7162,2.7351,2.7417,2.8084,2.8363,2.833,2.8168,2.8078,2.8,2.6647,2.6117,2.6023,2.6117,2.6212,2.6177,2.6009,2.6031,2.6124,2.6577,2.6799,2.69,2.7504,2.7822,2.792,2.8005,2.8149,2.8298,2.8427,2.8492,2.8524,2.9125,2.9435,2.9484,3.0054,3.0357,3.0387,3.0387,2.9732,2.8538,2.8473,2.846,2.846,2.9093,2.9747,3.0317,3.1554,3.2569,3.3262,3.3507,3.3699,3.3756,3.3736,3.377,3.377,3.4094,3.4162,3.377,3.3479,3.3304,3.3234,3.3234,3.322,3.3163,3.3219,3.2979,3.254,3.2391,3.2463,3.2272,3.2312,3.2293,3.2223,3.2196,3.2185,3.2179,3.2185,3.2171,3.2185,3.2209,3.2158,3.2199,3.2208,3.2191,3.2232,3.2169,3.2046,3.1973,3.2009,3.2009,3.2059,3.2096,3.2096,3.2205,3.2218,3.2277,3.2277,3.2205,3.2241,3.2241,3.2241,3.2205,3.2205,3.2205,3.2205,3.2205,3.2205,3.2205,3.2205,3.2205,3.2205,3.2205,3.2205,3.2205,2.8602,2.8071,2.8298,2.8409,2.8492,2.9097,2.938,2.938,2.9286,2.9223,2.903,2.8065,2.7484,2.7271,2.7371,2.7438,2.7425,2.7425,2.7425,2.7458,2.771,2.7841,2.7874,2.8136,2.8505,2.8903,2.8998,2.9251,2.9577,2.9687,2.9763,2.9749,3.0068,3.019,3.0221,3.0477,3.0612,3.0612,3.0612,3.0326,2.9825,2.9732,2.9763,2.9763,3.0023,3.0492,3.1108,3.1991,3.2817,3.3474,3.3931,3.4162,3.4162,3.4162,3.4162,3.4162,3.4312,3.4346,3.4162,3.4025,3.3839,3.3597,3.3597,3.3528,3.3339,3.3304,3.315,3.2932,3.2854,3.286,3.2838,3.2646,3.2467,3.2503,3.2503,3.2503,3.2467,3.2731,3.2789,3.2538,3.2516,3.2408,3.2277,3.2372,3.2467,3.2503,3.2503,3.2431,3.2241,3.2205,3.2277,3.2431,3.2503,3.2503,3.2503,3.2717,3.2789,3.2789,3.2646,3.2503,3.2467,3.23,3.2205,3.2205,3.2205,3.2205,3.2205,3.2205,3.2205,3.2205,3.2205,3.2205,3.2205,3.2205,3.2205,2.9128,2.8875,2.9139,2.9286,2.9362,3.0025,3.0313,3.0283,3.0313,3.0253,3.0099,2.9623,2.9265,2.8985,2.873,2.8556,2.857,2.862,2.8666,2.8639,2.8812,2.8894,2.8939,2.9079,2.9439,2.9901,2.9915,3.0129,3.0582,3.0642,3.0628,3.0657,3.0702,3.0732,3.0762,3.0732,3.0732,3.0732,3.0732,3.0702,3.0672,3.0657,3.0628,3.0612,3.0612,3.0872,3.1496,3.199,3.2629,3.346,3.3906,3.424,3.4399,3.438,3.438,3.438,3.438,3.438,3.438,3.438,3.4278,3.4025,3.3957,3.3879,3.3665,3.3624,3.3589,3.3616,3.3624,3.3563,3.3269,3.3023,3.2881,3.2881,3.2881,3.2846,3.2881,3.3129,3.3164,3.2903,3.2881,3.2789,3.2624,3.2717,3.2881,3.2881,3.2846,3.281,3.2588,3.2552,3.2624,3.2846,3.2952,3.2988,3.2917,3.3023,3.3269,3.3234,3.3023,3.2881,3.2846,3.2574,3.2336,3.2408,3.2314,3.2205,3.2205,3.2205,3.2205,3.2205,3.2205,3.2241,3.2205,3.2205,3.2205,2.9493,2.861,2.9511,2.9981,3.0011,3.0703,3.1058,3.0999,3.1043,3.1043,3.0984,3.0955,3.094,3.0762,2.9484,2.8821,2.8853,2.9016,2.9066,2.9129,2.9628,2.9919,2.9995,3.0448,3.0777,3.0851,3.0642,3.0568,3.0642,3.0732,3.0791,3.0806,3.0955,3.1043,3.1058,3.1058,3.1087,3.1058,3.1043,3.0984,3.0836,3.0791,3.0732,3.0642,3.0612,3.0858,3.1409,3.154,3.2135,3.3431,3.3532,3.3823,3.4327,3.4399,3.4414,3.4414,3.438,3.438,3.438,3.438,3.4366,3.4346,3.4346,3.4332,3.4249,3.423,3.423,3.4332,3.4264,3.4025,3.3479,3.3339,3.3269,3.3269,3.3269,3.3269,3.3269,3.3339,3.3304,3.3269,3.3234,3.3199,3.3213,3.3269,3.3269,3.3269,3.3269,3.3234,3.3164,3.3178,3.3213,3.3283,3.3444,3.3632,3.3374,3.3409,3.3409,3.3409,3.3444,3.3269,3.3129,3.2988,3.281,3.2632,3.2516,3.2386,3.2241,3.2205,3.2241,3.2277,3.235,3.235,3.248,3.2277,3.2277,3.0421,3.0382,3.0778,3.0955,3.0999,3.1263,3.1366,3.1351,3.1366,3.1307,3.1234,3.1234,3.119,3.1073,3.0613,3.0358,3.0282,3.0328,3.0328,3.0358,3.0583,3.0687,3.0717,3.0925,3.1028,3.1087,3.0955,3.091,3.0925,3.0955,3.0984,3.0984,3.1058,3.1087,3.1087,3.1087,3.1087,3.1087,3.1087,3.1058,3.1014,3.0984,3.0955,3.0925,3.0702,3.0684,3.0932,3.14,3.1882,3.2208,3.3106,3.3722,3.3955,3.4349,3.4597,3.4597,3.4481,3.438,3.438,3.438,3.438,3.438,3.438,3.438,3.438,3.438,3.438,3.4414,3.4414,3.423,3.4059,3.3805,3.3632,3.3632,3.3632,3.3632,3.3667,3.3805,3.3908,3.3667,3.3444,3.3374,3.3534,3.3569,3.3632,3.3632,3.3632,3.3563,3.3339,3.3304,3.3374,3.3563,3.3701,3.3839,3.4059,3.4025,3.3991,3.3908,3.3874,3.3701,3.3563,3.3304,3.3094,3.3058,3.2895,3.2717,3.2646,3.2538,3.2552,3.2552,3.2624,3.2731,3.2931,3.2753,3.2646,3.0736,3.1338,3.1564,3.1683,3.1683,3.1655,3.1641,3.1597,3.1597,3.1511,3.138,3.138,3.1336,3.1249,3.1322,3.1322,3.1249,3.122,3.1234,3.122,3.122,3.122,3.122,3.119,3.119,3.122,3.119,3.1132,3.1102,3.1132,3.1161,3.1161,3.1205,3.1249,3.122,3.122,3.122,3.1249,3.1424,3.1481,3.1467,3.161,3.168,3.1595,3.1407,3.1102,3.0791,3.1276,3.1612,3.1798,3.262,3.336,3.3786,3.4599,3.51,3.5052,3.492,3.4773,3.4754,3.4568,3.438,3.438,3.438,3.438,3.4414,3.4549,3.4635,3.4668,3.4668,3.4668,3.4568,3.4249,3.4025,3.3991,3.3991,3.3991,3.4025,3.4196,3.423,3.4059,3.3839,3.3791,3.3879,3.3962,3.3977,3.3991,3.3991,3.3874,3.3701,3.3667,3.3701,3.3942,3.4025,3.4113,3.423,3.423,3.4264,3.4196,3.4162,3.4025,3.3874,3.3632,3.3479,3.3444,3.3339,3.3164,3.3023,3.2917,3.2881,3.2917,3.2988,3.3072,3.3164,3.3234,3.3164,3.0391,3.1073,3.1708,3.1968,3.1968,3.1864,3.1881,3.1709,3.1679,3.1473,3.1299,3.1361,3.13,3.1391,3.1256,3.1391,3.1287,3.1258,3.1318,3.1467,3.1467,3.1408,3.1348,3.1232,3.1187,3.1244,3.1261,3.1174,3.1042,3.1202,3.1304,3.1349,3.1552,3.1682,3.1568,3.164,3.1582,3.171,3.2104,3.2299,3.2201,3.2598,3.2772,3.266,3.2606,3.2127,3.1234,3.1249,3.1545,3.1944,3.2166,3.271,3.4085,3.5187,3.5882,3.5866,3.5723,3.5627,3.5531,3.4957,3.4635,3.4635,3.4501,3.4568,3.4654,3.4938,3.5201,3.5201,3.5201,3.5201,3.5103,3.4721,3.4399,3.4414,3.4366,3.4433,3.438,3.438,3.438,3.4346,3.4264,3.438,3.438,3.4346,3.4346,3.4399,3.438,3.4366,3.4332,3.4298,3.4346,3.4346,3.4312,3.4298,3.4346,3.438,3.4399,3.4399,3.438,3.4278,3.4196,3.4025,3.3874,3.3805,3.3563,3.3374,3.3374,3.3269,3.3269,3.3304,3.3374,3.3548,3.3742,3.3845,3.3707,3.0388,3.104,3.1723,3.2012,3.1936,3.1511,3.1286,3.1213,3.0761,3.0522,3.048,3.0452,3.0452,3.044,3.0358,3.0361,3.0318,3.0278,3.0657,3.1346,3.1466,3.124,3.0881,3.075,3.0541,3.0238,3.0165,3.0288,3.0637,3.1095,3.15,3.1871,3.2365,3.2664,3.2563,3.268,3.268,3.2707,3.2868,3.2922,3.2864,3.3024,3.3119,3.305,3.305,3.2837,3.2555,3.2461,3.2416,3.2492,3.3021,3.3939,3.5136,3.5749,3.6211,3.663,3.6538,3.6446,3.6384,3.604,3.5738,3.5706,3.5561,3.5447,3.5447,3.5576,3.5689,3.5689,3.5705,3.5672,3.5608,3.5234,3.482,3.4433,3.4735,3.4787,3.4568,3.4448,3.438,3.438,3.438,3.438,3.4414,3.4448,3.4635,3.4854,3.4702,3.4568,3.482,3.4702,3.4414,3.438,3.438,3.4534,3.4635,3.4721,3.4787,3.4687,3.4601,3.4534,3.4467,3.4312,3.4196,3.4162,3.3874,3.3791,3.3722,3.3722,3.3756,3.3839,3.3942,3.4201,3.4491,3.4543,3.4442,3.0136,3.0602,3.1549,3.1922,3.1891,3.1441,3.1259,3.1161,3.0773,3.0572,3.0546,3.0521,3.0407,3.0267,3.0162,3.0019,2.9875,2.981,3.0193,3.0829,3.0834,3.0621,3.041,3.0434,3.0253,2.992,2.9887,3.0031,3.033,3.0923,3.1399,3.1734,3.2167,3.2315,3.2372,3.2372,3.2467,3.2756,3.3,3.3256,3.3515,3.3732,3.3818,3.3818,3.3818,3.3834,3.3834,3.3742,3.3459,3.3134,3.3603,3.4462,3.5291,3.5745,3.6362,3.6917,3.7004,3.6963,3.717,3.6783,3.6554,3.6492,3.6259,3.6102,3.6102,3.6134,3.6228,3.6306,3.6259,3.6243,3.6244,3.5785,3.5317,3.5004,3.507,3.5136,3.4938,3.4938,3.4894,3.4898,3.4912,3.5001,3.5093,3.5034,3.5085,3.5317,3.5187,3.5004,3.5285,3.5201,3.5004,3.4953,3.507,3.5136,3.5052,3.507,3.5169,3.5004,3.4854,3.4787,3.4721,3.4467,3.4312,3.452,3.4404,3.4624,3.4624,3.4471,3.4471,3.452,3.462,3.4839,3.5121,3.5302,3.5255,2.9705,2.9867,3.1216,3.1814,3.1814,3.1686,3.1542,3.1518,3.1366,3.119,3.1174,3.1014,3.0916,3.0664,3.0432,3.0206,3.0009,2.9887,2.9898,2.9957,2.9871,2.9879,3.0186,3.0181,3.0109,3.0099,3.0115,3.0171,3.0266,3.0763,3.1031,3.1219,3.1395,3.1216,3.1522,3.12,3.172,3.2347,3.2789,3.3332,3.3908,3.4439,3.4736,3.4712,3.4738,3.4763,3.4739,3.4675,3.4317,3.3539,3.3958,3.4382,3.4578,3.5476,3.6405,3.7101,3.7116,3.7447,3.7725,3.7467,3.7068,3.707,3.6844,3.6523,3.6677,3.6799,3.6921,3.7147,3.6967,3.6906,3.6966,3.6492,3.6039,3.5881,3.5576,3.5479,3.5864,3.5849,3.5597,3.5507,3.5695,3.5957,3.6093,3.5925,3.5849,3.5896,3.5849,3.58,3.5896,3.5832,3.5849,3.5769,3.564,3.5576,3.5415,3.5447,3.5544,3.5672,3.5397,3.5201,3.5136,3.4887,3.4754,3.4905,3.5103,3.535,3.5382,3.5187,3.5187,3.535,3.5447,3.5544,3.5705,3.5896,3.6071,2.9689,2.9851,3.1216,3.1797,3.1716,3.1288,3.1045,3.0942,3.0497,3.0412,3.0264,3.0232,3.0245,3.006,2.9968,2.9805,2.9737,2.9627,2.9548,2.9548,2.9517,2.9592,2.9786,2.9714,2.9627,2.9572,2.9635,2.9696,3.0099,3.0658,3.1137,3.1615,3.1867,3.2191,3.2387,3.2259,3.2514,3.2714,3.2877,3.3066,3.3348,3.3918,3.4236,3.4286,3.4648,3.4873,3.4923,3.4899,3.4811,3.4529,3.4603,3.4988,3.5362,3.5809,3.6295,3.696,3.7535,3.7896,3.8062,3.8186,3.8234,3.827,3.7911,3.7857,3.7873,3.7682,3.777,3.7915,3.777,3.7711,3.7828,3.728,3.6784,3.6445,3.6086,3.5944,3.629,3.6102,3.5866,3.5804,3.5908,3.6032,3.6084,3.6103,3.6105,3.6337,3.6274,3.6117,3.6352,3.6243,3.6165,3.5976,3.5864,3.5849,3.5849,3.5849,3.5959,3.6258,3.6086,3.5721,3.5672,3.5576,3.5544,3.564,3.5769,3.5991,3.5849,3.5689,3.5881,3.6086,3.5959,3.5928,3.6274,3.6523,3.6739,2.9403,2.9535,3.0947,3.1556,3.149,3.1133,3.0973,3.0891,3.0582,3.0389,3.0389,3.0389,3.0284,3.0097,3.0016,2.9848,2.9673,2.9601,2.9589,2.9617,2.9804,2.9903,2.9877,2.973,2.9673,2.9591,2.9591,2.9777,3.0092,3.062,3.108,3.1353,3.1762,3.1979,3.1929,3.2055,3.2264,3.2486,3.2591,3.2691,3.3021,3.3378,3.3534,3.3717,3.4216,3.4692,3.4998,3.5018,3.497,3.4899,3.4916,3.5098,3.5462,3.5528,3.5876,3.6589,3.7069,3.7358,3.7805,3.8253,3.8535,3.8553,3.8526,3.8583,3.8488,3.8274,3.8262,3.846,3.829,3.8319,3.8359,3.787,3.7415,3.7193,3.6846,3.6693,3.6998,3.6784,3.66,3.6569,3.66,3.6584,3.6585,3.6553,3.6722,3.6891,3.6831,3.6861,3.6922,3.6662,3.6492,3.643,3.6476,3.6569,3.66,3.66,3.6538,3.68,3.6739,3.6368,3.618,3.6117,3.6086,3.6117,3.6368,3.6507,3.6337,3.6274,3.6476,3.6507,3.6352,3.6414,3.6785,3.6953,3.7195,2.9029,2.9148,3.062,3.1247,3.1258,3.121,3.1235,3.1244,3.1168,3.1134,3.1134,3.119,3.0898,3.058,3.0539,3.0351,2.9989,3.0054,3.0011,3.014,3.033,3.0459,3.0307,3.029,3.0246,3.0208,3.0187,3.0208,3.0368,3.0725,3.0905,3.1009,3.1026,3.0959,3.1143,3.1063,3.1314,3.1821,3.1942,3.2156,3.2555,3.2801,3.2926,3.3043,3.364,3.4375,3.4821,3.4991,3.4948,3.4947,3.4923,3.4916,3.4949,3.4916,3.5214,3.5794,3.6108,3.6456,3.6953,3.7639,3.8127,3.8223,3.8558,3.881,3.8772,3.8628,3.8544,3.8832,3.86,3.8572,3.8639,3.8286,3.8001,3.7828,3.7655,3.7524,3.7539,3.7539,3.751,3.751,3.748,3.751,3.751,3.751,3.748,3.7224,3.7195,3.7225,3.7285,3.715,3.7119,3.718,3.7285,3.7375,3.7375,3.7375,3.7315,3.7345,3.7285,3.7013,3.6631,3.6538,3.6445,3.6538,3.6831,3.6938,3.6831,3.6907,3.6998,3.7029,3.6892,3.7059,3.7301,3.7285,3.7421,2.9158,2.9294,3.0793,3.144,3.144,3.144,3.144,3.1423,3.144,3.1366,3.1293,3.1274,3.1193,3.1018,3.1035,3.0995,3.0855,3.0818,3.0898,3.0915,3.0975,3.1015,3.0955,3.0955,3.0878,3.0818,3.0797,3.0797,3.0838,3.0855,3.0932,3.0975,3.0935,3.0932,3.0975,3.1012,3.1086,3.1348,3.1381,3.15,3.1712,3.2105,3.2312,3.2412,3.2952,3.3628,3.4247,3.4392,3.4653,3.5008,3.4984,3.4864,3.4906,3.4923,3.5039,3.523,3.5711,3.6059,3.634,3.692,3.7582,3.8004,3.8183,3.8596,3.9158,3.8838,3.8843,3.905,3.8931,3.8733,3.8707,3.8689,3.8358,3.8084,3.7905,3.7751,3.777,3.7626,3.751,3.751,3.751,3.751,3.751,3.751,3.751,3.751,3.751,3.751,3.751,3.751,3.751,3.751,3.751,3.751,3.751,3.751,3.751,3.751,3.751,3.748,3.7089,3.6998,3.6922,3.7059,3.7331,3.7301,3.7165,3.7255,3.7315,3.7375,3.7391,3.7421,3.745,3.751,3.751,2.9211,2.9382,3.0849,3.1481,3.1481,3.1481,3.1481,3.1481,3.1481,3.1479,3.1406,3.1389,3.1385,3.1346,3.1327,3.1327,3.1327,3.1271,3.1252,3.1213,3.1213,3.1291,3.1428,3.1408,3.1332,3.1117,3.1092,3.1092,3.1092,3.1092,3.1072,3.1075,3.1072,3.1072,3.1075,3.1114,3.1131,3.1188,3.119,3.119,3.1272,3.1486,3.1918,3.2137,3.2551,3.3047,3.3753,3.3755,3.4141,3.4583,3.4681,3.4725,3.4944,3.4994,3.497,3.5006,3.5197,3.5479,3.5644,3.6158,3.6738,3.7168,3.7483,3.7847,3.8278,3.8368,3.8599,3.8788,3.8857,3.8941,3.8568,3.8324,3.8134,3.7677,3.7623,3.756,3.7425,3.7449,3.751,3.751,3.751,3.751,3.751,3.7539,3.751,3.751,3.751,3.751,3.751,3.751,3.751,3.751,3.751,3.751,3.751,3.751,3.751,3.751,3.751,3.751,3.7345,3.7375,3.745,3.748,3.748,3.748,3.7421,3.751,3.751,3.748,3.748,3.751,3.751,3.751,3.751,2.9197,2.9317,3.0743,3.1328,3.1328,3.1313,3.128,3.1313,3.1328,3.1213,3.1275,3.1309,3.1142,3.124,3.1207,3.1256,3.1222,3.1133,3.0982,3.098,3.0925,3.098,3.1126,3.1107,3.0995,3.0966,3.1287,3.1393,3.1428,3.1387,3.1468,3.1408,3.1406,3.1466,3.1408,3.1387,3.1447,3.1485,3.1485,3.1466,3.1447,3.1496,3.1784,3.2024,3.209,3.2472,3.3005,3.3182,3.3393,3.41,3.4174,3.451,3.4923,3.5118,3.5065,3.4947,3.503,3.5063,3.5098,3.5495,3.5893,3.5976,3.6539,3.7053,3.736,3.781,3.8127,3.836,3.8543,3.8615,3.8164,3.7857,3.737,3.6987,3.7069,3.7025,3.691,3.7106,3.7152,3.7583,3.7553,3.7539,3.7569,3.7583,3.7539,3.751,3.751,3.751,3.751,3.751,3.751,3.751,3.751,3.751,3.751,3.751,3.751,3.751,3.751,3.751,3.751,3.751,3.751,3.751,3.751,3.751,3.751,3.751,3.751,3.751,3.751,3.751,3.751,3.751,3.751,2.9275,2.9346,3.0218,3.0592,3.061,3.0592,3.0633,3.0592,3.0653,3.0527,3.0467,3.0432,3.0457,3.0407,3.0353,3.0353,3.0498,3.0484,3.0413,3.0413,3.0381,3.0398,3.0368,3.0419,3.011,3.0125,3.101,3.19,3.1933,3.2127,3.1914,3.2056,3.2039,3.2039,3.2021,3.2109,3.2003,3.1967,3.1985,3.1985,3.1985,3.2003,3.193,3.1931,3.1771,3.1956,3.2354,3.2534,3.2793,3.3491,3.3847,3.436,3.4883,3.5144,3.5174,3.5211,3.5188,3.5171,3.5074,3.5063,3.547,3.5843,3.6133,3.6678,3.7233,3.7633,3.7823,3.8046,3.7999,3.7876,3.7725,3.7436,3.7193,3.6975,3.6788,3.6702,3.6549,3.6512,3.6694,3.7364,3.7446,3.749,3.7424,3.7485,3.7599,3.7539,3.751,3.751,3.751,3.751,3.751,3.751,3.751,3.751,3.751,3.751,3.751,3.751,3.751,3.751,3.751,3.751,3.751,3.751,3.751,3.751,3.751,3.751,3.751,3.751,3.751,3.751,3.751,3.751,3.751,2.9301,2.9376,3.0092,3.0398,3.0398,3.0398,3.0398,3.0398,3.0398,3.0368,3.032,3.0305,3.029,3.0244,3.0244,3.0262,3.0227,3.0183,3.015,3.0152,3.0106,3.0152,3.0088,3.0119,3.0231,3.047,3.1293,3.155,3.1411,3.1775,3.2004,3.2127,3.2214,3.2282,3.2282,3.2248,3.2299,3.2299,3.2317,3.2317,3.2299,3.2299,3.2162,3.2021,3.1877,3.1975,3.2165,3.2303,3.2664,3.3287,3.3575,3.4085,3.4587,3.505,3.5402,3.5667,3.5764,3.5627,3.5374,3.5316,3.5495,3.5623,3.5716,3.6004,3.6631,3.7034,3.7511,3.788,3.7982,3.7706,3.7326,3.7128,3.6817,3.6408,3.6372,3.6348,3.616,3.6153,3.6502,3.7028,3.709,3.7068,3.706,3.7216,3.7533,3.7599,3.7524,3.751,3.751,3.751,3.751,3.751,3.751,3.751,3.751,3.751,3.751,3.751,3.751,3.751,3.751,3.751,3.751,3.751,3.751,3.751,3.751,3.751,3.751,3.751,3.751,3.751,3.751,3.751,3.751,2.9237,2.9309,2.9872,3.0141,3.0141,3.0109,3.0102,3.0127,3.0084,3.0062,3.0109,3.0084,3.0048,3.0105,3.0084,3.0084,3.0109,2.9944,2.9887,2.9855,2.9812,2.9976,3.0084,3.0222,3.0078,2.9956,3.0526,3.0713,3.0944,3.1302,3.1689,3.2016,3.2238,3.2413,3.2516,3.2635,3.2519,3.2519,3.2519,3.2519,3.2519,3.2435,3.2384,3.2368,3.2351,3.2266,3.2284,3.2284,3.2547,3.2985,3.3283,3.3618,3.4302,3.4782,3.5407,3.619,3.6399,3.6201,3.6007,3.5856,3.582,3.5735,3.5622,3.5783,3.6117,3.6779,3.7234,3.7756,3.7718,3.7495,3.6999,3.6813,3.6378,3.5977,3.6066,3.6206,3.5868,3.5753,3.5849,3.6215,3.6486,3.6635,3.6657,3.6921,3.7221,3.7401,3.7313,3.751,3.751,3.751,3.751,3.751,3.751,3.751,3.751,3.751,3.751,3.751,3.751,3.751,3.751,3.751,3.751,3.7553,3.751,3.751,3.751,3.751,3.751,3.751,3.751,3.751,3.751,3.751,3.751,2.904,2.904,2.9137,2.9156,2.9186,2.9211,2.9198,2.9205,2.9235,2.9168,2.9284,2.9205,2.9235,2.9272,2.9253,2.9205,2.9211,2.9259,2.9289,2.93,2.9246,2.9188,2.8956,2.8835,2.9011,2.9142,2.9349,3.0064,3.0614,3.102,3.1564,3.2007,3.2157,3.2509,3.2769,3.2883,3.3256,3.3223,3.3208,3.3226,3.318,3.2876,3.2763,3.2666,3.2518,3.2384,3.2436,3.2453,3.2525,3.2561,3.2814,3.3284,3.3957,3.4435,3.5055,3.5648,3.6045,3.6232,3.6298,3.6374,3.6343,3.6151,3.6084,3.6224,3.6475,3.6699,3.7065,3.7044,3.6936,3.6855,3.6688,3.6324,3.6014,3.5949,3.599,3.5915,3.5585,3.5618,3.5706,3.5717,3.6067,3.6191,3.6234,3.6587,3.6905,3.7042,3.7179,3.7372,3.7581,3.7621,3.751,3.751,3.751,3.751,3.751,3.751,3.7524,3.7539,3.7642,3.7642,3.7685,3.7714,3.7612,3.7612,3.7553,3.751,3.751,3.751,3.751,3.751,3.751,3.751,3.751,3.751,3.7642,2.8987,2.8987,2.8987,2.8987,2.8987,2.8987,2.8987,2.8987,2.8987,2.8987,2.8987,2.8987,2.8987,2.9005,2.8987,2.8994,2.8987,2.8987,2.8987,2.8987,2.8975,2.8947,2.8894,2.8834,2.8713,2.8717,2.8897,2.927,3.0007,3.0617,3.1101,3.1401,3.1624,3.1742,3.2351,3.2613,3.273,3.2846,3.3118,3.3375,3.3345,3.3223,3.3129,3.3129,3.2957,3.2912,3.2896,3.2928,3.2928,3.2961,3.3117,3.3255,3.3658,3.4051,3.4557,3.5017,3.5368,3.5764,3.6259,3.6684,3.6777,3.6704,3.662,3.6615,3.6791,3.6908,3.6989,3.6987,3.6869,3.6771,3.6768,3.6632,3.6447,3.6305,3.6224,3.5989,3.5793,3.5644,3.5661,3.5633,3.5666,3.5907,3.6157,3.6578,3.679,3.6756,3.6972,3.7214,3.7584,3.7971,3.7758,3.751,3.751,3.751,3.751,3.751,3.7583,3.7655,3.8014,3.8014,3.8014,3.7985,3.7972,3.7815,3.7714,3.7642,3.7553,3.7553,3.7612,3.7553,3.751,3.7685,3.7902,3.7972,3.8042,2.9028,2.8987,2.8987,2.8987,2.8987,2.8987,2.8987,2.8987,2.8987,2.8987,2.8987,2.8987,2.9005,2.9017,2.8998,2.9017,2.9028,2.8987,2.8987,2.8987,2.8987,2.8987,2.8952,2.8975,2.8975,2.8987,2.896,2.9087,2.9296,2.9761,3.0283,3.06,3.0854,3.1094,3.1336,3.1715,3.2019,3.2046,3.2675,3.2991,3.3067,3.3302,3.3342,3.336,3.3393,3.3393,3.3393,3.3364,3.3364,3.3364,3.3349,3.3385,3.35,3.3702,3.3957,3.4352,3.4694,3.5201,3.5863,3.647,3.7111,3.7228,3.7087,3.697,3.7027,3.7046,3.6989,3.6989,3.697,3.695,3.697,3.6968,3.6831,3.667,3.6609,3.6367,3.6178,3.6054,3.5989,3.6014,3.6005,3.5975,3.626,3.6652,3.6733,3.6546,3.6708,3.703,3.7426,3.7959,3.7869,3.7534,3.7796,3.7815,3.7799,3.777,3.774,3.7915,3.8282,3.8463,3.8518,3.8535,3.8535,3.8327,3.8059,3.7886,3.7886,3.7786,3.7698,3.7857,3.803,3.8242,3.8395,3.849,3.8546,2.9044,2.8987,2.8987,2.9005,2.8987,2.8987,2.8987,2.9017,2.8987,2.8987,2.8998,2.8998,2.9062,2.9085,2.9067,2.9067,2.9096,2.9028,2.9028,2.8998,2.8987,2.8987,2.8987,2.8987,2.8987,2.8987,2.8987,2.8987,2.9012,2.9173,2.9661,3.0039,3.013,3.0598,3.0901,3.1076,3.1346,3.147,3.2028,3.2295,3.252,3.285,3.3284,3.3339,3.3357,3.3393,3.3393,3.3393,3.3393,3.3393,3.3393,3.3393,3.3418,3.3467,3.3623,3.3786,3.4183,3.4614,3.5155,3.6146,3.7157,3.7506,3.7521,3.7278,3.7278,3.7105,3.7029,3.7029,3.7048,3.7027,3.7007,3.697,3.6948,3.6891,3.6811,3.671,3.653,3.6485,3.6406,3.6423,3.6406,3.6367,3.6367,3.6758,3.6667,3.6478,3.6882,3.72,3.7186,3.7529,3.7652,3.7644,3.809,3.8248,3.827,3.8262,3.8278,3.8535,3.8903,3.9038,3.9135,3.9135,3.9119,3.8947,3.8684,3.8435,3.8294,3.8407,3.849,3.8435,3.853,3.8739,3.9028,3.9252,3.9216,2.9108,2.9241,2.9071,2.9028,2.9055,2.9017,2.9028,2.9062,2.9028,2.9028,2.9067,2.9089,2.9134,2.916,2.9238,2.9185,2.9134,2.9214,2.9115,2.9033,2.8987,2.8987,2.8987,2.8998,2.8987,2.8987,2.8987,2.8987,2.8987,2.8987,2.9104,2.9373,2.949,2.9545,2.9856,3.0368,3.0701,3.1073,3.136,3.1538,3.1692,3.2212,3.2669,3.2669,3.3266,3.3357,3.3393,3.3393,3.3393,3.3393,3.3393,3.3393,3.3393,3.3393,3.3393,3.3393,3.3791,3.4099,3.4645,3.5623,3.6499,3.7124,3.7399,3.7577,3.7396,3.7356,3.7279,3.7241,3.7182,3.7161,3.7027,3.6989,3.697,3.6989,3.695,3.6908,3.6849,3.6768,3.6748,3.669,3.6751,3.6774,3.6791,3.6841,3.663,3.6439,3.6939,3.7307,3.7205,3.7251,3.7435,3.7784,3.8252,3.858,3.8656,3.8717,3.8799,3.9156,3.9532,3.961,3.9714,3.9697,3.9629,3.9489,3.9305,3.9011,3.8957,3.9183,3.9139,3.8859,3.8957,3.9216,3.9575,3.9935,3.9885,2.9243,2.9369,2.9283,2.9259,2.9259,2.916,2.9181,2.927,2.923,2.9238,2.928,2.9332,2.9363,2.9385,2.9367,2.9367,2.927,2.9278,2.9211,2.9123,2.9067,2.9033,2.9044,2.9078,2.9112,2.9044,2.906,2.9082,2.8987,2.8987,2.9042,2.9049,2.9005,2.9067,2.9184,2.949,3.0045,3.0385,3.0735,3.0769,3.0883,3.1488,3.1864,3.1991,3.2592,3.2922,3.3049,3.3176,3.3393,3.3393,3.3393,3.3393,3.3393,3.3393,3.3393,3.3393,3.3447,3.3701,3.4298,3.5243,3.5937,3.6453,3.6712,3.7057,3.7309,3.7292,3.7075,3.7412,3.7354,3.7239,3.7068,3.7066,3.6989,3.6989,3.6989,3.693,3.695,3.6891,3.6911,3.6911,3.695,3.695,3.693,3.6928,3.6783,3.6582,3.6672,3.6938,3.6903,3.7063,3.7428,3.7851,3.8439,3.8747,3.9028,3.9367,3.9715,3.9902,4.0187,4.0237,4.0286,4.0245,4.022,4.017,3.9944,3.9584,3.9516,3.9629,3.9394,3.9049,3.9411,3.991,4.0087,4.0427,4.0468,2.9466,2.9428,2.9661,2.9732,2.9661,2.9465,2.9475,2.9616,2.9634,2.9634,2.9625,2.9671,2.9688,2.9688,2.9533,2.9495,2.9436,2.9334,2.9259,2.9249,2.9249,2.9171,2.9203,2.9267,2.928,2.9123,2.9181,2.9206,2.9055,2.9112,2.9089,2.906,2.9104,2.9044,2.8998,2.9005,2.9025,2.9118,2.9814,2.9996,3.0183,3.0737,3.1074,3.1284,3.1859,3.223,3.2556,3.2922,3.3176,3.3375,3.3393,3.3393,3.3393,3.3393,3.3393,3.3393,3.3393,3.3429,3.3556,3.495,3.5517,3.5756,3.6002,3.6226,3.6535,3.6629,3.6773,3.7167,3.729,3.7265,3.7185,3.7143,3.7048,3.6989,3.6989,3.6989,3.6989,3.6989,3.6989,3.6989,3.6989,3.6989,3.6989,3.697,3.6911,3.6768,3.6606,3.6586,3.6636,3.6831,3.7166,3.7691,3.8287,3.8862,3.9292,4.0171,4.0604,4.0758,4.0752,4.0662,4.0686,4.0645,4.0686,4.0734,4.05,4.0087,3.9995,4.0003,3.9851,3.98,4.0245,4.0662,4.0823,4.0823,4.0776,2.972,2.9861,2.9782,2.9915,3.0092,2.9748,2.9652,2.9767,2.9756,2.9756,2.9765,2.9809,2.975,2.9724,2.9788,2.9738,2.9542,2.9744,2.9695,2.9514,2.9514,2.9532,2.9523,2.9513,2.9513,2.9445,2.9484,2.9484,2.9415,2.9363,2.9394,2.9414,2.9314,2.9238,2.906,2.8987,2.8982,2.8989,2.921,2.9314,2.9363,2.9977,3.0376,3.0399,3.1079,3.1637,3.2073,3.2462,3.2868,3.3248,3.3321,3.3393,3.3393,3.3393,3.3393,3.3393,3.3393,3.3393,3.3429,3.4048,3.4428,3.4883,3.5358,3.562,3.6058,3.6056,3.6402,3.6784,3.6897,3.6952,3.7193,3.7223,3.7164,3.7009,3.6989,3.6989,3.6989,3.6989,3.6989,3.6989,3.6989,3.6989,3.6989,3.6989,3.695,3.6911,3.6751,3.6626,3.6624,3.663,3.6879,3.7398,3.7973,3.8726,3.9459,4.0229,4.0713,4.0823,4.0847,4.0823,4.0871,4.0894,4.0871,4.0823,4.071,4.059,4.05,4.0434,4.0549,4.071,4.0847,4.0894,4.0871,4.0871,4.0847,2.9943,3.0087,3.0,3.0095,3.0311,2.9966,2.988,2.9985,3.0011,3.0019,3.0015,3.0049,3.0026,2.9969,2.9981,3.0018,2.9738,2.9845,2.9935,2.9765,2.9775,2.9732,2.9742,2.9786,2.9715,2.968,2.968,2.968,2.957,2.9589,2.958,2.9561,2.9598,2.9445,2.9291,2.9238,2.9192,2.916,2.9185,2.9099,2.9165,2.9375,2.9612,2.9807,3.0298,3.0906,3.1429,3.1928,3.2426,3.29,3.3194,3.3339,3.3375,3.3393,3.3393,3.3393,3.3393,3.3393,3.3429,3.3429,3.3846,3.4139,3.4733,3.5062,3.5299,3.5336,3.5747,3.6116,3.6274,3.6627,3.6934,3.7021,3.705,3.69,3.7087,3.7087,3.7007,3.7027,3.6989,3.6989,3.6989,3.6989,3.6989,3.6989,3.697,3.695,3.6911,3.6771,3.6609,3.6634,3.6676,3.7111,3.7767,3.8574,3.9347,4.0126,4.0582,4.0836,4.0935,4.0959,4.0894,4.0894,4.0894,4.0894,4.0823,4.0776,4.0823,4.0847,4.0806,4.0806,4.0871,4.0894,4.0894,4.0894,4.0894,3.0115,3.0136,3.0317,3.0373,3.0355,3.0122,3.0169,3.0373,3.0367,3.0367,3.0367,3.0349,3.0286,3.0292,3.0189,3.0082,3.0066,3.0004,2.9981,2.9958,2.9973,2.9907,2.9923,3.0015,2.9931,2.9832,2.9788,2.9851,2.9662,2.9716,2.9716,2.9672,2.9706,2.9653,2.9616,2.9589,2.9504,2.9365,2.9283,2.9209,2.9233,2.9111,2.9251,2.9448,2.9799,3.0167,3.0691,3.1308,3.1901,3.2409,3.2861,3.3172,3.3339,3.3393,3.3393,3.3393,3.3393,3.3393,3.3419,3.3433,3.3455,3.3687,3.3625,3.3941,3.4286,3.4601,3.4963,3.538,3.5648,3.6076,3.6446,3.6594,3.6738,3.6912,3.7189,3.7166,3.7066,3.7027,3.6989,3.6989,3.6989,3.6989,3.6989,3.6989,3.6989,3.697,3.695,3.6928,3.6771,3.6629,3.6689,3.6835,3.7556,3.8466,3.9255,4.0083,4.0642,4.1018,4.1029,4.1047,4.0982,4.0918,4.0935,4.0935,4.0912,4.0894,4.0894,4.0894,4.0871,4.0894,4.0894,4.0894,4.0894,4.0894,4.0894,3.0311,3.0317,3.0373,3.0404,3.0379,3.0311,3.0323,3.0398,3.0404,3.0404,3.0404,3.0404,3.0323,3.0196,3.0267,3.0209,3.0182,3.0202,3.0254,3.0247,3.0195,3.0182,3.0189,3.0202,3.0155,3.0121,3.0085,3.0071,3.0045,3.0015,3.0,3.0042,2.9961,2.9977,2.9984,3.0007,2.9794,2.9617,2.9523,2.9455,2.9405,2.9345,2.9345,2.9473,2.9535,2.9871,3.0457,3.0691,3.1225,3.1763,3.227,3.2595,3.2617,3.306,3.3393,3.3393,3.3408,3.347,3.3549,3.3462,3.3452,3.3538,3.3495,3.3462,3.3694,3.3927,3.4217,3.4637,3.4942,3.5302,3.5878,3.6194,3.6433,3.6756,3.7074,3.7317,3.7201,3.7105,3.7048,3.6989,3.6989,3.6989,3.6989,3.6989,3.6989,3.6989,3.697,3.6968,3.6908,3.6751,3.6705,3.6817,3.7679,3.8673,3.9358,4.0157,4.0677,4.1117,4.1129,4.114,4.1082,4.1035,4.1023,4.0976,4.0935,4.0894,4.0894,4.0894,4.0894,4.0894,4.0894,4.0894,4.0894,4.0894,4.0894,3.0404,3.0404,3.0404,3.0404,3.0404,3.0404,3.0404,3.0404,3.0404,3.0404,3.0404,3.0404,3.0323,3.026,3.0329,3.0343,3.0228,3.0305,3.0361,3.0361,3.0404,3.0342,3.0342,3.0336,3.0305,3.0311,3.0273,3.0234,3.0234,3.0219,3.0199,3.019,3.0204,3.0204,3.019,3.0142,3.0057,2.9878,2.9769,2.9689,2.9644,2.9617,2.9598,2.9617,2.957,2.9889,3.0244,3.0227,3.0739,3.1202,3.1709,3.2291,3.2546,3.3199,3.3526,3.3516,3.3437,3.3466,3.3506,3.3581,3.3605,3.3629,3.3605,3.3581,3.3571,3.3712,3.3877,3.4075,3.4228,3.4501,3.5193,3.5806,3.6157,3.6522,3.697,3.743,3.7334,3.7201,3.7087,3.7009,3.6989,3.6989,3.6989,3.6989,3.6989,3.6989,3.6989,3.697,3.6948,3.6849,3.6751,3.6798,3.7871,3.8977,3.9595,4.0175,4.0854,4.1249,4.1249,4.1244,4.1203,4.1129,4.1053,4.0982,4.0918,4.0918,4.0918,4.0894,4.0894,4.0894,4.0894,4.0894,4.0894,4.0894,4.0894,3.0404,3.0404,3.0404,3.0404,3.0404,3.0404,3.0404,3.0404,3.0404,3.0404,3.0404,3.0404,3.0398,3.0361,3.0398,3.0404,3.0355,3.0379,3.0404,3.0404,3.0404,3.0379,3.0379,3.0398,3.0361,3.0336,3.0298,3.0292,3.0279,3.0246,3.0206,3.0211,3.0204,3.0204,3.0204,3.0204,3.015,3.0087,2.9961,2.9872,2.9742,2.9672,2.9644,2.9681,2.9662,2.9728,2.9833,3.0142,3.0617,3.081,3.1251,3.202,3.2848,3.3315,3.3532,3.373,3.3643,3.3629,3.3657,3.3716,3.3753,3.378,3.3758,3.3726,3.3726,3.3591,3.3662,3.3742,3.3927,3.4126,3.4695,3.5317,3.577,3.6309,3.6858,3.731,3.7522,3.7336,3.7163,3.7066,3.6989,3.6989,3.6989,3.6989,3.6989,3.6989,3.6989,3.6989,3.695,3.6908,3.6869,3.6881,3.8084,3.9128,3.953,4.018,4.1014,4.1358,4.1358,4.1358,4.134,4.1221,4.1076,4.1035,4.1018,4.0971,4.0965,4.0965,4.0959,4.0959,4.0935,4.0894,4.0894,4.0894,4.0894,3.0404,3.0404,3.0404,3.0404,3.0404,3.0404,3.0404,3.0404,3.0404,3.039,3.0385,3.0385,3.0404,3.0404,3.0416,3.0416,3.0404,3.0404,3.0404,3.0404,3.0404,3.0404,3.0404,3.0404,3.0398,3.0373,3.0336,3.0311,3.0286,3.024,3.0213,3.0213,3.0218,3.0204,3.0204,3.0204,3.0204,3.0204,3.0142,3.0083,3.0019,3.0042,3.0057,3.0042,3.0034,3.0011,3.004,3.0023,3.0133,3.0185,3.0648,3.1624,3.2885,3.3108,3.351,3.3901,3.3998,3.3959,3.3959,3.3947,3.3991,3.4036,3.4023,3.3959,3.3842,3.3601,3.352,3.3587,3.3725,3.3936,3.4229,3.4844,3.5487,3.6131,3.6768,3.7232,3.7685,3.7466,3.7239,3.7143,3.7048,3.6989,3.6989,3.6989,3.6989,3.6989,3.6989,3.6989,3.6989,3.695,3.693,3.7174,3.8348,3.9242,3.9588,4.025,4.1156,4.1448,4.1448,4.1471,4.1493,4.1358,4.1198,4.114,4.11,4.1071,4.1065,4.1059,4.1053,4.1029,4.1006,4.0989,4.0942,4.0942,4.0918,3.0404,3.0404,3.0404,3.0404,3.0404,3.0404,3.0414,3.0439,3.0444,3.0232,2.9981,3.0227,3.0398,3.0394,3.0436,3.0356,3.0358,3.0404,3.0404,3.0404,3.0404,3.0404,3.0404,3.0404,3.0404,3.0379,3.0336,3.0305,3.0292,3.0246,3.0219,3.0219,3.0218,3.0204,3.0204,3.0204,3.0204,3.0204,3.0204,3.0204,3.0204,3.0204,3.0204,3.0204,3.0204,3.0204,3.019,3.0072,3.0057,3.0247,3.0768,3.1589,3.2618,3.3103,3.3628,3.4087,3.4274,3.4221,3.4233,3.4233,3.4209,3.4245,3.4233,3.4148,3.4099,3.3881,3.3684,3.3753,3.3815,3.4005,3.4146,3.4623,3.5463,3.6208,3.6835,3.7388,3.761,3.7595,3.7503,3.7502,3.7297,3.6989,3.6989,3.6989,3.6989,3.6989,3.6989,3.6989,3.6989,3.6989,3.6989,3.7356,3.848,3.9164,3.9421,4.0297,4.1385,4.156,4.1515,4.1493,4.1471,4.1426,4.134,4.1277,4.1192,4.1169,4.118,4.1175,4.1152,4.1129,4.1105,4.1065,4.1035,4.1012,4.1012,3.0416,3.0416,3.039,3.039,3.039,3.0408,3.0353,3.0289,3.0303,2.9815,2.9177,2.9757,3.0109,3.0111,3.0132,3.0177,3.0144,3.0012,3.0096,3.0385,3.0404,3.0404,3.0404,3.0404,3.0404,3.0373,3.0342,3.0317,3.0337,3.026,3.0219,3.0206,3.0211,3.0204,3.0204,3.0204,3.0204,3.0204,3.0204,3.0204,3.0204,3.0204,3.0204,3.0204,3.0204,3.0204,3.0204,3.0204,3.0185,3.0381,3.0772,3.1454,3.2245,3.2871,3.363,3.4107,3.447,3.4398,3.4367,3.4431,3.4409,3.4404,3.4381,3.434,3.4305,3.4161,3.3959,3.3934,3.4011,3.4097,3.4242,3.446,3.5333,3.6353,3.6982,3.7606,3.7721,3.7774,3.7793,3.7828,3.7521,3.7166,3.7087,3.7068,3.6989,3.6989,3.6989,3.6989,3.6989,3.6989,3.6989,3.7514,3.8427,3.8936,3.9305,4.0393,4.1587,4.1582,4.156,4.1515,4.1471,4.1471,4.1448,4.1363,4.13,4.13,4.1277,4.1272,4.1249,4.1249,4.118,4.1117,4.114,4.1134,4.1152,3.0488,3.0483,3.0417,3.0406,3.0398,3.0437,3.0091,2.952,2.9457,2.8988,2.8431,2.8315,2.8444,2.8371,2.8392,2.8681,2.9371,2.9374,2.9877,3.0308,3.0213,3.0312,3.0375,3.0356,3.0377,3.0377,3.0369,3.0348,3.0383,3.0299,3.0234,3.0286,3.0219,3.0218,3.0211,3.0211,3.0204,3.0204,3.0204,3.0204,3.0204,3.0204,3.0204,3.0204,3.0204,3.0204,3.0204,3.0204,3.0204,3.028,3.0433,3.0992,3.1669,3.2449,3.3183,3.4006,3.4386,3.4659,3.4656,3.4682,3.467,3.4647,3.4626,3.4604,3.4528,3.4374,3.4245,3.4221,3.4269,3.4305,3.4387,3.4339,3.4977,3.6414,3.7376,3.7948,3.83,3.82,3.8119,3.8035,3.7844,3.7595,3.743,3.7318,3.7068,3.7048,3.7007,3.7007,3.6989,3.6989,3.6989,3.7674,3.8374,3.8901,3.9375,4.0604,4.1604,4.1604,4.1604,4.156,4.1538,4.156,4.1538,4.1453,4.1475,4.1498,4.1453,4.1386,4.1386,4.1358,4.1232,4.1186,4.1209,4.1232,4.1249]}]]